GFSNGP_sfc_thetae_000.txt.gz
Theta_e
299 296 299 299 299 298 296 296 295 298 297 303 308 310 313 318 318 318 317 319 324 327 329 331 331 334 338 341 343 343 339 336 335 334 335 333 332 332 331 330 330 330 329 329
296 298 298 298 299 301 300 299 298 299 298 304 310 312 312 315 317 318 318 319 321 325 327 328 330 331 337 340 342 342 339 337 338 336 334 333 334 334 331 330 329 330 328 329
292 294 294 291 298 298 300 301 301 297 303 305 308 311 312 313 316 318 318 320 319 321 324 325 327 331 335 339 342 341 340 340 338 333 332 332 333 333 331 328 329 328 329 329
294 291 286 297 304 303 303 308 308 307 306 307 310 312 313 314 315 316 318 321 320 320 324 326 327 331 334 338 340 341 340 340 335 333 331 331 330 328 330 329 328 328 329 329
289 288 293 303 307 307 306 304 310 309 312 312 311 313 312 313 318 317 320 322 325 325 325 327 329 332 334 337 339 339 339 337 335 334 333 334 331 330 330 330 329 329 330 330
291 289 291 299 308 313 310 300 309 311 309 309 310 304 307 313 316 316 319 321 323 326 328 330 332 334 334 334 337 337 337 337 337 335 331 330 332 332 331 331 330 331 330 328
295 293 297 307 310 313 300 299 310 310 311 312 308 310 314 318 318 321 324 326 329 331 332 332 333 334 332 332 334 337 337 337 338 337 335 334 331 329 328 330 330 329 327 324
298 295 293 310 311 304 309 310 312 313 312 312 313 315 318 320 320 322 323 325 329 330 333 334 333 334 330 332 333 335 335 335 333 333 334 329 326 326 327 326 324 324 326 322
300 300 308 311 308 311 313 312 312 311 313 317 316 318 321 321 322 323 325 327 332 334 332 331 331 332 329 328 332 332 330 329 331 330 330 328 326 326 325 325 324 324 325 325
305 307 308 308 311 311 312 312 313 314 315 318 317 322 322 323 324 324 326 327 330 330 327 325 327 329 329 331 332 329 327 328 329 328 327 326 327 328 326 324 322 324 326 324
305 307 310 309 311 312 312 312 311 312 313 314 315 315 317 318 325 325 324 327 328 326 326 326 328 327 329 331 328 326 326 325 325 325 327 327 326 322 324 321 317 325 323 322
301 308 307 306 310 314 309 309 310 310 309 311 311 312 315 313 319 325 325 326 326 325 326 326 326 327 327 329 329 328 326 324 323 325 324 323 313 310 301 300 300 299 301 310
305 306 307 308 309 310 307 306 308 308 309 308 310 310 312 313 315 322 326 327 327 324 325 324 325 326 327 326 325 324 323 320 319 319 322 319 315 312 310 304 297 295 296 296
310 310 305 306 305 306 307 307 308 307 307 308 308 309 309 309 313 315 319 325 327 324 323 323 324 324 323 323 323 323 322 314 322 321 320 317 315 313 311 309 308 305 298 299
307 308 307 309 308 307 307 307 305 304 304 305 307 307 308 308 310 313 318 321 326 325 323 323 321 321 323 323 321 322 321 319 320 320 318 315 315 313 312 309 307 306 305 300
306 307 307 305 305 306 305 304 303 305 306 305 306 308 308 309 310 312 317 321 321 323 323 322 321 323 325 324 324 323 322 316 316 317 315 314 313 312 310 309 308 307 307 307
303 302 303 303 304 304 304 304 306 307 308 307 308 309 310 310 310 312 315 318 321 321 322 322 323 325 325 323 320 319 319 319 317 317 316 314 314 313 312 310 309 308 309 306
305 305 304 305 305 305 306 307 307 307 307 308 311 312 312 311 310 311 316 317 319 320 321 320 320 320 322 321 321 319 316 316 317 318 316 315 315 315 314 313 309 310 308 305
308 307 309 309 308 308 308 308 308 309 310 310 311 310 312 313 315 316 316 316 316 317 315 316 319 319 319 319 316 316 315 314 314 314 314 311 313 314 314 312 310 309 308 304
308 310 309 308 309 309 308 308 308 308 309 307 308 308 308 311 313 315 315 313 314 316 316 318 316 316 315 318 315 313 313 313 313 312 312 312 311 311 312 307 311 309 305 303
306 307 307 306 307 307 307 308 307 307 308 308 307 307 307 311 314 316 314 314 316 316 318 316 315 313 313 312 311 310 309 310 309 309 309 309 309 310 310 312 310 307 307 306
304 304 305 306 305 305 307 306 309 308 308 309 310 310 311 310 311 313 314 313 313 311 315 314 313 311 312 310 309 308 308 309 308 308 308 307 306 306 306 305 306 307 306 306
303 304 304 304 304 304 305 307 308 309 309 309 309 308 309 310 310 311 311 314 314 312 315 315 312 312 310 307 306 304 303 303 302 302 303 305 305 305 305 304 304 305 305 305
303 304 304 305 304 303 303 305 309 311 310 310 310 310 308 308 309 311 313 310 308 310 314 313 312 311 308 307 304 302 301 301 301 300 300 298 305 305 305 304 303 303 303 301
303 303 304 303 302 302 302 304 305 308 309 309 309 310 311 308 308 309 309 313 308 311 313 309 309 309 310 306 303 301 301 301 299 299 299 299 299 300 301 301 301 301 301 302
302 301 302 303 302 302 303 304 304 305 306 307 308 309 309 310 308 307 308 307 312 309 312 311 310 310 308 305 303 301 301 301 300 298 297 298 298 299 300 300 300 300 300 301
302 299 300 301 301 301 302 303 304 304 305 306 305 308 309 309 309 308 305 308 309 308 308 309 309 307 307 305 303 302 302 301 298 300 298 298 298 298 298 299 299 300 300 300

GFSNGP_sfc_thetae_003.txt.gz
Theta_e
307 307 305 304 303 305 304 307 304 306 307 313 320 323 325 327 330 327 329 332 336 338 344 347 349 349 350 350 352 354 355 352 351 351 348 343 335 334 333 334 334 334 336 340
302 306 305 302 304 305 306 307 307 308 309 317 321 324 324 325 328 327 328 330 335 338 340 342 344 345 346 348 350 353 353 351 351 348 343 341 341 335 333 333 333 336 336 336
301 303 302 300 304 305 307 309 309 306 312 319 316 319 323 326 328 329 330 331 333 336 339 341 341 344 343 346 349 350 350 350 348 345 341 342 341 340 335 330 332 334 337 335
302 302 294 304 310 309 307 309 311 312 314 317 320 322 322 323 327 330 331 332 333 332 336 339 339 340 344 346 349 349 349 348 347 344 342 341 342 340 337 333 333 338 338 339
299 299 304 306 310 307 305 306 316 315 318 317 317 321 321 322 324 327 329 333 334 335 337 339 338 341 343 344 347 348 347 348 345 343 342 341 340 340 339 337 337 337 336 338
303 297 296 308 314 317 316 305 315 317 318 318 318 313 319 322 325 327 331 335 335 338 338 340 341 342 344 344 345 346 347 347 345 343 341 339 341 341 339 339 335 336 337 339
304 301 304 313 315 317 305 309 316 318 319 319 319 322 324 328 332 333 333 336 340 340 340 342 345 345 345 345 345 348 349 346 345 344 343 343 343 341 339 338 337 337 336 338
306 302 300 315 316 311 316 319 319 320 321 320 322 324 327 329 331 333 335 337 341 342 344 344 346 347 346 345 347 345 347 342 342 342 341 340 340 338 338 338 337 336 336 335
308 307 314 315 315 320 322 320 321 322 323 324 324 326 328 330 332 334 338 340 341 341 342 343 345 346 343 342 341 342 342 339 340 341 339 338 336 336 334 335 334 333 331 329
308 312 311 314 317 319 322 321 323 326 325 326 324 328 332 334 334 333 337 339 342 343 342 340 341 340 341 341 343 341 338 339 340 341 338 337 336 335 333 331 329 327 328 329
311 313 312 313 315 316 318 319 319 321 323 324 324 324 329 335 337 337 338 339 341 342 342 341 341 341 342 343 343 341 340 340 339 339 336 335 330 328 331 332 323 329 329 331
307 313 313 313 315 314 312 313 316 317 317 319 323 324 326 327 335 337 338 340 341 341 339 338 339 340 341 343 343 341 338 337 335 333 332 331 326 321 300 300 300 300 300 319
309 313 310 311 311 313 313 313 314 314 316 314 316 318 321 323 325 325 332 336 341 340 339 338 338 338 340 340 339 338 335 334 332 329 332 330 326 325 324 307 297 295 296 298
312 311 307 309 308 311 311 312 312 312 313 314 316 316 317 318 320 323 326 330 337 339 338 338 337 337 337 336 335 333 333 317 329 328 328 326 324 325 325 323 322 316 299 302
309 310 310 312 310 308 310 312 311 311 312 314 316 315 316 316 318 320 323 329 334 338 337 337 335 335 335 333 331 331 328 327 328 329 329 325 327 325 323 323 322 318 312 304
308 309 309 308 309 309 310 312 310 311 312 314 314 316 318 319 320 321 323 326 329 330 336 335 334 334 333 331 331 331 332 321 324 327 323 323 323 323 323 321 319 317 317 317
306 306 307 307 308 310 311 312 313 313 313 315 316 319 319 322 323 323 324 328 329 331 333 335 334 334 334 334 332 332 330 326 322 327 326 326 325 324 323 321 319 319 319 317
311 312 312 312 311 311 311 313 314 315 315 316 317 317 317 319 322 324 327 328 329 329 330 332 333 333 332 331 330 327 326 326 327 327 326 325 325 324 323 322 321 320 319 310
313 311 311 311 312 312 312 313 314 315 315 315 315 314 317 321 322 325 327 328 327 327 324 328 322 326 327 328 326 325 325 324 324 324 325 318 322 324 324 323 321 319 319 317
311 311 311 311 312 312 312 314 315 314 315 316 315 317 318 319 321 322 326 324 324 325 327 325 327 327 328 323 321 324 323 322 322 322 323 322 322 321 320 312 320 320 318 317
310 311 310 310 310 312 313 314 315 314 316 318 317 318 318 320 321 323 323 321 324 325 326 321 325 323 323 321 321 321 321 320 320 320 321 322 320 320 319 318 318 318 318 317
310 310 311 310 311 311 313 315 316 316 317 318 318 318 319 318 320 322 322 321 323 312 323 324 322 317 318 317 318 317 316 316 315 316 316 316 314 314 314 314 313 314 314 315
312 312 312 312 312 312 313 315 316 317 317 318 318 318 316 316 317 319 317 322 324 317 325 324 314 312 311 316 315 314 313 312 312 312 311 311 311 312 311 310 310 311 311 312
311 312 313 313 312 312 312 313 314 315 316 319 319 320 318 315 316 317 321 314 309 313 322 321 315 310 308 316 315 313 312 312 311 312 310 299 310 312 311 311 310 311 310 309
312 312 313 314 313 311 313 314 314 315 316 317 318 319 319 321 317 317 317 320 310 315 318 310 310 309 316 319 317 315 313 312 311 311 310 309 307 307 310 311 310 309 309 309
311 310 310 312 310 310 311 312 311 312 313 314 316 317 318 318 318 317 319 312 319 315 320 321 320 319 320 319 318 317 315 314 310 309 309 310 309 307 306 307 307 308 307 307
306 301 307 307 308 308 308 308 309 309 309 311 311 314 315 315 315 313 310 316 317 317 317 318 319 315 318 318 317 317 316 314 308 312 311 310 309 308 306 307 308 308 307 307

GFSNGP_sfc_thetae_006.txt.gz
Theta_e
308 309 309 307 306 306 305 307 306 310 310 315 318 320 321 323 325 331 336 338 341 343 349 354 355 357 356 355 356 357 357 357 359 362 362 360 358 352 346 345 343 335 339 337
308 309 309 306 308 307 307 307 308 309 310 318 320 322 321 322 324 330 336 338 342 345 348 351 352 354 355 356 356 359 359 358 361 362 361 359 355 350 347 344 341 339 336 336
305 309 308 304 308 309 308 309 309 306 312 316 316 319 322 324 328 330 336 338 340 344 347 351 352 355 354 356 358 357 358 359 360 361 358 355 352 349 345 343 341 340 340 338
306 308 299 308 314 313 310 309 312 313 315 317 319 323 327 330 327 331 337 339 341 343 347 350 350 351 353 354 356 357 358 358 359 358 355 353 351 347 345 340 340 342 342 341
304 304 307 310 313 310 309 308 313 314 317 318 320 324 328 331 332 335 339 342 343 344 347 349 348 350 351 351 353 354 354 355 356 355 352 348 347 347 347 342 341 343 344 343
307 301 299 311 317 321 320 308 315 315 316 317 321 316 318 332 331 333 338 340 341 342 345 345 346 348 348 348 351 352 354 355 355 354 352 349 348 348 347 345 343 341 342 343
305 304 307 317 318 321 308 309 318 319 321 321 321 324 331 332 333 337 340 342 343 343 342 345 346 347 347 348 349 353 355 356 354 353 352 352 350 347 346 344 342 344 341 343
308 305 302 318 318 313 321 326 326 326 327 327 330 332 334 335 338 339 339 339 340 343 345 348 350 351 350 351 355 356 356 354 350 351 348 349 348 344 341 342 342 341 343 343
310 309 318 320 318 322 327 324 327 329 329 330 330 331 334 334 335 337 337 338 341 343 347 350 353 353 352 356 356 355 350 346 348 349 346 345 342 338 338 341 339 338 339 338
314 316 317 318 321 323 325 326 328 329 329 330 328 330 331 333 335 338 340 340 342 343 345 348 351 352 354 352 353 353 349 349 345 343 344 343 341 341 340 338 337 341 340 334
313 316 317 319 320 321 322 325 327 329 329 330 333 334 336 335 338 339 341 342 342 343 346 347 350 350 351 350 349 346 345 345 342 341 340 342 334 326 337 331 325 335 333 331
310 317 315 310 315 317 318 319 322 324 324 325 329 330 333 335 340 341 343 344 345 346 347 348 349 349 350 348 349 346 342 341 341 342 342 340 336 330 299 302 301 301 300 317
316 318 312 310 312 315 315 316 318 319 321 321 322 324 326 328 329 326 336 339 344 344 345 346 347 347 349 350 348 345 343 343 340 335 337 337 336 332 328 310 297 296 296 297
316 312 308 310 308 313 315 315 314 317 318 317 318 319 320 320 323 326 328 333 338 344 344 345 345 345 347 346 346 345 342 322 337 336 336 334 334 333 332 330 326 322 300 304
309 312 311 311 312 312 314 315 313 312 314 314 318 318 318 319 319 321 325 329 332 336 341 343 343 342 344 343 341 338 334 333 335 333 332 328 331 330 330 330 328 326 313 305
310 310 310 310 311 311 312 313 314 314 316 316 318 318 320 321 322 322 324 328 327 329 337 340 342 342 342 338 335 333 332 322 326 331 332 331 332 330 329 328 327 326 323 322
305 304 307 308 310 311 312 313 314 315 316 316 317 319 322 323 324 325 327 329 334 335 337 340 339 341 339 336 334 332 331 332 325 332 330 330 329 327 327 327 326 324 324 322
312 312 313 312 312 312 312 315 316 317 317 317 318 318 318 322 324 326 329 331 333 335 337 338 339 339 338 337 334 333 331 329 328 326 327 327 327 328 327 325 324 323 322 316
312 311 312 313 313 313 313 313 315 317 318 319 318 319 322 324 326 328 329 328 330 329 331 336 327 334 336 333 331 330 328 326 328 330 330 321 326 326 326 325 324 323 324 322
310 311 312 313 314 314 314 316 315 315 318 320 320 320 321 323 326 327 330 328 329 330 333 331 333 331 331 327 322 326 329 329 328 328 327 324 323 324 325 316 323 324 322 321
311 311 311 313 313 316 317 317 318 318 320 322 321 322 322 324 325 326 324 323 328 329 329 324 330 330 329 326 325 326 325 326 326 326 324 322 323 322 321 320 320 321 319 318
312 313 313 313 313 314 318 320 320 320 321 321 322 322 321 321 323 325 326 324 327 313 326 327 327 321 323 319 324 323 321 321 322 322 320 320 318 318 318 318 317 317 318 318
314 314 314 314 315 315 317 317 319 321 321 322 321 320 318 318 319 319 320 325 327 319 326 325 314 314 314 320 320 318 317 317 318 318 316 315 315 315 315 315 315 315 314 314
316 316 317 317 316 315 315 317 317 319 320 321 320 321 317 313 318 319 323 316 312 315 322 321 316 311 307 320 319 318 317 317 316 315 316 300 311 312 313 314 314 314 313 310
317 317 317 316 313 312 315 317 315 315 316 319 319 319 319 319 316 317 320 320 311 316 325 311 311 310 317 319 319 317 317 317 316 315 314 314 313 311 311 312 314 314 314 313
312 312 313 315 313 312 312 313 312 313 312 312 314 315 316 317 319 317 319 314 319 316 317 321 323 321 321 320 319 319 318 317 316 315 312 313 313 312 311 311 311 311 311 311
309 303 309 309 310 310 311 311 311 311 311 312 311 314 315 315 315 313 310 316 316 316 317 317 317 316 318 318 317 318 318 317 311 316 315 314 314 313 312 311 311 311 311 311

GFSNGP_sfc_thetae_009.txt.gz
Theta_e
310 311 311 309 307 307 306 308 306 310 311 316 322 322 323 324 326 326 328 337 340 342 351 355 355 356 356 353 355 354 359 358 362 369 369 369 369 370 369 368 364 358 355 350
308 310 309 307 310 309 308 308 308 310 310 319 322 325 324 324 325 325 326 330 340 344 347 355 357 359 359 358 359 359 363 362 366 371 371 370 370 371 367 363 360 356 349 344
306 310 310 305 308 309 311 312 310 306 312 317 318 321 324 324 325 326 327 330 339 343 347 352 352 360 360 362 362 363 366 368 370 374 371 371 369 365 361 356 357 352 347 339
305 310 299 310 316 315 312 313 314 313 314 316 321 324 325 325 325 328 331 332 337 342 348 355 353 354 359 359 366 367 369 369 371 373 370 369 365 361 356 354 353 349 344 343
305 305 309 310 315 315 314 312 316 316 316 316 318 320 323 327 327 329 330 332 339 345 349 359 357 361 362 358 362 362 362 365 367 366 365 363 359 357 354 351 350 345 342 341
309 303 301 311 319 322 320 309 318 318 317 316 317 313 319 328 330 333 335 333 343 346 351 354 358 356 356 355 356 357 360 360 365 366 362 358 358 356 354 354 349 345 342 344
305 305 308 318 320 322 307 311 327 327 326 322 316 321 328 330 331 336 336 343 348 350 354 357 359 354 356 355 353 355 357 358 361 360 360 359 356 357 354 352 348 345 342 346
307 303 301 322 321 314 323 328 329 329 329 329 323 324 334 335 336 337 340 344 345 349 351 353 356 356 357 357 361 363 362 359 359 359 355 353 352 353 351 348 345 345 346 346
309 310 325 326 323 327 328 328 329 330 331 330 328 333 336 337 341 342 343 344 345 345 350 351 358 359 358 365 365 363 360 359 357 354 353 353 353 348 343 344 341 342 339 342
316 320 322 324 327 327 329 329 329 331 332 332 332 335 337 339 338 338 340 343 344 345 348 351 357 356 360 360 360 359 354 350 350 349 347 347 346 343 340 339 340 342 341 342
318 321 322 323 325 327 328 330 330 334 334 333 335 334 337 338 339 339 341 344 346 346 347 349 353 355 354 356 357 353 353 350 348 346 345 341 336 334 339 333 330 338 339 340
312 322 321 319 322 325 324 324 327 329 328 334 335 333 338 338 339 340 340 343 346 346 348 350 351 352 353 354 354 350 347 346 344 343 342 340 334 325 300 303 300 299 302 317
316 322 317 317 318 318 319 321 321 323 325 325 327 328 329 330 334 330 342 342 343 344 347 350 350 351 350 352 352 350 346 346 342 338 341 341 338 337 333 313 299 297 298 300
321 319 315 315 311 316 317 316 315 317 319 320 321 323 323 323 325 329 333 338 344 343 346 346 346 347 349 349 351 349 346 325 341 339 337 337 337 335 333 330 327 324 302 306
314 318 316 317 315 312 313 314 313 314 318 318 321 322 322 321 322 323 327 330 335 341 343 343 344 344 348 348 347 346 342 338 339 338 337 332 333 333 332 331 330 326 316 308
313 313 313 310 308 309 312 311 313 315 317 318 318 320 323 325 325 324 326 327 327 330 337 342 343 344 345 345 344 339 336 327 331 334 332 331 331 329 329 329 327 324 324 321
307 307 308 307 308 311 308 310 314 314 317 318 318 321 323 324 325 327 327 328 330 330 334 338 343 344 344 341 338 334 332 332 327 333 331 330 330 329 328 327 326 325 325 321
310 311 312 313 312 309 312 314 315 316 316 318 319 321 321 324 325 328 327 329 331 333 334 341 343 343 341 339 337 334 332 332 330 330 329 329 328 328 326 325 324 325 322 317
312 313 314 314 315 315 315 315 316 317 317 318 319 322 323 325 326 326 328 327 328 329 332 337 329 335 339 336 333 332 329 329 329 329 329 323 326 328 326 327 324 324 320 319
310 312 313 313 316 317 316 318 318 319 320 320 320 321 322 323 325 326 329 329 332 332 336 334 335 336 336 331 327 331 331 327 327 328 329 326 326 327 324 316 324 323 323 323
311 311 312 314 314 317 318 319 318 319 320 321 320 321 322 323 325 327 326 326 330 331 332 326 332 330 330 328 328 328 327 326 326 324 324 324 323 323 322 323 323 322 322 322
312 311 312 313 314 316 318 318 320 321 321 321 321 321 323 321 325 325 327 325 327 316 327 329 325 321 325 320 326 324 322 324 325 325 323 322 321 320 321 321 321 320 321 322
313 314 314 314 315 315 316 316 317 319 320 320 319 319 318 319 320 321 323 325 326 318 323 319 315 316 315 322 324 323 322 321 320 320 319 318 317 317 317 317 317 318 317 317
315 316 316 316 316 315 314 316 316 318 319 321 319 319 318 315 318 320 322 317 314 316 322 317 316 313 308 321 320 319 319 318 318 317 318 306 314 313 313 314 315 316 316 313
316 316 317 315 313 311 314 316 316 315 318 320 320 320 320 319 318 316 318 320 313 315 321 311 312 311 317 318 319 318 317 318 318 318 317 316 315 314 314 313 313 314 316 316
314 312 312 314 313 312 312 313 312 312 313 313 314 315 315 316 316 317 321 315 318 316 317 323 322 321 320 319 318 318 318 318 317 317 315 315 315 315 315 314 313 313 313 313
311 304 311 310 310 310 310 310 310 310 311 312 311 313 315 315 315 314 311 316 317 316 316 317 319 318 318 318 318 317 317 318 311 316 315 316 316 316 315 314 314 313 313 313

GFSNGP_sfc_thetae_012.txt.gz
Theta_e
308 309 310 310 308 309 307 308 305 308 309 316 320 324 323 328 330 329 335 338 343 346 347 346 347 348 349 350 352 353 357 358 360 364 364 365 364 366 366 365 364 362 359 354
306 310 309 308 310 309 308 309 309 309 309 317 320 324 325 325 326 329 330 333 340 344 354 354 349 348 348 349 349 352 353 355 359 362 364 363 365 364 366 366 366 363 359 353
303 308 308 304 309 310 311 310 309 306 312 318 317 320 325 328 330 330 331 332 342 345 347 353 353 352 349 349 352 351 355 356 357 361 363 364 364 364 365 365 365 361 359 353
304 307 298 309 314 313 311 312 313 314 316 318 318 321 323 325 327 328 331 331 334 338 347 353 354 353 355 353 354 354 360 358 360 363 364 365 365 364 366 365 362 359 355 347
303 302 307 310 313 314 311 311 317 316 318 317 320 320 321 324 326 327 329 337 335 332 347 353 354 356 358 355 354 360 357 366 363 371 367 367 366 365 365 361 355 352 348 341
306 300 299 311 316 322 319 309 321 323 321 319 321 312 316 325 326 326 327 331 337 334 350 356 357 357 357 358 357 355 362 364 371 371 369 367 367 363 357 353 351 350 343 341
304 302 306 316 319 320 305 311 326 326 326 325 322 327 332 332 340 334 329 333 352 354 352 357 359 359 357 359 359 361 366 366 369 370 369 368 366 358 352 352 354 347 342 342
307 303 300 320 318 311 323 327 326 326 327 327 331 331 332 336 340 341 339 342 353 355 358 361 361 361 360 361 365 367 366 365 366 367 361 361 358 353 353 350 346 344 342 341
307 308 322 328 326 328 329 327 328 328 327 328 328 330 331 338 337 339 342 351 350 356 359 361 365 361 359 363 363 362 361 362 362 361 358 356 352 351 349 349 344 341 342 341
308 317 322 324 325 328 329 329 331 336 337 333 329 331 334 339 342 346 348 350 351 352 353 355 359 361 363 363 364 362 360 357 355 351 349 351 350 349 345 343 342 342 342 345
312 323 324 326 328 329 330 333 334 334 333 335 336 336 339 343 346 346 347 349 351 351 353 356 361 359 361 363 361 354 352 350 347 345 345 340 326 332 342 325 325 344 344 342
313 315 323 322 326 328 326 327 329 328 327 329 331 330 333 339 342 344 345 345 346 350 352 353 355 356 358 360 356 353 348 346 343 343 340 337 330 323 301 302 300 300 303 327
310 313 314 318 318 324 323 323 324 324 326 325 328 325 326 329 333 332 338 342 347 350 352 352 352 351 355 359 356 351 347 347 344 341 342 339 336 332 324 310 300 298 298 305
316 314 309 312 313 317 318 319 318 320 320 321 323 322 323 325 327 333 339 343 347 349 349 350 348 347 351 352 353 354 350 331 343 342 342 341 340 338 336 329 325 320 301 305
315 315 314 314 315 315 316 318 316 316 317 319 322 322 322 323 324 328 332 341 344 344 345 348 347 348 351 351 352 347 346 341 339 343 342 338 339 338 334 331 329 321 313 306
312 313 313 311 310 312 313 314 314 312 315 317 319 322 324 326 327 328 330 333 337 340 345 342 343 346 346 347 347 346 345 331 334 339 333 336 334 333 332 332 325 321 321 317
307 305 306 305 308 312 310 313 311 314 311 314 320 320 325 326 327 329 331 331 335 337 341 344 345 346 345 345 348 339 335 337 327 336 332 332 331 330 330 329 328 326 322 320
312 313 312 310 308 307 308 311 313 316 314 314 318 322 324 324 325 327 332 333 334 337 338 341 343 345 340 340 338 338 331 332 331 331 332 331 332 332 330 328 327 327 327 317
314 313 314 315 314 312 311 313 315 317 319 319 318 320 324 326 326 331 329 328 329 330 334 340 331 336 340 333 333 335 331 328 328 328 325 322 325 327 328 328 321 324 324 318
311 312 315 315 316 317 314 315 318 317 320 320 323 322 324 323 327 330 331 329 332 332 336 335 337 337 338 336 330 330 330 327 327 328 328 327 326 327 322 318 324 323 322 322
311 313 314 316 315 316 317 319 319 318 321 322 322 321 323 325 326 326 327 326 331 332 333 328 336 332 331 330 326 327 325 327 324 325 326 321 324 324 324 324 324 324 322 322
312 312 313 314 313 315 316 318 319 321 321 323 322 322 323 323 325 324 327 325 326 316 324 323 322 319 322 321 326 325 324 324 321 319 318 322 320 322 322 319 319 323 323 324
314 316 315 316 315 316 316 317 318 320 321 322 322 322 320 320 321 319 323 321 322 318 323 320 316 318 314 322 322 321 319 320 319 319 318 318 318 318 318 318 318 321 321 321
316 316 314 318 318 317 318 317 318 321 321 321 320 320 322 315 318 320 321 316 313 318 321 318 315 314 309 318 320 319 319 319 318 317 317 309 315 314 314 314 314 316 318 315
313 317 315 314 311 310 315 317 316 314 319 321 319 321 322 319 319 316 318 317 312 317 321 311 313 312 316 317 317 318 319 318 318 318 319 318 315 315 316 315 314 315 315 316
313 311 312 315 312 310 310 311 309 311 311 312 313 314 315 318 318 317 321 316 319 315 317 321 320 318 319 318 317 317 319 318 318 317 314 317 316 315 314 316 314 314 314 313
310 304 309 308 307 307 307 308 308 307 309 310 309 311 312 314 314 314 311 314 315 315 315 319 317 317 315 317 315 317 316 318 310 315 317 317 317 317 316 316 317 316 315 315

GFSNGP_sfc_thetae_015.txt.gz
Theta_e
303 305 305 303 304 304 301 300 296 297 299 302 306 316 317 318 321 320 322 324 327 332 334 338 341 343 345 348 351 357 358 358 357 358 359 359 359 359 357 356 355 353 347 348
300 305 304 303 305 307 305 304 303 303 302 306 309 315 320 320 320 317 317 329 331 333 334 335 338 341 344 346 349 353 355 355 356 357 357 357 358 358 359 356 356 353 351 348
294 302 302 298 303 305 306 307 305 301 305 307 307 309 312 319 320 318 320 326 330 331 336 336 338 340 342 346 348 350 352 354 354 354 355 356 357 357 357 357 358 356 354 350
294 298 292 300 309 310 308 309 308 306 308 310 310 312 315 316 315 316 321 325 331 335 338 340 341 341 344 345 346 347 347 351 353 354 354 356 356 357 356 358 357 357 354 348
293 295 297 304 307 306 304 305 309 311 313 312 312 310 309 316 317 315 317 322 321 331 337 344 343 343 342 342 344 344 344 346 350 352 354 355 356 356 357 357 357 354 349 343
294 291 291 301 310 318 314 302 320 320 319 318 315 305 306 320 320 318 320 320 321 325 336 342 345 345 342 341 343 341 343 348 350 351 354 356 357 356 355 356 348 348 342 340
297 293 297 308 315 316 301 305 320 321 320 319 315 318 321 324 323 328 329 320 322 329 338 341 345 347 344 343 341 347 345 358 354 358 360 359 358 354 349 348 348 343 339 338
299 295 294 318 316 308 314 320 319 319 318 317 319 322 323 323 322 325 324 334 327 338 340 346 346 349 347 346 350 353 359 361 361 362 362 356 351 347 345 347 344 340 338 337
301 304 317 316 312 313 319 320 323 325 332 326 323 324 323 327 326 327 337 346 348 350 351 353 351 352 352 355 357 357 358 357 356 354 351 349 346 345 344 342 341 338 337 335
308 307 315 318 316 322 331 327 330 331 331 331 328 331 334 335 336 339 341 344 348 348 348 350 353 354 354 354 356 356 353 350 350 349 346 347 345 344 343 340 339 338 337 333
307 309 313 322 325 326 329 329 326 327 327 326 326 325 327 328 335 339 340 342 347 348 349 350 352 353 354 355 354 350 347 344 344 344 337 321 312 317 331 315 325 334 335 334
304 309 310 309 316 325 322 322 323 321 319 321 322 321 322 322 325 328 328 342 347 348 348 349 351 351 350 350 348 345 341 340 340 334 329 325 321 314 301 301 300 301 308 321
310 314 311 312 313 318 316 317 320 319 319 319 321 322 321 320 321 321 325 337 343 344 345 345 346 346 348 347 346 344 340 339 337 334 332 329 325 320 313 307 300 298 299 306
315 314 310 311 308 313 314 315 315 317 318 320 319 320 321 322 322 322 322 325 341 342 342 342 342 343 348 347 344 342 341 326 338 335 333 331 329 324 319 317 315 312 300 300
313 313 312 312 313 313 314 314 311 310 314 315 319 318 317 317 318 320 323 333 338 340 342 341 340 339 343 346 346 343 341 340 339 338 336 332 333 330 325 322 319 311 303 300
311 311 311 309 310 311 312 312 310 309 309 309 312 321 323 323 323 324 324 330 332 331 337 339 340 341 341 342 338 337 332 331 333 336 336 335 334 332 329 325 316 312 311 307
306 305 307 306 309 309 309 313 314 311 309 307 312 318 321 322 323 324 325 332 333 334 335 334 337 339 338 338 337 335 332 328 326 327 332 330 326 324 327 324 317 316 315 311
310 310 309 309 309 309 310 313 314 315 310 309 316 318 319 319 317 322 325 327 326 328 330 330 331 334 332 332 332 331 327 327 325 327 327 327 324 323 322 324 320 319 318 309
313 312 311 309 309 309 309 314 315 317 315 311 317 317 318 320 322 322 323 325 323 324 328 329 331 330 329 328 326 325 324 324 324 323 321 320 322 322 319 321 319 320 318 311
311 313 315 315 316 315 315 315 315 317 318 318 319 318 317 320 321 322 323 322 324 325 330 328 330 330 331 328 325 325 325 325 324 321 322 321 319 318 317 315 318 319 317 313
313 313 313 314 314 315 316 317 316 316 318 318 316 316 318 320 321 320 320 319 321 320 322 324 321 323 325 324 322 320 323 323 321 322 319 318 317 317 317 318 318 320 317 314
311 311 312 314 314 314 315 317 318 317 318 318 317 317 317 318 319 319 319 318 317 316 317 316 315 317 316 321 320 320 320 320 321 318 318 319 317 314 314 320 319 318 318 319
310 314 314 313 313 313 315 315 314 317 315 316 314 314 316 316 317 315 314 316 318 314 315 313 315 313 314 316 317 314 315 315 313 312 312 312 312 311 309 309 311 313 315 314
311 311 314 310 314 314 310 311 312 317 317 316 315 316 314 313 315 316 315 313 313 317 315 314 311 313 311 312 312 314 314 312 312 310 308 307 307 306 305 305 305 307 311 309
313 309 308 306 304 305 305 309 308 308 311 311 310 310 311 314 313 312 313 312 310 311 315 311 312 311 310 312 311 310 311 310 310 310 312 310 310 308 307 307 306 306 305 305
305 306 305 304 303 304 304 304 303 305 305 304 306 307 309 311 311 311 312 311 312 313 314 317 315 313 312 313 314 313 313 314 313 312 310 310 312 309 307 306 306 305 306 305
304 302 303 302 302 303 303 302 302 303 303 304 304 307 309 307 307 306 306 308 309 310 312 312 311 310 312 313 312 312 312 313 307 313 312 312 312 313 313 311 311 311 309 306

GFSNGP_sfc_thetae_018.txt.gz
Theta_e
297 301 302 300 300 301 298 300 296 298 294 297 300 302 307 311 318 319 319 321 326 327 331 335 338 340 344 347 351 354 354 354 354 356 357 356 356 354 352 353 352 347 346 345
295 301 302 300 302 303 302 302 300 298 296 301 304 304 308 313 316 316 317 318 323 329 333 334 338 340 342 345 351 354 354 354 356 356 356 355 356 356 353 352 352 348 345 345
288 297 300 296 301 302 301 303 302 296 299 303 303 306 307 309 315 317 315 319 325 329 332 335 339 341 341 345 350 353 354 355 356 356 355 355 356 355 355 352 352 350 346 345
288 292 290 299 307 306 302 304 304 303 304 304 306 308 307 310 314 316 316 317 324 330 332 336 340 342 343 344 347 351 353 354 356 355 354 355 355 355 355 356 352 352 350 347
287 288 294 301 303 303 300 300 307 305 306 307 308 307 305 313 311 311 315 319 320 330 332 335 337 341 342 343 345 347 350 352 354 354 353 354 353 354 355 356 355 354 355 350
291 288 289 297 306 313 309 299 316 314 313 312 307 301 303 314 318 316 312 314 317 327 336 334 336 339 340 341 343 344 347 350 353 354 352 352 353 354 355 356 356 356 351 349
292 292 293 303 311 312 300 300 316 316 315 314 312 309 316 320 317 320 315 315 316 316 328 341 338 338 338 340 341 345 347 348 350 352 352 353 354 355 354 355 352 348 342 338
297 292 291 313 312 302 306 316 316 316 314 315 316 317 317 318 318 324 323 324 319 313 316 327 341 339 337 337 342 344 345 344 346 349 351 353 354 354 353 349 345 339 337 336
301 299 309 314 309 318 323 323 324 324 326 326 328 329 331 330 332 326 334 339 341 318 319 325 337 342 337 338 339 342 341 345 347 349 353 355 352 349 347 344 341 338 336 335
303 308 310 312 320 325 324 322 322 323 324 325 323 326 326 327 327 331 333 333 342 344 342 341 341 343 342 343 348 348 348 354 355 353 351 351 349 347 345 340 338 336 334 335
305 307 310 311 315 320 322 322 320 322 321 321 321 320 322 320 322 323 322 318 321 332 343 345 349 349 352 351 355 353 352 351 349 346 341 328 317 330 338 329 336 337 334 333
302 308 305 308 314 320 318 317 317 319 319 321 321 318 318 317 318 320 320 321 320 316 317 316 319 349 352 352 351 348 345 342 336 331 329 325 322 315 304 304 304 309 312 324
308 313 310 312 312 313 311 314 317 317 317 317 319 319 319 317 318 320 324 320 322 323 324 325 324 328 347 347 347 345 340 335 331 330 329 327 324 321 314 307 300 300 304 307
314 314 310 311 309 312 312 313 314 315 315 317 317 317 318 317 320 323 327 332 334 323 322 323 323 319 342 342 341 339 336 322 334 332 330 329 326 322 319 319 317 310 301 300
310 312 311 313 313 312 313 312 310 309 311 315 317 318 317 317 319 323 329 333 335 334 327 331 339 339 341 340 338 337 336 334 333 332 330 327 324 321 319 317 316 309 304 302
309 310 310 309 308 311 312 311 308 307 306 312 315 316 318 320 321 327 329 332 330 328 332 334 334 335 335 338 339 337 334 328 333 332 330 329 326 323 320 318 313 310 311 307
305 304 305 306 308 309 312 314 313 308 306 312 313 315 314 318 321 322 322 326 328 327 328 329 328 330 330 332 331 329 328 329 329 334 333 332 330 327 324 320 316 314 314 309
309 309 309 309 309 310 311 313 314 315 310 312 313 315 316 314 313 316 319 318 323 326 327 328 329 327 326 325 325 325 327 325 326 332 332 331 330 328 326 322 320 316 313 306
312 309 309 310 311 310 310 313 314 315 316 315 316 314 317 318 320 316 315 319 319 318 321 325 327 327 324 326 325 323 324 322 322 320 321 320 320 321 327 321 318 318 315 309
313 313 314 313 315 314 312 314 316 316 315 317 317 317 317 318 318 320 318 317 318 320 322 322 319 323 321 323 325 324 323 321 320 320 320 320 320 318 318 315 320 318 316 312
312 311 311 312 312 313 313 313 313 313 314 315 315 314 314 315 318 319 316 314 316 317 314 315 317 319 320 323 322 323 322 322 321 320 319 318 318 318 317 317 317 317 313 311
310 311 311 312 312 311 312 313 315 313 314 310 313 315 315 313 315 314 315 314 315 314 311 309 310 316 317 319 316 320 320 320 319 319 318 317 315 315 316 317 318 316 315 312
304 304 305 305 305 306 306 308 310 311 309 310 308 311 311 311 310 308 309 313 311 311 308 308 311 312 312 313 313 317 318 317 317 313 313 314 312 310 311 316 316 315 314 314
302 300 301 302 303 303 302 303 305 306 307 306 307 309 310 310 310 310 310 310 311 313 311 310 311 311 310 312 311 310 311 311 308 307 308 303 305 304 303 304 305 309 309 309
301 299 299 299 299 298 299 302 302 302 303 303 305 307 306 306 305 305 308 308 309 311 311 310 310 310 313 312 313 313 311 309 307 308 308 306 304 303 303 302 303 304 305 305
298 297 297 296 297 297 297 298 299 300 301 302 304 305 305 304 304 303 304 305 307 309 309 309 308 309 308 309 310 311 311 311 312 310 309 310 311 308 308 307 305 302 302 302
297 297 296 297 298 298 297 299 299 297 299 299 298 300 301 301 301 301 301 302 304 304 305 307 308 307 306 306 307 307 308 309 304 308 307 306 305 304 304 304 304 304 303 301

GFSNGP_sfc_thetae_021.txt.gz
Theta_e
291 294 296 296 296 299 295 298 294 298 293 298 299 301 303 306 311 315 320 324 321 325 324 328 331 336 339 343 346 347 347 348 349 350 351 351 350 349 349 349 349 345 344 344
289 296 297 296 298 299 300 300 298 298 294 299 303 302 301 303 305 313 316 323 324 326 327 328 332 335 338 342 345 348 348 348 349 351 352 351 352 351 349 348 349 346 344 343
284 292 293 291 297 299 300 301 300 296 298 300 300 301 302 304 306 310 315 318 317 323 325 328 331 336 337 341 344 348 348 349 350 350 351 352 352 352 350 348 349 345 345 344
284 287 284 296 303 304 301 301 300 299 302 302 304 306 306 306 308 311 314 315 316 320 322 326 332 337 339 341 344 347 348 349 350 351 350 352 352 352 352 350 349 348 345 344
284 284 291 297 302 301 298 298 303 302 303 303 304 303 303 307 307 309 312 316 317 322 325 328 331 336 338 340 342 346 347 349 350 352 351 351 351 352 353 352 349 349 348 346
285 284 285 294 309 313 302 297 310 305 304 305 303 298 304 306 311 310 310 311 317 323 326 326 332 336 338 338 341 344 348 349 352 353 353 352 352 352 354 354 353 351 350 350
288 286 291 305 312 314 295 298 314 310 307 306 303 304 307 312 315 316 316 311 311 316 328 329 332 337 337 338 339 344 349 351 352 354 353 353 353 353 354 353 354 353 353 351
289 288 286 312 313 305 308 316 315 315 313 314 316 321 321 325 321 327 334 338 335 312 311 323 329 334 336 337 341 343 346 348 350 352 353 353 352 352 353 353 353 352 347 343
296 295 310 313 312 319 320 317 318 320 323 326 327 327 327 326 327 323 324 332 339 338 330 320 322 332 332 337 340 341 342 344 346 350 352 352 351 351 352 353 351 344 342 340
302 307 311 314 315 319 320 318 320 321 322 324 321 321 319 321 321 319 318 318 326 329 332 327 331 336 334 335 336 338 340 342 344 347 349 350 352 353 352 351 346 342 341 336
303 307 313 315 314 315 316 318 318 319 319 318 317 316 315 316 317 318 318 318 317 325 325 321 319 322 324 331 335 335 338 340 342 346 347 348 327 340 350 339 338 340 339 337
301 308 308 309 312 313 314 314 315 316 317 318 318 317 318 317 318 319 319 319 319 318 320 323 324 325 326 324 343 338 339 345 347 346 332 327 325 320 312 312 315 314 314 322
308 310 310 311 313 314 312 313 316 316 315 315 316 317 318 316 318 320 330 329 326 321 320 321 321 322 323 326 340 347 348 339 334 331 332 334 334 331 327 321 308 301 307 305
312 311 308 311 309 311 312 314 315 317 318 318 317 318 317 320 323 325 328 328 327 324 324 333 329 333 334 323 330 334 333 321 334 334 333 332 329 327 326 324 325 317 299 305
310 311 310 312 313 312 312 312 310 312 314 314 317 317 319 320 323 325 327 329 329 330 329 330 329 331 332 325 329 334 335 333 332 331 329 324 326 326 326 326 323 312 307 301
309 309 310 309 310 311 310 308 308 309 312 313 315 316 318 318 317 318 323 326 325 325 326 326 326 329 333 327 325 317 324 323 327 329 325 323 322 322 323 322 318 316 318 312
306 305 307 307 308 308 310 311 310 308 311 313 314 315 314 313 313 315 316 317 323 324 325 325 324 326 326 330 332 325 331 331 326 329 326 325 323 322 320 318 316 316 315 308
308 309 309 309 309 308 310 311 312 312 312 314 316 319 317 313 309 312 316 318 318 317 319 322 323 323 324 325 327 328 329 331 332 330 328 327 325 323 320 318 317 316 309 301
310 309 311 312 312 312 312 314 315 315 314 315 314 313 315 316 316 315 316 318 318 318 319 319 322 320 322 325 324 323 323 325 326 328 328 322 326 325 322 319 317 312 310 306
312 313 314 311 313 314 313 314 314 313 315 317 318 316 316 316 316 314 313 311 312 314 313 318 319 318 318 322 323 321 321 320 319 319 321 322 323 320 320 313 317 315 313 310
310 311 311 311 310 311 313 313 311 311 312 316 316 315 315 315 315 315 312 308 310 311 309 312 314 315 316 318 322 321 319 319 318 317 317 317 317 317 317 319 319 317 315 313
302 302 303 304 304 305 308 308 307 307 307 310 312 313 311 310 309 311 312 310 311 309 309 309 309 313 313 315 318 320 320 320 319 318 318 317 317 317 316 317 317 315 314 312
299 300 300 300 301 301 302 303 305 306 305 305 305 304 305 304 305 305 305 309 310 308 309 311 311 312 313 311 312 312 316 316 316 316 315 314 316 317 317 317 317 316 314 313
298 298 299 300 300 299 298 300 302 304 305 303 302 302 301 301 302 303 307 309 307 308 309 309 310 310 311 312 312 310 308 308 308 308 308 303 306 305 310 312 313 314 315 313
296 297 297 297 296 295 296 300 302 302 301 300 300 300 300 301 301 302 305 307 306 307 307 308 308 308 310 312 311 310 309 308 307 307 307 304 302 302 301 300 300 301 302 304
294 295 295 296 295 296 298 299 297 298 298 297 298 299 300 301 301 300 300 300 299 299 300 301 303 304 305 306 308 309 309 309 308 306 304 305 304 304 302 302 301 300 300 300
293 294 293 294 295 296 297 296 295 295 295 296 295 297 297 298 297 298 298 298 297 298 298 297 297 298 298 299 302 305 306 306 302 306 305 305 304 303 301 300 300 300 299 296

GFSNGP_sfc_thetae_024.txt.gz
Theta_e
289 293 294 293 294 295 293 296 293 297 297 299 300 301 304 305 311 314 317 320 320 322 324 326 330 333 335 338 341 344 343 343 345 347 348 349 349 350 350 349 349 348 348 348
288 293 294 292 295 296 297 296 295 298 295 299 302 302 303 304 306 308 313 319 322 323 325 326 329 333 336 338 341 344 344 343 346 347 347 347 348 349 350 350 350 348 347 347
283 290 291 289 294 296 296 297 297 294 298 302 300 301 303 305 305 305 308 312 319 323 325 326 329 334 335 338 342 343 344 345 347 348 348 348 349 348 347 347 349 347 347 347
283 286 282 291 298 300 299 300 300 301 301 303 305 306 306 306 307 306 308 313 317 322 325 328 329 331 335 338 342 344 344 345 347 348 348 349 350 349 349 349 347 348 347 347
282 282 289 293 302 305 302 299 302 301 303 303 305 305 304 306 306 308 309 312 316 320 322 326 326 330 334 337 341 343 344 345 347 349 348 349 349 349 350 350 349 348 349 347
283 282 282 292 308 313 311 296 303 304 304 304 302 297 303 309 308 308 310 312 314 317 321 322 326 332 335 336 339 341 345 347 349 350 349 349 350 351 352 352 350 350 349 348
284 284 288 297 311 315 295 298 315 318 314 305 302 307 310 314 317 323 318 319 315 320 323 326 329 333 334 336 337 341 345 348 350 351 351 350 351 352 353 353 352 350 350 349
284 284 283 309 311 308 310 316 318 319 317 304 312 323 327 328 329 333 336 339 337 320 318 319 330 334 335 335 340 343 346 348 349 351 352 353 351 352 352 352 351 350 349 349
287 288 299 311 312 315 318 315 317 317 321 325 325 323 323 321 320 320 327 332 338 334 330 329 334 332 331 333 339 342 344 346 349 351 353 353 352 351 351 352 351 349 348 347
293 299 302 312 314 316 316 316 319 320 319 320 318 318 317 317 317 317 318 318 330 329 326 324 328 331 330 334 343 339 340 343 346 350 350 353 353 353 352 351 349 348 348 347
294 298 309 312 311 312 315 318 318 319 318 317 319 318 319 320 321 323 323 322 321 321 323 322 325 326 328 329 340 342 336 340 343 347 347 352 333 340 351 353 348 351 347 344
294 301 305 307 310 314 313 314 317 317 318 318 319 318 321 319 323 327 325 324 324 326 326 325 325 326 326 327 335 345 341 337 340 345 348 329 325 318 305 312 313 310 313 328
301 306 308 310 313 313 313 315 318 318 318 318 319 321 322 322 324 323 327 328 325 323 328 328 328 330 331 331 328 340 344 341 341 339 333 330 334 332 324 313 310 309 310 312
306 310 308 310 309 312 313 314 317 319 319 320 321 323 325 324 325 325 326 328 330 328 327 329 329 331 332 332 327 335 346 323 338 336 336 338 335 333 329 325 322 320 309 310
310 312 311 313 311 311 311 312 312 313 315 317 319 318 321 321 321 323 327 329 328 326 326 326 326 327 329 333 327 329 330 335 336 337 336 328 327 326 327 326 324 321 312 306
309 311 311 309 309 311 311 310 311 312 313 313 312 313 315 318 319 319 322 324 322 321 323 323 323 324 328 328 323 323 328 322 324 329 329 327 327 325 325 325 319 318 322 313
307 306 308 307 308 310 310 311 311 312 314 315 315 314 314 315 316 317 317 318 318 318 319 319 319 324 328 328 327 323 330 330 324 326 325 326 326 325 325 323 321 323 324 317
310 310 310 310 310 310 311 312 313 314 314 316 317 317 316 315 314 316 317 320 319 318 318 319 320 322 326 327 330 331 331 331 328 326 326 325 325 325 325 324 322 320 318 310
312 311 311 312 314 313 313 313 313 315 315 316 316 314 315 314 312 311 311 310 310 311 312 315 320 320 322 326 325 327 329 331 330 328 327 320 323 322 321 321 320 317 314 313
309 310 311 311 312 311 311 312 315 315 317 317 316 314 313 314 314 312 310 307 308 310 311 314 315 315 319 323 324 324 325 325 325 325 324 327 326 324 320 313 317 315 314 315
303 304 304 304 304 306 306 308 312 311 312 312 311 309 309 311 311 311 308 307 308 310 311 313 313 314 317 321 323 324 321 321 323 324 325 322 322 322 320 320 319 318 317 314
301 301 301 303 302 302 305 305 304 303 303 304 304 304 304 304 308 310 309 306 309 309 311 312 313 314 313 315 317 320 321 322 320 320 320 321 320 319 319 320 319 319 319 318
299 299 300 300 301 301 303 302 302 301 300 300 300 300 302 304 305 305 304 307 309 307 309 309 311 312 312 312 312 310 311 313 314 317 317 317 318 319 319 319 319 317 316 316
296 297 298 300 300 300 299 300 300 300 300 300 300 300 300 301 299 301 302 301 303 303 303 305 307 309 310 311 311 309 309 309 308 308 307 301 305 305 307 312 315 319 319 315
295 295 296 296 296 296 298 298 298 298 298 298 298 298 299 300 298 299 299 299 299 299 299 301 302 304 306 308 309 309 308 307 307 306 305 304 304 304 303 303 302 303 303 303
291 292 294 294 295 296 296 297 295 295 296 295 296 297 297 297 297 297 297 298 297 297 296 296 298 300 301 303 306 306 307 307 307 305 304 304 303 302 301 301 300 300 300 301
291 292 291 292 293 295 295 294 293 292 293 294 293 294 295 295 294 294 294 294 295 295 295 295 295 296 297 300 301 302 304 306 301 305 305 305 303 302 301 301 300 299 298 299

GFSNGP_sfc_thetae_027.txt.gz
Theta_e
295 296 297 297 298 299 299 302 300 303 304 307 310 313 316 318 320 320 322 325 329 333 339 342 343 344 345 347 350 351 352 352 354 357 358 358 358 358 359 360 359 361 361 361
292 295 297 295 298 299 299 300 300 301 302 311 311 316 316 317 319 321 320 324 330 335 337 339 342 343 345 346 348 351 351 350 354 357 358 358 358 358 359 359 359 361 360 360
288 293 293 292 297 299 300 303 302 299 305 310 310 311 313 317 320 322 323 325 327 334 337 339 340 344 343 345 348 350 351 352 354 356 356 357 358 359 358 358 359 359 359 359
288 290 284 298 304 303 302 304 306 305 307 310 312 316 318 320 320 322 323 324 328 325 332 341 339 339 345 347 349 350 351 353 353 353 355 357 357 357 358 358 357 358 358 359
285 287 292 295 299 306 306 304 312 310 309 310 312 314 317 319 320 322 324 326 327 326 329 342 342 344 346 346 349 350 351 353 354 354 355 356 355 356 357 357 358 358 359 359
288 284 284 297 302 307 314 299 318 319 318 313 311 307 312 323 320 319 320 323 325 327 331 333 341 341 344 344 347 349 351 353 355 357 356 356 357 357 358 358 357 357 358 359
286 285 290 299 305 318 300 303 320 322 322 323 319 314 323 323 322 325 326 324 325 327 330 335 337 339 344 346 347 350 352 354 357 359 358 358 356 358 360 359 358 358 357 358
287 284 282 301 306 299 312 321 322 324 323 321 326 328 320 330 337 343 344 341 325 328 334 340 342 342 346 349 351 353 354 356 359 360 358 356 358 357 360 356 358 358 357 354
291 290 300 305 307 318 323 322 323 323 323 322 325 329 328 335 339 342 345 344 342 340 342 344 346 348 346 348 351 353 355 357 359 361 360 361 360 359 353 351 351 352 350 350
292 295 299 302 307 309 320 322 325 324 321 323 328 330 330 329 330 334 339 340 339 338 338 339 345 348 349 353 354 353 354 356 358 359 359 361 359 358 355 351 349 347 348 346
294 298 300 304 307 308 314 323 323 323 325 325 326 326 328 329 330 330 331 333 335 336 336 336 339 339 339 340 351 355 351 351 353 354 354 358 359 358 355 355 352 352 354 349
290 299 301 305 308 314 317 321 323 322 325 327 327 322 323 328 332 332 332 334 334 334 335 335 337 338 338 340 339 344 346 348 347 348 351 355 354 343 312 311 314 312 316 339
295 302 304 309 311 318 319 322 323 324 324 325 324 326 325 325 326 324 331 332 333 336 338 339 339 339 341 342 340 340 340 343 346 340 348 353 338 343 334 316 304 307 308 309
302 304 302 307 310 316 318 321 319 325 325 326 325 326 326 326 326 327 328 332 335 334 334 336 338 337 336 332 337 337 340 319 336 343 348 340 341 336 328 328 325 319 306 312
299 304 308 312 315 314 317 319 320 319 320 321 323 325 324 323 323 326 329 331 330 330 332 335 336 334 332 335 338 339 338 335 335 333 329 330 336 335 332 327 324 322 312 304
302 304 308 311 311 313 316 317 317 318 320 317 319 321 323 324 323 323 323 324 322 321 326 331 333 334 337 336 335 336 336 322 327 333 329 324 326 326 326 326 324 319 319 316
306 305 309 309 311 314 314 318 319 319 319 320 321 322 321 322 319 321 324 323 323 324 324 326 329 335 339 337 335 333 333 336 325 335 333 331 327 325 327 324 323 325 322 316
312 312 313 314 312 313 313 315 318 320 320 320 318 318 314 312 312 314 319 319 321 321 320 322 323 332 334 338 338 337 335 335 334 331 333 330 328 328 327 326 326 324 317 312
305 307 311 312 314 314 314 315 317 318 317 317 316 314 314 314 313 315 316 315 315 316 317 321 321 326 330 329 333 337 334 333 331 331 332 323 327 326 325 324 322 320 319 321
305 304 306 307 307 309 310 311 312 311 314 315 314 313 312 312 315 316 316 312 313 315 319 320 324 326 328 329 327 334 335 334 331 330 330 329 328 324 324 315 321 322 322 325
302 303 303 303 302 303 304 305 304 304 306 308 310 311 312 312 310 311 310 307 310 314 316 316 317 321 322 324 327 327 327 323 327 332 332 330 329 325 323 321 320 321 319 319
302 301 303 303 300 300 302 303 304 304 303 306 310 310 310 311 312 310 307 305 305 307 312 313 315 315 317 319 320 320 320 321 319 322 323 325 326 327 326 321 320 319 318 317
301 302 303 303 301 301 302 302 302 303 301 302 306 307 304 304 304 303 301 303 306 304 307 309 309 312 313 315 314 314 314 313 312 311 309 310 319 317 319 318 320 319 318 317
300 301 302 302 302 302 301 302 302 302 302 302 303 303 301 301 301 303 303 301 301 304 305 306 307 309 311 310 312 312 312 310 308 308 309 304 312 313 310 308 308 308 311 313
299 299 300 301 300 299 300 300 300 300 301 301 300 300 300 301 300 300 301 301 300 302 303 302 305 306 309 310 309 308 308 308 308 312 307 307 308 309 308 308 307 307 307 308
297 298 299 299 299 299 299 298 297 298 298 296 297 297 298 298 298 298 298 298 299 299 299 299 300 304 306 305 306 307 308 307 308 307 306 306 307 307 307 307 306 306 307 307
296 294 299 299 299 298 297 296 296 295 296 295 294 295 295 295 295 295 295 296 295 296 296 297 298 300 302 303 303 303 304 304 300 306 308 306 304 304 304 304 304 306 307 308

GFSNGP_sfc_thetae_030.txt.gz
Theta_e
306 302 302 306 306 307 306 307 304 307 308 312 315 316 318 320 321 322 323 325 330 337 340 345 347 352 356 352 355 354 358 356 361 365 367 368 368 368 369 370 370 370 370 371
299 302 301 300 304 305 306 308 308 309 309 316 318 318 318 319 320 320 322 323 325 332 337 342 346 349 351 357 355 356 360 359 362 366 368 367 368 368 369 369 369 370 368 369
296 301 300 297 302 304 306 308 307 304 310 315 314 315 317 318 319 320 323 325 327 330 335 341 345 348 348 356 356 357 359 362 364 366 367 367 368 369 368 367 369 369 368 368
295 298 290 303 310 308 306 308 310 310 312 314 315 317 319 321 321 321 322 325 327 328 331 338 342 339 348 350 358 359 360 362 364 365 366 368 369 367 368 368 367 367 368 369
291 293 298 301 303 304 304 306 311 311 313 314 316 317 317 320 322 324 326 327 329 330 331 336 336 341 343 348 352 356 359 361 363 365 362 364 366 366 367 366 366 366 365 368
293 290 289 301 306 309 310 302 313 315 317 318 322 311 314 322 323 324 326 328 328 330 331 332 339 341 343 346 348 354 357 360 363 365 365 363 366 368 368 367 364 361 363 367
290 289 295 304 307 315 300 310 321 321 322 324 323 325 329 331 331 331 331 331 333 334 332 336 343 344 345 347 347 354 356 356 362 366 366 367 369 369 368 366 364 366 362 364
290 288 287 303 303 299 312 318 320 322 322 323 326 329 333 335 336 334 333 339 344 337 333 337 344 343 346 355 356 359 360 359 365 366 361 360 369 369 367 366 364 363 358 360
293 293 302 305 304 309 312 311 314 321 326 327 327 329 333 336 338 331 337 343 346 334 338 347 352 350 349 357 359 359 359 362 364 365 364 368 367 367 361 364 357 357 354 357
295 297 301 304 307 308 309 309 313 315 322 327 327 331 334 337 337 339 344 348 348 344 343 348 354 355 357 358 358 358 357 359 360 361 360 362 360 360 357 356 358 355 357 357
296 301 302 302 304 306 308 310 310 312 320 326 329 332 336 336 337 341 345 345 347 346 346 346 350 351 352 356 362 356 358 358 360 358 360 361 362 359 358 362 354 357 357 356
293 301 302 303 306 308 307 310 312 316 318 326 329 329 333 336 340 339 340 341 341 342 343 343 344 345 347 348 348 351 353 352 351 352 354 357 357 359 310 314 311 310 310 330
300 304 304 306 308 309 311 313 316 319 323 326 326 328 329 331 331 328 339 341 342 343 345 346 345 344 342 345 349 349 347 349 346 341 346 348 351 353 352 336 304 303 303 310
303 303 300 305 301 310 312 316 318 323 327 327 328 328 329 330 331 332 334 338 341 342 343 344 341 338 342 346 348 348 343 318 344 345 346 348 352 352 353 353 350 351 317 306
298 301 301 303 308 311 316 317 320 321 323 325 328 326 327 329 331 331 334 337 339 340 342 342 340 340 344 346 343 340 338 340 340 339 338 334 333 330 331 332 329 325 319 312
299 299 302 304 305 309 315 319 316 318 322 324 326 328 329 330 329 329 330 331 329 328 331 336 340 343 342 342 342 340 338 325 328 338 335 336 338 333 329 327 326 325 324 319
302 303 305 304 308 312 314 316 319 319 321 322 322 326 325 326 325 325 327 327 328 328 329 329 334 341 345 345 343 339 339 341 325 337 337 335 333 332 335 337 334 329 319 313
312 311 311 308 314 313 313 319 318 318 319 320 320 319 319 319 317 320 319 323 326 326 326 329 331 337 337 339 342 340 340 337 338 336 336 333 334 334 335 335 334 329 325 319
305 305 305 306 307 307 308 309 313 313 314 316 317 319 320 319 318 317 317 318 318 319 321 326 325 329 334 332 336 340 338 337 335 336 336 327 332 333 331 330 327 325 324 322
304 304 304 304 305 306 306 308 309 309 313 314 313 311 312 313 317 317 315 313 315 317 322 321 327 328 329 331 329 335 338 338 336 334 334 333 331 328 326 317 324 324 325 327
304 303 304 304 303 304 305 306 306 308 309 310 310 311 309 309 309 310 312 308 313 317 319 318 319 323 326 327 328 329 330 330 332 332 335 332 330 328 329 328 323 322 321 323
305 306 305 305 304 304 307 307 306 306 308 308 309 309 309 311 310 306 305 305 308 309 315 316 317 314 319 321 320 321 321 321 322 324 327 325 328 326 323 322 321 321 320 320
305 305 305 305 305 305 305 304 303 305 305 304 305 308 306 305 305 304 303 308 307 306 310 310 310 312 312 318 317 316 315 315 317 314 318 320 316 316 314 312 313 315 315 316
306 307 307 307 307 306 305 305 304 304 305 304 304 304 306 304 304 306 306 304 303 305 306 307 308 308 311 312 312 310 309 308 314 313 316 309 318 318 317 311 310 310 309 309
305 305 306 305 304 304 305 306 305 303 303 302 302 302 302 303 301 301 303 304 301 305 306 304 306 307 310 310 307 306 308 308 311 309 308 313 314 314 313 313 311 311 311 311
300 302 303 304 302 303 304 303 301 301 301 299 300 300 301 301 301 301 302 299 300 300 301 302 302 306 307 307 308 308 307 307 310 307 309 309 308 311 313 313 313 313 313 312
299 296 300 301 302 301 300 300 300 298 299 299 298 299 299 299 298 299 298 298 298 299 299 300 300 300 303 304 304 305 306 307 300 306 308 309 308 306 308 308 309 310 311 311

GFSNGP_sfc_thetae_033.txt.gz
Theta_e
309 311 310 309 308 309 308 309 306 310 310 314 317 318 320 322 324 325 327 328 331 334 339 346 352 357 359 355 359 358 361 361 363 368 370 371 371 372 373 373 373 374 373 372
306 309 307 306 310 309 309 310 310 311 311 319 320 321 320 320 321 321 323 325 327 329 336 340 347 355 357 360 358 360 363 361 366 369 371 372 373 372 374 373 373 373 372 371
300 307 306 301 307 309 311 312 312 308 314 319 317 318 319 321 322 322 323 325 326 328 331 338 341 349 352 360 362 360 362 365 365 368 370 372 373 374 372 372 373 372 371 372
298 303 295 307 313 312 310 312 314 314 316 318 318 321 322 323 322 323 324 326 327 327 330 336 336 340 349 351 364 363 363 363 366 367 369 372 373 372 373 373 372 371 371 373
295 298 303 306 309 310 308 308 314 314 315 316 318 319 319 323 324 325 326 327 328 329 330 339 335 339 344 350 357 362 363 364 365 368 368 370 370 371 372 371 371 370 372 372
297 294 295 305 310 312 313 304 315 315 315 315 319 313 318 330 332 329 327 328 329 330 331 332 338 335 336 339 349 360 361 365 367 370 369 369 371 372 373 372 370 368 369 371
293 294 300 308 312 314 301 311 318 318 318 320 320 325 331 333 333 337 339 338 338 338 336 338 339 337 348 346 346 355 362 366 369 370 371 371 372 373 373 372 369 370 369 370
294 292 291 308 307 304 312 319 318 320 322 324 327 328 329 331 334 337 339 340 338 338 343 347 343 345 356 356 360 366 365 365 368 371 366 366 372 373 375 372 369 369 368 367
296 296 306 309 308 311 311 311 313 314 316 318 320 326 329 331 336 339 341 340 335 337 347 343 347 349 355 364 370 369 369 370 370 372 371 371 371 371 366 370 363 363 362 363
297 301 303 305 308 309 310 310 312 313 314 314 314 322 328 332 337 340 341 343 347 348 346 344 353 356 356 363 365 367 369 371 371 371 369 369 362 364 361 360 360 359 359 359
298 301 304 305 307 308 308 310 310 311 313 314 315 318 327 333 340 340 344 348 348 350 352 352 357 359 361 362 361 359 360 360 361 359 363 366 367 359 360 364 354 358 359 359
294 303 303 305 308 310 308 307 309 310 311 317 319 322 331 332 340 344 344 345 348 348 347 348 349 350 352 353 360 362 359 358 356 356 357 359 359 362 322 324 318 309 304 322
300 305 305 306 308 310 309 309 311 312 315 316 321 325 333 331 339 335 343 343 344 346 348 349 348 344 347 353 353 353 353 354 351 344 349 349 354 354 352 338 310 309 304 304
302 302 301 304 304 309 310 311 311 312 313 316 321 329 331 330 332 338 338 341 344 346 345 344 344 346 350 353 354 350 347 320 349 348 348 349 350 351 352 350 350 353 314 308
297 299 302 306 305 308 310 310 309 312 314 318 323 330 329 329 331 334 340 341 341 341 342 343 343 344 348 345 344 344 345 343 343 342 342 338 342 342 342 340 336 331 332 318
304 300 300 301 304 307 306 307 310 314 315 321 326 328 329 330 333 335 337 336 335 335 336 339 341 344 345 346 345 342 339 327 331 340 338 338 339 340 339 339 338 335 333 331
300 298 300 300 303 305 307 310 311 316 321 322 325 326 326 327 326 329 330 330 333 334 336 339 340 344 346 346 344 341 341 341 326 338 337 337 337 336 335 335 333 333 331 323
306 308 310 309 309 308 309 313 316 320 319 320 322 320 321 320 321 325 327 328 327 329 331 333 338 341 342 342 342 340 340 340 339 338 336 335 336 335 335 334 333 331 332 328
306 306 306 307 309 308 308 309 310 310 311 311 312 313 314 314 316 318 321 322 323 322 326 331 327 333 337 333 336 337 337 337 338 338 337 329 335 335 332 329 329 327 328 329
306 307 307 307 307 306 307 307 307 307 310 307 306 305 304 309 313 313 314 315 318 319 323 324 329 328 331 331 329 335 335 335 334 335 334 334 333 333 329 318 325 327 329 329
305 306 306 306 305 305 306 308 307 306 307 306 307 306 305 304 305 307 307 307 313 319 319 317 316 322 323 324 325 327 328 330 330 329 332 328 328 328 328 325 323 323 322 322
306 305 307 306 304 303 306 306 305 304 306 305 306 306 305 305 305 304 305 305 310 309 315 316 316 314 318 320 320 321 323 324 325 326 326 325 321 318 316 315 314 315 316 317
307 307 306 307 307 306 306 306 304 304 303 304 306 306 305 305 306 303 302 306 306 305 309 310 309 311 312 317 316 315 315 317 319 320 321 318 319 318 316 311 312 312 310 311
306 307 307 307 307 306 305 306 304 305 306 304 303 304 304 302 302 304 304 303 302 305 305 306 308 308 310 311 309 310 310 311 312 313 317 310 318 318 317 313 311 311 310 308
303 306 306 305 305 303 305 305 304 304 304 304 304 304 304 303 302 301 302 302 301 303 303 303 305 307 310 311 311 309 310 311 311 312 313 315 315 316 316 315 314 313 311 309
301 301 303 305 303 303 304 304 302 302 303 302 302 302 302 301 301 301 302 301 301 302 302 302 302 304 307 307 308 308 308 307 308 308 307 308 311 312 311 312 312 312 312 311
302 298 302 302 303 303 302 302 301 300 300 301 300 301 301 301 300 299 298 300 300 300 300 301 301 300 302 303 304 306 307 307 301 307 308 309 309 308 305 302 301 302 303 303

GFSNGP_sfc_thetae_036.txt.gz
Theta_e
308 311 311 308 307 308 307 310 306 308 309 314 319 319 322 325 329 330 333 336 340 340 344 347 350 353 354 355 356 357 357 359 361 363 365 365 365 366 367 366 365 366 366 366
305 309 309 308 308 308 309 309 310 310 311 318 321 323 323 325 326 328 330 331 335 339 345 353 351 354 353 355 357 358 357 357 361 363 363 365 365 366 366 367 367 367 366 365
298 306 307 304 308 309 310 311 310 308 315 319 319 320 322 323 323 323 323 326 330 336 341 345 348 358 357 357 359 360 358 360 361 362 362 364 366 366 365 366 367 366 366 366
298 302 295 308 315 313 311 312 313 315 318 321 323 324 324 325 323 326 327 330 335 329 334 346 340 340 352 360 361 359 363 361 364 364 363 365 366 365 366 366 367 366 366 367
296 298 304 307 311 311 309 310 315 315 318 318 319 320 320 323 324 325 330 332 333 331 333 350 343 345 348 351 360 361 359 362 362 365 364 365 365 365 367 367 366 367 367 367
297 294 295 307 312 315 315 304 316 316 315 316 317 310 322 332 333 334 337 340 343 342 342 338 353 344 352 350 354 358 359 359 364 364 364 364 366 367 368 368 367 367 367 368
294 294 301 307 310 314 303 308 320 320 321 319 317 326 330 332 332 335 339 342 345 345 344 354 356 352 358 351 350 356 361 363 364 365 363 365 367 369 369 368 368 367 366 367
294 293 292 309 309 305 313 316 315 316 317 318 320 322 327 329 333 336 339 342 343 345 346 348 362 361 358 362 366 371 366 363 364 368 364 364 367 369 369 368 366 365 365 365
296 297 311 311 308 311 311 310 313 312 313 314 314 315 318 324 333 337 343 345 344 343 347 350 364 366 358 371 377 375 375 370 366 370 368 366 368 366 366 367 365 364 362 362
297 300 303 305 308 309 310 309 311 312 311 312 312 314 316 320 328 336 344 346 352 352 353 359 362 361 367 368 371 374 376 375 371 369 367 367 365 366 364 363 363 363 362 361
297 301 305 305 306 308 308 310 309 310 310 310 311 312 318 322 331 333 338 348 351 353 356 359 363 362 362 367 371 368 369 370 371 367 366 367 367 362 365 366 359 362 363 361
294 302 303 306 308 310 308 308 310 310 310 312 313 316 320 323 333 334 340 347 350 352 352 351 351 352 355 358 363 369 365 362 360 360 361 363 364 363 329 330 317 306 306 326
297 303 303 305 308 309 308 309 311 311 312 312 314 316 319 321 333 332 338 345 346 349 347 351 350 347 349 356 358 360 362 366 361 353 360 360 359 361 359 323 305 305 302 302
297 298 298 301 302 307 309 310 311 311 311 312 313 315 317 319 332 333 335 341 344 347 345 347 345 347 352 355 354 353 352 322 353 349 350 352 352 350 351 350 351 348 312 311
303 303 299 303 305 307 309 310 309 308 310 311 312 316 318 321 330 333 337 342 340 340 340 346 344 346 347 347 349 352 354 346 346 343 343 339 345 342 340 340 338 337 339 323
304 303 306 300 303 305 307 308 307 308 309 310 313 317 321 331 331 334 336 339 336 333 337 340 342 348 348 350 348 343 341 329 336 342 341 342 341 341 340 339 339 338 334 329
303 300 298 299 301 304 305 307 308 308 309 311 317 319 327 330 328 327 330 331 332 332 334 338 339 348 349 350 353 344 339 341 332 339 339 339 339 339 338 337 335 334 332 321
305 307 306 306 305 305 306 309 310 312 311 314 319 323 325 320 318 322 325 325 326 330 330 335 338 344 342 342 345 343 341 340 339 336 336 336 337 336 335 333 330 330 330 325
304 303 305 305 306 306 308 308 308 307 307 307 310 312 311 313 314 315 316 316 316 316 317 320 326 332 333 335 338 338 336 337 337 337 335 331 332 330 328 327 327 330 331 331
304 303 304 305 305 304 304 306 306 307 307 305 304 303 302 303 307 309 309 307 310 312 315 316 321 322 327 330 331 331 333 333 333 330 328 326 326 327 324 317 321 323 322 324
305 305 303 302 302 302 303 304 305 304 304 305 304 302 302 303 303 303 303 302 307 309 311 314 315 318 319 324 327 327 328 328 327 326 324 323 320 318 316 314 314 315 316 317
305 304 305 304 303 301 302 302 302 303 305 304 304 304 303 301 302 301 303 302 305 306 307 309 312 314 315 317 316 318 321 322 322 322 324 322 318 315 313 314 313 312 312 314
305 304 306 305 303 302 303 302 301 301 300 302 303 301 302 302 301 299 298 305 305 304 305 306 309 311 312 312 313 313 313 313 314 320 320 320 317 314 311 312 312 312 311 309
303 305 305 306 308 304 300 301 301 303 304 303 301 301 302 300 299 302 301 302 303 303 302 303 306 308 309 311 309 309 310 311 311 312 312 308 315 315 312 311 309 309 308 307
304 305 304 304 304 303 304 305 304 304 303 303 303 302 301 302 301 302 302 302 302 302 301 303 304 307 307 308 309 309 308 308 308 308 308 308 310 311 311 311 311 310 308 306
302 302 302 305 302 301 301 302 299 299 300 299 299 300 300 300 300 300 302 301 301 301 301 300 300 303 305 305 306 307 307 307 309 308 306 305 303 301 301 302 303 302 303 304
302 299 302 301 302 301 300 299 298 297 298 299 298 299 299 299 299 299 299 300 299 300 300 301 300 301 301 301 302 303 304 305 301 306 307 308 308 306 305 303 301 299 298 296

GFSNGP_sfc_thetae_039.txt.gz
Theta_e
301 304 305 306 304 304 301 301 298 299 301 306 308 312 315 317 319 322 323 328 332 337 339 342 343 343 344 345 347 350 353 355 356 357 357 357 357 358 358 355 359 358 359 357
298 304 306 305 307 306 305 304 303 304 301 311 314 316 317 318 318 317 319 325 327 332 338 341 344 344 345 346 347 349 351 353 357 357 357 356 357 357 359 359 356 357 357 357
291 301 302 298 304 306 305 307 305 301 304 312 311 315 314 316 317 316 317 319 320 321 327 337 344 346 346 348 349 349 348 352 355 356 355 356 356 358 357 358 360 357 356 358
291 296 289 301 309 311 307 308 308 307 313 313 316 320 320 319 316 317 320 321 321 320 323 325 337 348 348 349 349 349 349 350 352 355 356 356 357 356 358 358 359 359 359 358
290 294 298 304 307 306 304 307 313 314 315 315 320 323 322 327 329 328 329 331 332 332 332 331 330 331 349 348 350 351 349 350 352 355 354 356 356 357 358 358 358 359 361 360
292 291 292 300 305 308 309 301 311 314 317 315 321 314 317 326 329 330 332 333 334 335 334 334 335 335 342 349 349 349 352 354 355 356 356 355 356 357 359 360 359 360 359 362
290 290 296 301 305 312 299 301 308 309 310 310 308 311 317 327 328 331 334 335 336 334 334 336 337 335 336 337 348 351 351 352 356 358 357 358 357 359 359 360 360 360 360 361
289 290 289 302 304 298 307 309 308 307 308 308 309 311 313 316 325 332 331 338 339 334 333 335 335 337 334 334 344 348 351 352 353 355 356 358 358 359 361 360 359 359 359 360
292 292 300 302 301 305 306 304 305 305 306 306 307 308 312 314 320 327 329 330 341 343 345 345 335 338 336 347 350 355 350 351 353 356 357 352 358 357 360 361 360 359 359 358
292 296 297 302 304 306 306 305 305 305 305 306 305 307 310 314 316 324 328 330 339 343 345 351 352 352 351 354 351 347 352 357 355 356 357 355 359 360 359 360 359 358 357 357
292 295 298 302 301 304 304 306 307 307 307 307 306 308 310 312 314 326 327 331 336 338 343 345 348 347 349 349 352 355 349 359 357 357 356 357 355 357 358 358 355 358 359 358
287 294 294 296 300 302 301 303 306 307 309 311 309 309 312 310 313 326 327 330 333 337 341 342 344 343 342 344 348 350 354 356 356 355 356 357 357 350 309 312 312 309 306 333
292 296 296 298 300 301 300 302 306 307 307 307 308 310 308 308 309 316 328 329 331 335 339 341 341 340 341 343 347 344 343 350 350 346 351 355 355 355 335 316 302 301 305 304
303 298 295 297 296 302 304 305 308 307 308 308 309 309 309 310 309 316 326 329 332 336 340 340 341 341 343 346 344 342 340 324 339 341 340 343 342 342 343 334 333 327 306 307
304 304 299 301 302 302 304 303 302 305 306 307 308 307 308 311 311 318 329 333 336 335 335 338 338 337 340 338 339 338 343 337 336 335 336 334 335 334 334 332 330 329 323 311
304 304 301 300 303 303 302 304 302 304 305 306 306 307 308 313 314 325 328 331 333 332 334 336 335 338 340 340 336 334 331 329 332 334 333 334 333 332 330 329 328 325 320 318
297 298 302 299 300 301 302 303 304 305 306 306 306 310 312 313 316 324 326 330 326 317 318 320 326 338 336 335 340 335 332 332 330 332 331 331 331 330 329 328 326 324 319 314
300 301 302 301 302 304 306 306 306 307 308 311 312 311 312 313 316 314 314 317 317 314 314 316 321 327 332 337 337 337 333 332 331 329 328 327 326 326 326 325 324 323 322 319
301 300 301 301 301 302 305 305 305 305 307 306 306 305 306 307 307 307 307 308 309 310 311 314 319 317 325 331 333 333 330 329 328 328 326 321 323 322 322 323 322 322 322 323
301 301 301 302 302 301 300 304 304 304 305 305 304 302 301 303 304 305 304 302 304 307 312 313 314 314 315 322 329 328 328 325 323 321 319 319 317 316 315 310 315 316 317 317
303 302 301 300 300 301 301 301 301 300 301 302 301 300 300 301 302 303 301 300 303 306 310 312 312 313 315 316 314 317 324 323 321 318 316 314 314 314 313 312 312 311 311 311
303 303 301 300 299 299 301 301 300 301 300 300 300 300 298 298 299 301 302 300 302 304 306 309 310 312 311 314 312 312 313 319 320 317 314 313 313 312 311 311 309 309 307 306
301 304 302 301 301 299 300 301 300 300 299 301 299 298 298 299 299 297 296 302 302 302 302 306 310 310 310 308 308 308 309 310 309 313 312 309 308 308 306 305 305 305 305 304
301 302 303 302 301 299 298 300 301 301 300 300 300 301 299 297 299 301 301 302 302 301 300 303 307 309 309 308 307 307 307 307 307 306 307 306 310 308 306 305 302 301 299 298
302 303 301 300 300 299 299 298 296 297 298 298 297 297 298 299 298 300 301 301 302 300 299 302 305 305 305 307 307 307 306 306 306 304 303 302 301 302 300 299 297 301 300 298
300 300 301 300 298 298 297 296 294 295 296 295 296 297 296 297 297 298 298 299 298 299 297 298 299 299 299 301 302 302 301 301 305 303 301 301 299 298 297 297 296 294 294 293
298 297 297 297 298 298 297 295 294 294 295 294 294 296 296 297 297 296 297 297 297 297 297 297 298 298 298 299 299 299 299 299 297 300 302 302 301 299 298 297 296 296 296 295

GFSNGP_sfc_thetae_042.txt.gz
Theta_e
287 291 295 297 300 301 297 300 295 297 297 301 303 310 308 310 313 317 326 331 335 336 336 337 337 338 341 344 347 351 351 351 351 351 353 355 353 352 351 353 355 350 353 355
286 296 299 300 304 304 301 301 299 298 298 303 307 312 312 313 317 318 322 331 336 337 337 337 337 338 340 342 345 349 350 351 352 353 353 353 355 354 352 351 351 355 353 355
283 295 300 295 299 303 302 302 301 296 300 305 312 318 318 310 313 313 318 329 335 337 338 339 339 340 339 341 344 348 349 350 352 353 354 354 354 354 354 353 352 349 352 355
283 291 288 299 304 303 304 304 305 309 306 317 319 321 323 324 324 325 325 323 319 324 333 339 341 342 342 342 343 344 346 350 351 354 353 354 354 353 354 355 355 354 351 353
283 290 295 298 299 298 297 299 304 305 317 319 321 321 321 326 329 326 327 328 328 329 329 327 340 344 344 343 344 343 344 345 351 352 354 353 353 353 354 354 354 355 356 355
284 287 288 293 300 307 307 292 303 305 305 311 316 310 313 322 329 329 336 332 329 329 329 329 332 330 343 344 345 344 345 346 348 352 353 353 354 354 355 355 355 356 356 358
287 288 293 298 301 309 293 295 304 303 303 303 304 305 308 320 326 327 330 338 339 337 332 329 331 332 338 341 344 347 348 348 349 349 353 354 355 355 355 355 355 355 355 357
287 288 285 301 300 294 297 303 304 303 302 301 304 309 312 314 316 325 326 335 340 345 346 343 334 332 328 333 340 346 346 349 350 352 352 354 353 354 354 354 354 354 354 355
288 290 297 301 303 303 302 301 302 303 302 302 303 306 310 311 312 324 325 328 335 339 344 347 347 346 344 345 345 346 346 347 348 350 352 353 353 352 353 354 354 354 354 354
287 293 294 299 304 302 301 300 301 303 305 303 303 307 308 309 309 319 325 326 331 336 337 340 343 344 343 344 347 349 339 348 346 348 349 349 355 356 355 355 355 354 355 355
288 291 294 298 300 299 300 301 301 302 304 306 304 307 306 306 307 309 320 325 329 331 333 336 341 339 339 339 342 343 346 345 351 349 347 349 339 338 354 358 354 357 357 358
287 293 293 294 298 300 299 299 301 301 302 305 306 307 305 304 306 307 310 324 326 328 330 333 338 336 337 338 340 341 341 347 351 350 350 352 337 325 308 305 305 310 315 335
296 301 300 298 299 301 299 300 302 302 302 303 307 308 308 304 306 309 311 321 325 327 330 334 336 336 338 341 342 339 337 336 344 346 352 353 351 335 326 317 304 301 302 305
300 302 298 298 296 301 303 304 306 305 305 305 305 305 307 307 309 310 314 323 328 329 332 334 336 334 335 339 337 335 338 324 336 342 345 347 347 337 330 328 323 320 309 306
299 301 301 301 301 300 302 303 302 302 303 305 305 305 304 306 309 310 313 325 327 329 331 332 333 333 336 336 334 333 336 337 336 335 333 332 337 338 337 334 327 323 318 310
298 299 300 299 300 302 302 301 301 300 302 305 305 306 309 310 310 312 319 323 321 314 315 316 323 328 334 333 334 333 332 329 333 335 334 333 333 332 331 328 324 322 321 320
296 295 297 297 299 304 303 301 301 300 302 304 307 309 311 312 312 309 311 317 313 313 313 314 314 319 327 330 330 333 331 331 328 331 329 329 328 325 327 326 322 319 317 310
300 300 299 299 298 301 303 304 304 305 305 306 306 306 306 306 306 304 306 311 311 311 310 311 314 317 326 330 333 333 330 327 326 324 324 323 323 323 324 323 322 321 319 316
301 299 300 299 299 299 299 300 302 303 304 304 303 303 304 304 304 304 304 305 305 306 307 311 315 315 315 328 329 330 328 325 323 321 320 316 316 316 317 317 316 316 315 318
301 300 300 300 300 299 298 300 299 299 300 301 302 302 301 302 303 304 304 301 301 303 310 309 310 312 313 315 326 325 323 322 320 317 316 314 313 313 313 308 312 312 312 313
300 299 298 298 298 298 299 299 299 297 298 299 298 298 299 301 301 301 300 299 301 303 309 310 309 309 313 315 318 321 320 318 316 315 314 313 312 311 310 309 307 307 305 305
299 299 299 298 298 297 298 298 298 297 297 297 297 297 298 298 299 299 300 299 301 303 306 308 309 310 310 312 313 318 318 316 315 314 313 311 310 309 307 307 305 304 303 302
299 299 299 299 298 298 300 299 298 297 297 297 297 297 296 297 298 297 296 300 301 301 304 307 309 309 309 308 308 308 309 311 309 308 307 305 304 302 301 300 300 301 301 300
296 298 297 298 299 299 297 299 299 299 298 298 298 299 299 297 297 300 301 300 301 302 302 304 307 308 308 307 307 306 305 305 304 306 307 304 305 302 300 298 296 295 295 294
296 294 293 294 295 294 293 292 294 298 296 294 295 296 296 298 298 299 300 301 301 301 302 303 304 304 303 303 304 305 304 303 303 302 302 301 300 298 297 296 296 295 294 293
292 290 291 291 291 291 290 292 291 292 292 292 293 294 295 295 296 296 297 299 298 299 297 300 300 301 300 300 300 300 301 304 302 301 300 299 298 297 295 295 294 294 293 292
290 292 289 290 290 290 290 290 291 290 291 291 291 292 293 295 295 294 296 295 295 296 296 297 297 298 298 298 298 299 298 298 296 297 297 297 298 297 297 296 295 294 292 291

GFSNGP_sfc_thetae_045.txt.gz
Theta_e
286 288 289 288 288 290 292 295 294 295 294 298 299 301 308 311 307 308 321 327 331 332 333 335 336 336 340 342 345 345 344 345 345 349 349 349 347 346 349 351 349 348 348 350
284 288 289 287 292 294 296 299 296 295 296 299 312 316 319 318 310 310 324 329 331 333 333 334 335 336 338 341 345 346 345 345 347 348 349 350 349 348 346 348 352 349 347 348
279 287 289 290 295 297 300 298 298 294 297 309 315 318 319 322 320 314 321 328 331 333 334 335 336 337 337 341 345 347 347 347 348 348 348 350 351 350 348 347 348 350 350 349
279 284 287 295 300 300 298 298 299 301 308 317 319 321 322 324 325 326 322 325 331 334 335 336 337 337 338 341 342 345 347 348 349 349 349 349 350 351 351 350 348 348 348 351
281 282 294 295 296 296 294 294 299 299 304 313 322 322 320 319 325 328 332 324 325 331 334 335 337 338 338 339 341 343 345 347 349 350 350 351 349 350 351 352 351 350 350 348
285 283 287 293 297 302 303 289 300 300 301 306 315 310 308 314 323 327 335 338 329 327 331 336 337 339 338 338 339 339 343 346 349 350 351 350 352 351 352 352 352 354 353 354
284 284 291 297 298 303 290 290 299 300 299 301 302 304 311 315 322 325 329 336 344 341 331 328 330 340 338 339 338 341 342 343 347 350 351 352 352 353 352 352 352 351 352 354
287 287 287 298 300 293 294 300 299 299 300 300 304 309 311 309 317 323 324 331 337 342 342 340 331 335 335 337 340 342 343 343 344 346 351 352 352 352 352 352 350 350 351 352
287 289 297 298 300 301 300 298 298 298 299 303 305 307 308 308 307 312 323 327 332 334 339 342 342 342 341 341 347 343 343 343 344 345 346 350 350 351 351 351 350 350 350 350
288 291 293 297 300 300 301 300 301 301 301 302 302 306 306 307 307 307 313 323 328 330 332 335 338 338 337 338 342 344 343 342 344 346 346 348 350 351 351 350 350 349 350 350
289 292 295 298 299 301 302 302 302 303 302 302 302 305 303 305 307 309 311 318 325 326 328 331 335 334 335 339 340 340 341 342 342 344 341 344 334 333 348 351 346 351 351 353
287 295 295 295 299 302 300 301 302 301 301 303 303 305 306 304 307 309 314 318 324 326 327 330 333 333 335 339 341 337 337 337 336 344 344 342 331 322 305 303 301 305 312 337
295 299 301 302 304 304 301 302 303 303 303 302 303 306 307 304 307 309 311 316 322 323 327 330 332 333 335 338 338 335 332 335 334 333 346 344 335 332 320 314 303 299 299 303
299 299 297 301 299 302 303 304 305 305 306 306 305 306 307 305 307 307 308 313 322 325 328 330 332 331 333 332 332 331 331 323 333 336 343 347 342 331 325 326 321 317 305 303
298 299 298 300 301 302 304 303 301 301 304 304 305 305 306 307 306 308 313 319 322 321 317 317 322 330 330 334 333 330 330 332 331 330 331 335 340 333 330 325 322 319 320 312
297 298 298 297 298 302 303 302 301 301 302 304 303 304 309 312 311 313 312 313 313 309 310 311 312 315 317 325 329 331 328 324 326 330 330 333 334 332 328 324 323 323 322 321
294 294 295 295 296 297 299 303 304 304 303 302 303 308 312 314 309 311 311 311 309 308 307 307 309 313 315 318 326 330 328 326 324 326 325 327 328 326 325 324 322 320 316 311
297 298 296 297 296 297 297 299 300 302 303 306 306 307 306 306 306 304 302 307 307 306 307 308 310 314 314 319 327 327 325 323 323 323 323 323 323 324 324 323 322 320 319 314
298 296 297 297 298 297 297 297 298 299 300 302 303 302 303 304 305 305 304 303 303 304 306 309 313 312 313 316 328 326 324 323 321 319 318 316 318 319 318 316 316 316 316 315
297 297 297 297 297 297 296 297 297 297 297 298 299 298 298 299 301 303 304 301 301 302 308 310 308 308 311 316 323 322 322 321 319 317 315 315 314 312 310 306 309 309 308 307
295 296 296 296 296 297 298 297 297 296 297 297 295 295 296 298 300 300 299 300 301 304 308 310 309 309 310 315 319 317 316 315 315 314 313 311 310 309 307 306 306 305 304 303
297 296 295 296 296 297 298 298 297 296 296 296 296 296 296 295 297 299 300 298 301 305 307 308 309 311 311 314 317 316 316 315 313 312 311 310 308 306 305 304 303 302 301 300
297 297 296 296 295 296 299 298 298 296 296 296 295 295 296 296 297 295 296 301 303 304 304 305 306 308 309 307 307 308 308 306 305 304 303 302 302 300 300 299 299 299 297 295
294 296 296 296 296 296 294 296 297 297 295 295 296 297 297 295 297 299 301 301 301 303 303 303 303 304 304 306 305 304 304 303 303 303 302 299 300 298 296 295 294 294 292 291
292 292 294 294 293 291 288 290 292 295 294 292 294 295 297 297 297 297 299 300 301 302 302 303 303 302 301 301 303 301 300 300 300 299 298 298 297 295 294 294 293 292 292 291
287 287 287 288 288 287 287 288 288 290 290 290 291 292 294 294 294 296 297 298 298 300 300 300 300 300 300 299 299 299 299 299 299 298 298 297 297 296 296 295 294 293 292 291
287 290 288 288 287 287 288 288 287 287 289 289 289 291 292 293 293 293 295 294 294 295 297 299 299 299 299 298 298 297 297 296 295 298 299 298 298 297 296 295 294 292 291 291

GFSNGP_sfc_thetae_048.txt.gz
Theta_e
285 287 288 287 287 289 287 288 287 295 294 297 301 302 304 311 312 311 311 312 325 329 331 333 336 337 340 341 342 342 342 343 344 345 346 347 348 350 351 347 346 348 347 348
283 288 288 287 290 291 291 291 292 294 294 302 311 317 320 321 323 323 317 311 318 329 332 333 336 337 339 341 342 343 342 342 345 346 346 346 346 346 349 351 350 349 348 349
278 285 286 286 291 294 295 296 296 293 297 305 315 318 316 317 321 324 326 317 315 328 332 334 336 338 337 340 343 343 342 343 344 346 347 347 348 347 346 347 351 350 349 349
278 283 281 292 300 300 295 296 297 298 301 316 319 319 318 317 316 323 329 327 326 330 333 335 337 338 339 341 343 343 343 344 346 346 347 348 349 348 348 347 347 350 351 350
280 281 287 295 295 294 294 292 298 296 298 306 313 318 318 317 318 323 329 335 325 332 333 335 337 338 338 341 342 344 344 345 346 347 347 348 348 349 350 350 348 348 349 351
285 281 285 292 296 300 301 289 298 297 297 300 315 311 310 311 317 324 330 337 333 334 334 334 335 337 338 339 341 344 345 347 349 350 349 348 349 350 352 353 351 351 350 351
281 283 288 294 295 301 292 290 298 297 297 301 303 306 309 309 311 318 327 333 340 333 333 335 337 337 337 339 339 344 347 349 350 351 351 351 351 352 352 352 353 353 353 354
284 284 286 295 298 292 294 297 298 297 298 299 302 306 308 309 310 313 321 328 334 340 340 337 337 338 337 338 342 343 345 347 349 350 351 352 352 353 353 352 351 351 352 353
287 287 294 296 297 298 299 297 298 299 301 301 301 304 306 309 312 316 319 325 330 334 337 339 343 345 344 345 346 344 342 343 345 349 351 353 352 352 351 352 351 350 350 351
287 291 294 297 300 300 301 300 302 303 302 302 301 303 305 309 311 315 320 323 326 329 331 334 336 338 339 343 348 347 345 344 344 344 346 351 353 353 351 351 350 351 350 350
288 293 296 299 300 301 302 303 303 304 304 303 303 302 305 307 310 310 316 322 325 326 329 332 335 337 341 344 344 343 344 347 348 348 345 347 344 342 352 354 345 351 352 353
288 295 295 297 301 304 302 301 303 303 303 305 305 303 305 307 310 309 310 317 322 326 329 332 334 336 338 342 342 341 341 341 340 348 345 348 333 325 305 303 303 305 311 337
294 298 299 300 301 302 301 303 303 303 304 304 306 305 305 306 308 310 310 314 320 324 327 329 333 334 334 335 337 337 336 338 339 334 349 342 337 336 329 314 301 298 299 306
298 298 296 298 297 302 303 304 305 305 305 305 305 306 306 306 309 308 312 315 321 323 320 321 324 330 325 330 335 333 335 320 336 338 342 348 340 338 332 331 332 322 303 302
296 298 297 299 299 299 301 304 303 302 304 304 305 305 305 305 309 310 316 318 319 318 316 315 317 319 318 320 327 333 333 337 336 336 337 342 339 333 332 328 325 321 320 312
297 297 298 296 297 297 298 299 300 301 303 304 304 304 305 309 313 316 315 313 312 313 312 311 313 314 316 318 320 329 333 324 328 334 336 337 336 332 327 325 325 325 325 323
293 292 294 295 295 296 296 297 297 299 301 305 306 307 310 309 311 308 307 308 308 310 309 308 309 312 316 318 321 328 332 331 324 330 331 331 329 326 326 326 324 320 317 312
296 296 297 296 296 295 295 296 296 296 297 300 303 303 302 302 303 304 304 306 307 307 308 309 310 313 313 316 319 327 330 329 328 327 328 327 327 326 325 323 321 318 316 311
297 295 295 296 296 296 296 296 296 297 297 297 298 298 299 300 301 303 305 302 302 302 305 307 313 311 311 314 320 328 328 326 324 324 324 319 323 323 321 320 318 316 313 311
297 297 296 296 296 296 295 296 297 296 297 297 297 296 296 298 300 300 301 301 301 302 307 309 311 311 311 313 321 327 326 324 322 320 320 320 318 316 313 308 312 310 308 307
297 297 296 296 295 296 296 296 295 295 296 296 295 295 295 297 299 300 298 298 302 304 305 307 309 310 312 317 319 320 320 320 318 317 316 313 312 310 308 307 307 306 304 304
297 296 296 296 295 295 296 296 296 295 296 296 296 296 296 296 297 297 298 298 302 304 303 303 305 310 310 314 317 318 316 315 313 311 310 308 307 305 304 303 302 301 301 300
297 297 296 295 295 295 296 297 297 296 295 296 296 296 296 296 297 294 294 299 301 303 302 303 305 306 307 306 307 306 305 303 302 301 300 300 298 297 297 296 296 295 295 295
295 296 296 297 296 295 293 295 295 298 297 295 297 298 298 297 299 300 300 301 301 301 301 303 303 303 303 302 302 302 301 301 300 299 298 296 296 295 294 293 292 292 292 291
293 294 294 295 294 292 288 289 292 292 292 294 294 294 296 298 297 298 301 301 301 300 299 302 302 301 300 299 300 300 299 298 298 297 297 296 296 295 294 294 294 293 292 292
289 288 289 291 289 288 289 289 289 289 290 290 292 292 294 294 295 297 298 300 300 300 300 300 300 300 299 298 298 298 299 299 298 297 297 297 296 296 295 294 295 293 292 291
289 290 289 289 289 289 289 289 289 289 290 290 291 293 294 294 295 295 296 296 297 299 299 300 300 299 299 298 296 296 296 297 295 298 298 297 297 296 295 294 293 293 293 292

GFSNGP_sfc_thetae_051.txt.gz
Theta_e
288 289 290 289 290 292 292 297 297 303 304 310 313 315 317 315 321 325 325 322 333 338 342 344 347 349 350 350 351 350 350 350 351 354 355 356 357 358 358 358 359 359 358 357
285 289 290 289 292 293 294 296 296 298 300 309 320 322 321 326 328 329 331 333 331 329 340 342 344 347 348 350 351 352 351 351 353 355 356 356 357 358 359 357 359 360 358 357
281 289 289 287 293 294 297 300 300 298 305 311 316 322 322 323 325 326 329 332 336 336 329 342 342 347 347 349 352 352 352 353 355 356 355 356 357 359 359 358 358 359 357 357
282 284 280 295 303 301 299 299 301 302 305 309 320 325 325 319 317 323 329 332 335 339 334 338 342 343 348 350 352 351 352 353 355 356 355 357 357 357 358 358 359 357 357 360
281 284 290 296 298 297 298 297 301 301 304 309 317 326 326 316 314 316 325 331 338 343 337 341 345 348 349 350 351 351 351 352 354 355 356 356 356 357 356 355 356 357 358 359
283 281 284 292 297 301 302 295 299 300 301 306 321 318 313 313 316 318 328 333 342 341 339 344 348 348 347 347 350 350 351 353 355 356 356 357 358 358 360 358 357 354 355 359
283 281 287 292 296 303 293 294 299 299 300 304 307 309 311 315 320 325 332 334 346 343 345 347 349 347 348 349 349 351 353 353 355 358 358 359 360 361 360 358 359 358 357 360
285 282 282 294 296 296 298 302 301 300 301 303 305 308 310 315 319 323 326 335 341 344 342 346 349 349 349 349 354 357 358 357 358 360 356 355 360 360 359 360 359 359 358 357
289 288 295 298 297 301 305 304 303 301 303 303 303 304 309 311 314 319 324 332 339 343 344 348 348 349 348 352 355 357 358 359 358 359 359 362 359 359 355 359 355 356 355 355
289 293 295 297 300 303 304 305 305 305 304 304 303 304 306 310 312 313 320 329 338 342 342 343 350 352 355 356 355 354 355 357 358 356 357 360 357 357 356 355 355 355 355 355
290 293 297 299 300 302 303 306 305 305 305 305 304 304 306 309 313 314 316 325 333 337 339 341 346 347 349 352 357 354 353 352 353 354 354 356 358 355 356 361 350 356 357 358
288 293 295 296 300 302 303 304 306 304 303 305 306 305 307 307 313 316 318 324 325 325 334 339 342 341 342 344 346 349 351 353 353 352 346 351 355 343 304 306 305 306 311 335
293 297 298 299 301 301 302 305 307 306 305 304 306 306 307 308 313 314 318 321 323 322 324 329 336 334 333 336 344 344 342 345 345 351 358 354 352 348 346 320 300 298 298 307
298 298 295 297 296 300 301 303 306 306 307 306 307 308 308 307 312 316 318 321 323 323 324 325 326 326 328 331 335 342 344 321 347 349 351 352 349 348 351 349 346 338 307 305
296 298 297 299 299 298 300 300 300 300 302 306 307 307 308 308 311 317 318 318 321 322 321 320 321 320 323 326 331 336 342 343 346 350 349 347 348 344 347 348 348 331 324 312
297 297 297 297 296 297 297 297 296 297 299 302 306 308 310 313 312 313 312 314 314 315 317 316 317 317 321 323 326 332 339 328 330 346 344 344 340 338 342 344 341 339 337 332
294 293 294 294 294 295 296 297 297 297 297 299 301 304 305 306 308 310 309 310 312 314 316 315 313 316 318 320 322 327 333 341 327 343 344 341 336 333 336 338 337 335 334 326
299 298 297 297 296 295 295 296 297 298 297 298 300 301 302 302 303 304 305 307 309 310 312 312 313 314 317 319 321 324 329 336 339 340 343 338 335 332 329 327 323 320 317 313
300 298 298 298 298 298 297 296 296 297 299 298 298 298 299 301 302 303 304 303 303 303 305 309 311 314 317 318 319 323 329 335 337 337 338 326 332 331 327 323 320 318 317 317
300 300 299 299 300 299 298 299 299 298 297 298 298 297 297 298 299 300 302 300 302 303 306 306 307 310 314 317 318 324 328 332 334 334 329 330 329 327 324 313 315 314 312 311
301 301 300 300 300 301 301 300 299 298 299 298 297 296 296 297 298 299 298 297 301 304 305 306 307 308 310 313 316 323 324 325 327 324 323 321 318 317 314 313 311 309 308 307
303 302 301 301 301 302 303 303 301 300 300 299 298 298 297 296 297 298 300 299 301 303 304 304 304 307 309 310 310 316 317 317 315 315 314 312 311 309 307 306 305 305 306 306
303 304 303 302 301 302 303 303 302 302 301 300 300 300 300 300 301 298 296 300 301 301 302 302 303 304 304 303 303 303 303 302 301 300 299 299 298 298 298 298 297 298 296 300
303 304 304 304 304 301 298 299 300 301 301 301 300 301 300 299 301 303 304 302 301 301 302 302 302 302 302 300 299 298 298 297 296 296 295 294 294 294 293 293 293 293 293 293
302 302 303 303 299 297 298 298 298 298 298 300 300 300 301 301 300 301 303 303 301 301 300 301 302 301 299 299 299 298 297 297 297 297 296 295 294 294 294 294 293 293 292 292
299 299 300 298 297 298 297 297 296 297 298 297 298 299 300 301 301 301 302 302 302 300 300 300 299 299 298 298 298 297 297 297 297 296 295 295 295 294 294 294 293 293 292 291
298 295 298 297 298 297 297 297 297 297 298 298 298 300 301 301 301 300 299 301 302 301 300 299 300 299 298 297 297 297 297 296 295 296 296 296 296 295 295 294 295 294 294 294

GFSNGP_sfc_thetae_054.txt.gz
Theta_e
292 292 292 293 293 296 296 301 300 304 306 312 314 315 318 321 323 323 324 325 332 337 342 350 351 356 356 352 354 353 357 352 356 362 362 363 364 365 364 364 363 363 363 363
289 292 291 290 293 295 296 298 300 303 304 315 317 322 324 323 327 328 329 332 333 334 342 345 348 353 356 357 356 356 359 357 361 365 364 364 366 367 367 365 366 365 362 362
286 290 290 287 293 296 298 300 301 299 307 315 316 320 325 327 329 329 331 335 338 340 340 340 346 351 353 359 358 358 361 361 362 365 364 365 366 367 366 366 365 366 362 362
286 289 280 291 298 301 300 302 304 306 309 314 318 324 330 329 327 329 331 333 338 341 343 346 341 345 352 354 361 361 362 361 363 364 365 366 366 367 368 365 365 364 363 366
285 285 288 293 301 301 300 301 307 308 311 314 318 326 330 327 328 331 332 335 338 342 344 348 349 344 349 352 356 358 360 362 364 364 364 363 363 364 364 364 363 363 363 365
287 282 281 291 296 301 304 296 305 307 309 312 319 314 320 325 329 331 334 338 340 345 348 349 350 342 345 349 352 358 360 362 364 365 366 364 365 367 367 364 364 361 362 365
286 284 289 295 295 297 291 297 303 305 308 313 318 317 320 318 320 325 330 337 346 350 348 348 348 342 351 352 353 357 358 358 362 365 366 367 369 368 367 364 364 364 362 366
287 284 283 297 292 291 298 304 303 304 306 306 311 312 311 312 313 317 326 339 348 348 348 347 349 349 355 357 358 360 360 360 364 365 360 360 368 365 365 365 364 365 363 361
291 292 297 298 295 299 304 303 305 304 305 305 305 306 308 310 313 314 323 331 344 347 349 350 352 353 352 362 362 361 362 363 360 361 361 367 365 363 360 363 360 359 358 358
290 296 295 297 300 300 303 304 307 306 305 307 305 307 307 308 313 315 320 319 328 343 345 348 354 354 356 359 360 360 359 360 361 361 360 361 361 361 359 358 358 357 357 357
290 293 294 297 298 301 304 306 306 307 305 306 306 307 307 308 313 317 320 322 322 324 338 340 345 347 351 356 359 357 359 359 360 360 360 361 362 357 360 365 345 358 358 359
287 292 294 295 300 302 303 304 307 306 305 307 307 307 308 308 313 318 320 321 322 324 326 332 335 341 346 352 354 358 355 355 355 356 358 359 359 354 305 306 305 306 308 330
292 296 297 298 300 302 301 304 306 306 308 306 308 309 309 309 314 319 321 322 324 324 324 329 331 332 338 345 351 353 353 358 357 350 356 357 356 355 347 325 303 302 301 306
298 297 296 297 296 300 301 303 305 304 305 309 308 310 310 310 316 318 317 320 323 323 323 325 325 327 331 338 345 350 348 322 354 351 349 348 347 344 343 344 352 355 310 310
297 297 297 299 299 299 301 302 300 299 300 303 306 310 312 314 313 312 315 319 320 321 322 322 322 324 328 331 336 344 345 347 351 350 348 342 352 350 347 352 355 355 345 315
297 297 297 296 297 297 298 299 299 299 299 300 302 304 307 311 314 313 313 315 317 317 320 320 320 323 326 328 331 337 342 330 336 350 350 350 350 348 351 355 355 352 348 343
297 295 295 295 296 296 296 298 298 299 300 300 301 304 306 306 307 309 311 312 313 316 316 318 319 321 324 326 327 328 334 340 332 349 348 346 344 341 344 349 353 352 348 330
302 301 299 298 296 296 297 297 297 298 298 299 301 302 301 301 302 304 306 309 311 311 311 312 314 315 321 323 324 325 328 333 340 342 344 345 343 339 337 344 339 330 326 325
303 301 302 301 300 300 299 299 298 298 298 299 299 298 299 300 301 302 304 303 302 303 306 311 311 315 320 321 319 322 326 329 333 341 344 330 341 339 336 335 336 334 334 334
304 303 303 302 303 302 302 302 301 298 298 299 298 298 298 299 300 301 303 302 302 303 306 307 310 313 316 318 317 321 325 330 334 337 335 338 340 336 333 321 327 326 325 324
303 304 303 302 302 303 303 304 302 301 302 301 299 298 298 299 300 300 300 300 303 305 305 305 306 307 312 314 317 323 326 329 327 326 327 326 327 327 326 324 322 319 318 319
303 303 303 302 302 301 303 303 303 304 303 301 302 302 302 301 303 302 301 300 303 304 304 303 304 305 305 306 306 307 307 310 311 308 307 307 309 309 309 311 312 312 312 312
305 303 303 302 302 302 302 302 302 302 302 303 303 303 303 302 302 300 297 301 302 302 304 303 303 302 302 301 300 299 299 299 299 298 297 297 296 295 294 294 295 297 302 303
305 305 304 304 303 301 300 302 302 302 303 303 303 304 303 299 301 302 304 300 300 301 301 302 301 301 300 299 298 297 297 297 297 297 296 294 294 294 293 293 292 293 294 294
305 303 305 303 302 300 300 301 301 301 302 302 303 304 304 304 301 301 302 302 300 300 300 300 300 300 298 298 297 296 296 295 296 295 295 295 294 293 293 293 293 292 292 292
304 302 302 302 300 301 301 301 299 300 301 300 301 302 302 303 303 302 302 302 302 300 300 299 298 298 298 297 296 296 296 296 295 295 295 295 295 294 294 293 293 293 293 293
302 293 303 301 301 301 300 300 299 299 300 300 299 301 302 302 302 301 300 301 301 301 301 300 300 300 301 302 301 300 299 297 295 296 296 296 295 295 295 295 295 294 294 294

GFSNGP_sfc_thetae_057.txt.gz
Theta_e
295 296 296 295 297 301 301 304 301 305 306 312 316 318 320 322 324 325 327 330 334 337 346 354 355 358 358 354 357 355 356 355 358 362 364 365 365 368 368 369 369 371 371 370
292 295 295 293 295 297 299 301 302 304 304 314 316 320 321 321 324 324 326 328 330 337 341 345 349 357 360 359 358 358 359 356 360 364 365 365 365 367 369 369 370 371 369 370
289 293 293 289 293 295 297 300 301 299 307 313 314 316 321 324 326 327 331 332 335 337 337 341 345 352 356 361 360 361 361 362 362 365 365 365 366 367 368 368 370 370 370 369
289 290 282 294 299 299 297 299 303 305 307 310 313 317 321 332 331 332 333 335 337 339 341 343 343 346 351 356 363 362 362 365 363 366 365 366 367 367 369 369 369 370 370 371
287 287 291 293 298 300 295 298 306 305 308 310 313 316 318 327 333 334 337 339 340 342 343 346 347 347 348 353 362 362 364 363 365 366 367 367 367 368 369 370 369 369 370 371
289 285 282 292 301 302 303 296 308 312 308 310 311 308 314 327 330 332 336 340 343 345 347 348 350 350 349 346 356 361 363 364 368 368 369 368 369 370 371 370 369 366 368 372
288 287 290 300 301 301 290 295 301 310 312 314 313 318 321 322 323 327 331 338 342 349 349 351 354 352 353 349 353 361 365 367 370 370 370 372 373 373 372 371 366 370 368 371
290 286 284 302 300 293 297 297 297 306 309 310 314 314 315 317 317 319 325 326 333 347 352 354 355 355 358 356 357 366 366 367 369 371 366 366 372 372 372 371 370 372 370 369
292 292 301 301 300 305 302 297 298 306 307 308 310 311 310 311 315 318 320 320 327 339 355 357 356 354 358 358 367 367 368 368 368 370 370 371 370 371 366 370 361 361 360 358
293 297 296 298 301 301 300 298 302 307 308 308 308 311 308 312 314 318 319 319 323 330 337 348 352 357 361 363 369 369 368 368 369 367 366 368 365 365 362 360 359 358 357 356
290 294 294 297 299 299 300 303 307 309 308 307 307 309 309 309 312 319 320 320 322 323 325 330 336 340 346 354 366 361 365 364 364 362 361 365 364 362 361 366 351 359 356 355
287 293 293 294 298 300 300 304 305 306 307 308 309 309 310 310 314 320 319 321 320 320 322 323 326 327 333 339 354 360 357 359 358 358 360 360 360 354 308 315 310 312 312 332
292 296 297 298 300 300 300 304 305 304 305 307 309 310 310 312 317 318 319 318 320 320 321 323 325 325 328 333 339 358 359 359 359 352 359 361 361 357 353 331 307 306 307 312
297 296 294 297 295 299 301 303 303 303 304 306 307 311 313 314 315 315 315 318 322 321 319 320 321 321 325 329 333 344 356 330 359 357 357 359 358 358 357 354 350 354 313 317
299 299 297 300 299 299 300 301 300 299 301 302 305 306 309 312 313 314 316 318 320 320 319 319 320 321 327 328 328 338 342 346 349 358 358 350 355 350 346 345 348 347 341 322
300 299 299 297 297 297 298 298 297 298 299 301 303 305 306 308 309 311 312 314 315 315 316 317 319 320 326 330 329 334 341 331 340 352 348 348 346 345 344 344 342 332 333 345
298 297 297 297 297 298 297 298 298 298 299 300 301 303 304 304 305 304 306 309 311 312 314 315 314 316 321 325 324 326 331 342 336 351 349 346 347 342 345 348 348 351 349 332
301 301 301 301 300 299 300 299 298 299 299 300 301 301 302 301 301 303 303 306 306 307 307 311 312 314 320 323 319 321 324 329 337 343 344 348 348 348 350 351 351 345 339 330
303 302 302 301 301 301 302 301 298 299 299 301 301 301 301 300 302 303 305 303 302 303 305 309 310 314 315 319 317 318 321 325 331 339 342 332 342 343 345 345 346 344 341 338
303 303 303 302 303 302 302 302 302 303 302 303 304 303 303 304 304 303 302 301 302 303 306 305 307 310 312 314 314 318 321 326 332 337 338 336 331 336 335 321 324 330 331 336
304 304 302 303 302 304 303 303 302 301 302 302 302 302 301 303 303 302 299 298 301 304 304 305 305 305 307 308 311 313 321 328 323 319 322 330 330 323 323 322 321 318 318 319
304 304 302 302 303 302 303 303 303 303 302 302 303 303 303 302 303 301 300 299 302 302 302 302 302 303 303 303 301 301 302 304 304 303 302 302 304 305 303 304 307 307 309 313
305 305 304 303 302 303 303 303 303 304 303 303 303 303 302 302 302 301 297 300 302 302 301 301 301 301 300 298 297 297 297 297 297 297 296 296 296 296 295 296 297 296 296 296
304 306 305 305 304 303 302 304 303 304 305 305 305 306 303 301 303 302 302 301 300 300 301 301 300 300 299 298 297 296 296 295 295 296 295 294 294 294 294 294 293 294 294 294
307 305 305 304 303 301 304 303 304 303 304 304 305 305 306 305 303 303 303 302 300 299 299 300 301 302 300 299 298 297 297 296 295 295 295 294 294 294 294 293 294 293 294 293
305 303 304 304 302 302 302 302 300 301 301 302 302 304 304 305 305 304 304 304 304 302 304 304 304 302 302 302 301 300 299 297 297 296 295 295 295 294 294 295 294 294 294 296
305 296 305 302 302 302 302 301 301 300 300 301 301 304 303 304 304 303 302 303 302 302 302 302 302 301 301 301 302 303 303 301 297 299 298 296 296 296 296 295 295 295 295 296

GFSNGP_sfc_thetae_060.txt.gz
Theta_e
294 295 296 296 296 298 298 301 299 302 304 309 314 316 318 323 325 326 327 333 332 339 343 347 350 351 352 352 352 353 354 355 356 359 359 359 357 358 354 359 362 363 363 365
292 296 296 294 296 297 298 300 301 303 304 313 315 319 318 321 324 329 329 328 335 339 343 345 352 353 354 353 353 354 353 354 357 359 359 359 358 359 360 359 361 363 363 363
288 294 294 290 294 295 297 299 300 299 305 311 310 314 319 321 323 327 334 334 337 340 342 338 338 345 355 356 356 356 356 356 356 359 359 358 361 358 361 359 362 362 362 364
289 291 282 295 301 300 297 299 300 301 303 306 309 312 317 320 324 324 333 337 339 338 341 343 340 341 357 358 359 359 356 358 358 358 358 360 359 361 359 362 361 362 362 363
286 286 290 293 298 299 299 297 302 304 307 310 310 310 313 324 329 327 325 331 340 340 342 348 349 350 353 357 357 356 359 357 360 358 359 359 359 359 360 360 361 361 363 363
289 284 282 292 299 303 302 293 305 306 305 306 312 305 308 320 324 325 327 331 337 341 343 346 349 350 349 350 359 356 356 361 360 361 359 360 360 360 362 362 361 362 362 364
289 286 290 298 301 303 289 292 303 305 304 304 306 311 316 319 319 321 323 327 331 334 340 347 355 353 350 350 350 361 360 359 364 365 361 363 363 363 363 363 362 363 363 364
290 286 283 302 301 294 300 304 304 303 304 303 307 311 314 315 317 318 320 321 324 328 338 353 360 359 353 353 354 360 365 362 364 364 364 363 365 365 364 364 363 362 362 363
290 291 302 303 301 304 304 303 303 303 304 304 304 309 312 312 315 317 319 320 322 324 330 334 342 352 358 359 361 360 368 362 364 366 365 364 365 364 364 364 362 361 361 361
291 298 295 299 303 303 302 302 304 305 303 302 305 309 310 312 313 314 319 320 320 322 321 325 329 337 345 349 363 364 359 364 365 365 363 364 365 365 364 363 362 361 359 360
290 294 294 298 298 298 300 301 302 303 306 307 308 309 310 311 313 314 319 319 321 321 319 319 324 331 335 339 346 360 364 364 364 364 361 364 363 364 364 365 360 361 361 360
287 293 292 293 298 299 297 298 300 304 305 308 309 309 311 311 313 317 317 318 321 319 318 319 321 323 328 333 335 346 365 363 361 361 362 362 360 352 312 321 313 318 320 347
291 295 296 298 298 299 297 300 303 303 305 307 309 310 311 312 314 315 315 316 317 319 319 319 319 319 323 328 330 337 347 364 360 353 359 359 359 356 350 328 305 303 307 314
299 297 294 297 295 299 299 300 303 302 304 305 307 308 307 312 314 314 313 315 317 318 317 317 318 317 318 324 326 329 340 332 358 357 355 357 359 358 355 352 349 343 310 314
299 300 298 299 299 298 299 299 299 298 300 302 306 305 306 307 306 308 311 313 316 314 313 314 313 312 317 320 323 327 328 333 341 347 346 343 359 358 356 356 356 355 343 322
300 300 299 298 298 298 297 297 296 297 299 301 302 304 305 305 305 305 306 308 309 308 309 310 310 312 315 321 322 322 325 324 329 341 346 340 349 343 346 352 356 351 350 346
299 298 298 298 299 298 296 297 298 298 299 300 300 303 303 303 304 303 305 305 308 308 308 308 308 310 315 320 319 320 321 326 327 337 341 342 343 345 343 346 343 342 343 332
302 303 301 301 300 299 298 298 298 298 298 300 302 302 301 300 301 302 302 303 303 303 305 306 308 310 314 317 316 318 320 325 333 343 342 345 346 348 351 346 345 340 336 331
305 302 302 302 302 302 302 300 300 301 302 303 303 300 302 302 301 301 303 301 300 299 301 305 307 309 310 312 313 317 322 324 335 330 338 332 337 331 326 329 330 332 337 340
305 305 304 303 304 303 302 304 303 303 303 303 303 302 301 301 301 300 301 299 300 300 302 303 302 303 305 308 311 314 320 322 322 323 322 327 331 330 322 315 319 319 321 325
305 305 304 304 303 303 304 305 303 302 303 304 303 303 301 302 301 299 297 297 300 302 301 302 301 300 301 302 304 305 306 306 304 305 305 311 310 312 321 323 319 318 318 319
305 305 303 304 303 303 304 304 304 305 304 304 304 305 303 301 300 299 299 297 300 301 301 300 300 301 300 300 297 298 298 298 297 297 297 297 298 298 298 300 301 302 308 311
306 306 304 304 303 303 303 303 303 303 304 305 304 304 302 301 301 299 296 299 300 301 301 300 300 301 300 297 296 295 295 295 295 294 294 294 294 294 294 293 294 294 295 296
307 306 307 305 305 304 302 304 304 305 307 309 305 307 304 302 300 301 301 300 299 300 301 302 302 302 300 298 296 295 295 295 294 294 294 293 293 293 293 293 292 292 292 293
305 306 306 305 303 302 304 304 304 304 304 306 304 306 305 304 302 302 303 301 300 302 303 303 303 303 302 300 298 297 297 295 295 294 294 294 294 294 293 293 293 293 292 293
307 304 305 305 303 302 302 301 301 301 301 302 303 304 304 304 304 303 304 303 303 302 302 302 303 303 303 302 301 300 299 298 298 297 296 295 294 294 294 294 294 294 293 293
307 299 304 303 304 303 301 301 301 300 300 301 301 304 304 304 303 303 302 302 302 302 302 302 302 302 302 301 302 302 301 301 298 299 298 298 298 296 296 295 295 295 295 295

GFSNGP_sfc_thetae_066.txt.gz
Theta_e
285 290 291 290 290 291 288 286 283 288 289 294 301 309 318 321 323 325 325 328 330 332 333 333 334 334 334 338 343 346 345 346 345 348 349 345 340 342 343 344 345 345 349 353
286 292 292 289 292 293 292 292 291 290 288 302 306 313 315 318 319 320 322 325 326 327 329 331 333 337 338 340 341 348 347 346 348 347 349 349 346 341 342 340 345 346 349 351
279 288 289 284 288 291 292 295 295 287 295 301 302 308 310 312 314 315 320 325 326 325 326 328 334 336 338 338 341 343 348 349 350 350 349 349 349 346 343 342 339 345 346 350
280 283 276 286 293 294 296 297 298 299 300 301 302 305 307 311 312 314 317 318 320 323 326 329 333 339 340 343 343 342 343 349 351 351 350 350 349 349 347 346 341 340 347 346
279 279 284 289 292 293 291 292 298 296 298 301 302 306 305 307 312 314 317 319 321 323 325 328 333 336 342 342 336 335 338 342 346 351 351 351 349 349 350 349 347 342 345 350
284 278 277 286 295 300 295 286 298 298 297 297 300 294 299 304 308 312 317 320 319 321 325 327 330 331 337 339 337 333 339 341 345 348 350 350 350 350 351 351 349 349 346 346
282 280 286 294 296 299 285 285 296 297 296 296 294 297 302 304 306 312 315 319 320 319 322 323 326 326 330 333 336 337 340 345 348 349 349 351 351 352 351 351 350 350 349 349
285 280 279 296 296 290 293 295 295 295 295 295 297 299 301 303 304 307 313 317 318 316 317 322 323 322 323 326 327 331 332 335 341 350 351 351 351 352 351 350 349 348 349 350
285 288 295 295 293 297 295 293 293 294 296 296 297 298 300 301 304 306 311 314 318 316 315 317 320 320 320 321 324 326 328 331 336 346 352 352 350 350 350 349 349 349 347 347
284 291 292 292 295 295 296 296 297 298 297 297 296 298 301 303 304 305 308 310 316 316 317 317 318 319 319 319 320 321 323 327 331 339 351 352 352 351 350 350 348 348 349 349
284 288 291 294 295 295 296 298 298 298 297 298 300 300 302 302 304 305 308 309 314 313 314 315 316 318 317 317 318 318 321 324 328 340 350 353 352 352 351 352 349 350 350 351
281 288 289 292 295 296 296 295 297 298 298 299 301 300 302 302 307 306 308 310 310 315 313 311 312 313 313 312 313 314 319 321 325 328 336 352 353 343 311 314 319 318 321 340
289 293 293 294 296 298 296 297 298 298 299 299 300 302 303 304 306 308 310 312 308 312 309 306 308 309 310 310 311 313 316 318 321 321 332 348 351 350 346 324 305 307 310 315
294 293 292 295 294 298 298 298 299 299 299 299 300 303 305 305 307 306 305 307 310 307 306 304 304 305 307 308 309 310 315 312 318 321 323 335 351 353 350 348 345 341 308 315
296 296 295 295 296 297 298 297 297 296 297 298 301 301 302 303 302 302 303 305 305 303 301 302 301 301 305 306 309 309 311 313 316 317 321 324 336 347 351 350 348 350 326 313
297 297 297 295 296 296 296 296 295 296 297 298 299 299 301 303 302 302 302 303 301 299 299 299 300 302 305 306 306 308 311 312 314 317 320 325 334 343 348 346 343 339 338 341
292 292 293 293 295 295 295 295 295 297 299 298 299 299 300 300 300 300 300 301 301 301 300 299 300 303 303 303 304 308 309 312 316 321 325 331 335 340 346 347 345 342 337 331
297 296 296 295 295 295 295 296 297 298 299 300 301 300 299 298 297 298 298 299 299 299 299 300 302 301 300 301 306 306 307 307 310 309 319 326 326 335 339 344 340 335 330 327
301 298 298 298 298 296 296 297 296 298 300 299 299 298 298 298 298 298 298 296 296 296 297 300 303 301 300 302 303 302 302 303 305 303 305 312 321 321 321 334 333 333 331 330
302 303 301 300 300 299 297 298 298 298 300 299 299 298 296 296 298 297 297 296 297 298 299 301 300 298 299 300 302 298 298 299 300 300 299 301 303 303 308 310 322 325 325 324
303 304 304 302 298 299 298 297 298 298 299 299 298 297 296 296 297 297 295 294 297 300 300 301 300 298 299 298 298 297 297 296 295 297 295 297 297 296 298 301 303 304 306 310
301 301 301 302 299 295 297 297 297 298 298 299 299 298 297 295 296 296 297 296 298 302 300 299 299 301 299 299 296 295 295 294 294 294 293 293 293 293 293 294 295 296 298 299
301 301 300 301 298 298 295 296 296 298 298 299 298 297 295 295 295 294 293 298 299 300 301 300 301 300 299 295 295 294 294 294 293 293 293 293 293 292 292 292 293 293 293 293
298 299 299 301 298 296 294 295 297 297 297 298 298 297 296 295 295 297 297 299 301 301 300 301 302 300 299 296 295 294 294 293 293 293 293 293 292 292 292 292 292 293 293 293
300 299 297 297 297 294 294 295 296 296 296 296 297 298 298 297 296 297 298 299 301 301 299 302 304 301 297 297 296 295 294 294 294 293 293 293 293 292 292 292 292 292 293 293
298 299 300 299 299 295 295 293 294 294 295 294 295 298 298 297 297 298 298 299 298 299 298 298 299 298 297 297 296 296 296 295 295 294 294 293 293 293 293 293 293 293 293 293
296 298 298 299 300 300 294 294 295 294 295 295 295 296 297 297 298 298 299 296 296 296 296 296 296 298 297 297 296 296 296 295 294 295 294 295 295 294 294 293 293 294 294 294

GFSNGP_sfc_thetae_069.txt.gz
Theta_e
285 290 290 289 289 290 286 285 283 286 287 296 301 309 311 313 316 320 322 323 324 324 327 332 333 333 333 335 341 342 341 342 342 343 342 340 339 340 341 342 342 341 345 350
285 290 290 287 290 290 291 290 289 291 288 299 303 309 309 310 312 314 316 318 321 324 326 328 330 334 336 337 337 343 342 341 343 344 344 342 339 338 339 341 341 340 341 344
278 286 286 282 288 289 292 295 293 287 293 300 299 303 304 307 309 311 315 316 318 320 324 327 329 335 336 338 339 340 343 343 343 344 344 345 344 340 337 338 339 338 341 343
278 282 275 284 291 294 295 295 296 295 296 299 299 301 303 303 304 310 314 315 317 320 321 325 330 333 334 339 339 340 341 344 345 345 343 345 346 344 341 339 339 338 337 339
278 278 282 288 291 291 289 291 297 294 296 298 299 302 302 303 304 305 311 316 317 319 321 325 327 327 333 340 338 333 337 339 344 347 347 346 346 346 347 344 341 341 339 338
280 276 277 284 294 298 295 286 296 296 295 295 297 291 299 300 302 304 306 314 318 318 321 322 322 324 329 332 332 331 336 339 342 341 349 349 349 348 348 348 346 345 343 341
279 277 283 292 294 297 283 284 294 296 294 293 291 294 297 300 301 303 305 309 317 318 318 319 322 323 324 326 324 327 331 332 335 341 343 345 350 350 350 349 348 347 346 345
284 279 277 294 293 288 291 291 293 294 294 293 294 296 297 299 299 302 303 306 315 316 318 318 321 320 319 320 323 326 328 330 332 335 342 347 347 349 350 349 348 347 346 347
284 283 291 293 291 293 294 292 291 292 294 294 296 296 297 298 299 303 304 305 311 315 317 318 319 319 316 318 319 320 323 325 327 330 334 343 348 346 348 349 348 347 346 346
283 286 288 292 293 294 293 293 295 295 295 296 295 296 296 299 301 302 304 305 308 312 313 316 316 317 316 317 316 316 318 322 325 327 327 336 347 349 347 347 347 347 346 345
282 286 288 292 293 293 294 296 296 297 297 297 296 295 296 298 299 301 303 305 308 310 314 315 313 314 314 314 313 312 313 319 322 323 325 327 333 349 349 350 347 348 348 348
280 286 287 288 292 295 295 295 296 297 297 299 299 298 300 299 300 301 302 306 309 312 313 311 307 308 309 308 309 309 311 314 317 319 321 324 330 336 318 317 315 316 317 335
288 290 291 292 294 295 296 298 298 298 298 297 299 299 300 300 302 305 306 306 311 313 310 308 303 304 305 305 306 307 308 312 313 313 319 322 324 328 339 331 309 307 305 311
292 293 290 293 292 295 297 300 299 299 299 298 299 301 303 303 304 303 305 307 310 308 306 304 301 301 302 303 305 306 309 307 309 313 316 317 320 324 331 344 347 346 316 312
295 294 294 291 293 295 296 298 296 297 298 298 299 299 300 300 301 301 302 303 304 302 299 298 298 298 301 303 303 305 305 307 309 312 314 315 318 320 322 333 348 349 339 316
296 295 295 293 294 295 294 294 293 295 298 298 298 298 299 301 300 301 301 301 299 299 299 298 299 301 303 302 300 302 304 308 310 312 315 317 320 321 325 331 343 347 347 344
292 291 292 293 293 293 294 294 294 296 298 298 296 297 299 299 299 299 299 299 299 299 300 299 299 301 303 301 301 302 305 307 310 311 311 312 315 326 329 332 337 346 346 339
296 296 295 294 293 293 294 295 295 295 295 298 299 298 297 297 296 297 298 298 299 298 299 300 300 303 300 301 300 303 302 304 306 307 306 306 307 317 324 332 337 341 336 321
301 299 297 297 296 295 295 295 295 295 296 297 297 296 295 297 297 297 298 297 296 295 297 300 303 300 299 300 304 300 300 302 302 302 303 302 303 305 307 310 331 340 334 330
302 301 301 300 300 297 296 296 296 296 296 297 297 294 293 296 297 296 297 295 296 298 299 300 300 298 298 299 301 298 298 299 298 298 298 298 299 298 300 301 305 313 325 325
301 303 302 301 300 300 298 297 296 296 296 298 297 294 293 296 297 297 295 294 298 300 299 300 299 298 298 298 296 296 296 296 295 295 295 295 296 296 296 299 299 301 307 307
299 301 301 300 299 299 298 296 295 296 296 296 297 295 294 293 294 295 297 296 298 302 301 298 298 300 298 298 295 295 294 294 293 294 293 293 293 293 294 294 294 296 298 298
298 300 300 297 297 296 296 294 295 296 296 296 296 295 293 294 294 293 293 298 299 300 300 300 299 300 299 295 295 294 294 293 293 293 293 292 292 292 292 292 294 294 293 294
299 299 300 300 297 297 293 294 294 295 296 296 296 295 293 292 294 296 297 299 301 301 300 300 299 299 298 296 294 294 294 293 293 293 293 293 293 292 292 292 292 292 292 292
300 301 300 299 297 295 292 293 294 294 295 295 295 296 296 295 295 297 298 298 300 300 298 302 300 299 296 296 295 294 294 293 293 293 293 293 292 292 293 292 292 292 292 292
296 298 298 298 295 293 292 293 293 293 293 293 294 295 296 296 296 297 297 297 296 298 297 297 297 297 296 296 296 295 295 294 294 294 293 293 293 293 293 293 293 293 292 292
295 295 293 294 295 297 293 292 293 293 293 293 293 294 296 296 296 298 298 296 294 295 295 295 297 297 296 296 296 295 295 295 293 295 294 295 294 294 294 294 294 293 293 293

GFSNGP_sfc_thetae_072.txt.gz
Theta_e
286 289 289 288 288 289 285 285 282 285 289 295 301 306 306 309 311 314 316 318 320 322 325 328 332 336 337 338 339 340 341 342 341 342 342 342 342 342 345 345 345 346 346 350
284 289 288 287 289 290 289 290 288 289 291 299 303 305 304 304 307 309 313 316 318 321 323 325 329 333 337 338 339 341 340 341 344 344 344 342 341 341 342 344 344 344 344 347
278 285 285 282 286 288 292 295 293 288 293 298 297 302 300 300 302 303 306 312 316 318 320 323 326 330 331 335 340 340 342 342 342 344 344 344 343 341 340 340 343 343 343 344
279 280 275 282 290 292 294 295 296 295 296 297 297 299 302 301 300 300 302 305 310 317 319 321 326 326 327 337 341 340 340 342 343 343 344 345 345 343 341 341 340 341 342 343
278 276 281 287 292 292 290 290 296 295 296 297 297 299 301 301 301 301 302 304 307 313 319 321 322 324 325 332 333 335 335 338 343 345 344 345 345 346 345 343 341 340 341 341
278 277 276 284 293 296 295 284 296 296 294 294 294 291 299 299 300 301 302 303 306 308 316 319 320 323 322 327 328 327 330 332 334 338 345 347 345 346 347 348 345 344 343 343
279 276 282 291 294 296 283 284 294 295 294 293 291 293 296 299 299 301 302 303 306 308 312 317 320 321 319 322 322 324 328 331 333 335 338 345 348 349 348 348 347 348 346 346
280 277 277 294 293 288 290 292 294 293 294 293 294 295 297 297 297 299 300 302 306 306 308 315 320 320 318 318 322 322 324 326 331 333 334 338 340 344 349 350 348 348 348 347
282 282 290 293 291 293 294 292 293 292 294 294 294 294 296 296 297 298 299 302 305 305 307 312 317 319 316 318 319 317 319 322 324 330 331 334 336 339 345 349 349 348 348 347
283 284 288 292 293 294 294 293 295 295 295 295 294 296 296 296 296 297 299 301 303 303 305 309 315 318 316 317 316 314 315 317 321 324 326 329 333 335 339 347 348 348 348 348
282 285 287 290 293 294 294 296 296 296 297 297 297 297 298 297 297 298 300 301 303 303 304 308 315 315 313 313 311 309 311 313 317 321 321 322 326 329 333 339 344 349 349 350
282 287 287 287 293 295 294 294 296 297 297 298 299 298 299 298 300 301 300 302 302 303 305 307 313 313 310 310 308 307 307 310 314 316 317 318 322 325 317 314 311 310 313 335
287 289 290 292 294 295 294 295 299 299 299 297 298 299 299 299 301 301 302 304 306 306 307 309 311 308 307 306 305 305 305 308 311 311 313 316 320 321 321 323 313 308 305 307
291 292 291 293 292 295 296 298 301 300 300 299 299 300 300 299 301 301 301 302 303 304 306 304 303 303 304 303 303 303 304 305 307 309 312 314 315 317 320 321 324 330 320 311
293 294 293 293 294 295 296 296 296 296 298 299 300 299 299 298 299 300 301 302 302 302 302 301 300 301 303 303 302 301 301 303 306 307 310 311 314 315 319 322 322 329 336 322
294 295 294 293 294 294 295 295 294 294 296 299 298 296 297 298 299 300 300 300 298 297 299 300 299 301 302 303 302 300 300 303 305 306 309 311 313 315 318 322 324 328 333 341
294 292 294 293 294 295 295 295 294 295 296 297 299 299 299 297 298 297 298 299 299 299 299 299 299 301 302 303 302 301 301 302 304 304 307 309 309 312 316 322 326 329 333 337
298 298 297 296 295 294 294 295 295 295 295 297 298 300 298 295 296 296 297 298 298 298 298 299 300 302 301 301 301 301 302 302 302 303 306 306 306 308 310 313 317 321 329 334
300 298 298 297 296 295 295 296 295 296 296 296 297 298 297 297 297 296 297 296 296 295 295 298 303 301 299 300 303 302 299 299 301 302 302 302 303 304 304 305 306 308 318 330
303 302 301 300 300 298 297 297 297 296 297 297 297 296 295 295 297 297 297 296 297 298 300 299 298 298 298 299 302 298 297 298 298 298 298 298 299 299 299 298 300 303 313 314
301 301 301 301 301 301 300 298 297 296 297 298 297 295 294 295 296 296 295 295 298 300 300 300 298 298 298 299 297 296 295 295 295 295 295 295 296 296 296 296 295 299 300 300
298 298 301 302 301 300 299 298 297 296 297 297 298 297 295 294 294 295 298 296 299 301 300 299 298 299 298 298 295 295 294 294 294 294 293 293 293 293 293 294 293 294 295 295
300 300 300 299 298 298 299 297 295 297 297 298 297 297 295 295 296 294 294 299 301 300 301 299 299 300 298 294 294 294 294 293 293 293 293 293 293 293 292 292 292 292 292 293
301 301 301 302 301 298 297 299 297 297 298 298 298 298 295 295 296 297 298 299 300 301 301 300 299 299 298 295 293 292 293 293 293 293 293 293 293 292 292 292 291 292 292 293
302 301 301 301 301 299 298 297 297 298 296 297 297 298 298 299 297 299 298 298 300 301 300 301 299 299 297 296 295 293 292 292 293 293 293 293 292 292 292 292 292 292 292 292
297 297 298 299 299 298 297 296 297 296 296 296 296 298 299 301 301 299 298 297 298 300 299 300 298 298 298 297 296 295 294 293 292 292 292 293 293 293 293 293 292 292 292 292
296 296 296 297 298 296 296 298 297 296 297 296 296 297 298 298 300 299 297 296 296 297 297 298 299 298 297 297 296 296 296 296 294 294 293 292 292 293 293 292 292 292 292 292

GFSNGP_sfc_thetae_075.txt.gz
Theta_e
293 294 294 293 292 293 292 293 293 294 297 304 307 309 310 312 313 313 313 316 318 319 322 326 330 334 340 344 345 345 347 346 347 350 348 346 351 356 355 355 354 356 356 357
290 292 292 291 293 293 293 293 294 294 297 306 308 310 309 307 309 308 309 311 314 318 320 320 325 328 330 335 341 344 344 347 351 352 353 353 354 355 355 354 354 354 353 355
287 291 291 287 292 293 294 298 297 293 300 304 303 306 304 303 303 304 305 308 311 313 317 322 323 326 325 328 338 344 345 346 348 352 351 353 352 353 353 354 354 354 353 353
288 288 282 291 297 295 296 299 301 301 302 302 302 303 305 305 305 305 305 306 309 311 314 319 323 324 324 329 333 341 346 346 349 349 349 352 353 352 353 352 353 353 352 354
287 286 288 291 294 295 294 294 301 300 300 301 302 304 305 306 306 305 306 307 308 310 313 317 321 325 325 325 329 328 333 339 342 347 350 350 351 352 353 352 350 350 351 353
289 284 282 291 297 300 300 290 299 301 299 299 301 298 304 305 305 305 306 307 308 309 312 314 318 322 325 323 327 328 326 328 335 341 343 351 352 353 354 355 352 352 351 352
289 287 289 295 298 301 288 292 299 300 299 299 298 301 303 304 304 305 305 306 308 309 311 313 316 320 321 324 323 325 326 325 328 336 337 339 351 356 354 355 355 354 354 355
289 287 284 299 297 293 297 299 299 299 299 298 300 301 302 303 303 304 304 305 306 307 309 311 313 316 319 321 326 325 323 323 325 329 333 337 339 340 345 350 350 352 353 354
292 292 298 300 298 300 299 297 298 299 298 298 298 299 300 301 302 303 304 304 305 306 308 310 311 314 316 321 324 323 319 319 321 324 328 333 333 339 343 346 347 351 351 350
291 295 297 300 300 300 300 299 300 300 299 300 298 299 300 301 302 303 304 304 305 305 306 307 310 312 314 320 323 321 319 316 318 320 322 327 328 332 337 339 343 345 349 351
293 294 295 297 298 300 300 301 300 300 300 299 300 300 299 300 301 303 304 306 306 306 306 307 309 311 313 317 321 317 317 316 317 317 320 322 325 325 330 336 334 343 347 350
293 298 298 297 300 302 300 300 301 300 299 301 301 301 300 300 300 301 303 305 306 307 307 307 311 313 314 318 318 315 314 315 314 314 314 319 316 321 315 311 310 308 305 313
298 300 300 301 302 302 301 301 302 302 302 301 302 302 302 300 301 302 303 302 302 303 304 306 305 308 312 314 309 310 312 312 313 311 314 314 316 316 317 320 308 307 304 304
299 299 297 299 299 302 302 303 303 304 304 303 303 302 302 302 303 301 300 302 303 303 302 303 303 303 306 306 307 308 309 305 306 310 312 313 314 316 318 319 321 322 318 315
299 301 301 303 303 302 303 303 302 302 303 302 304 302 302 301 301 301 303 302 301 301 301 301 301 303 303 305 307 306 307 304 305 306 308 309 310 313 314 317 319 322 327 323
299 299 300 300 302 302 302 302 302 302 303 303 302 302 302 302 301 301 301 300 298 297 299 299 299 300 303 303 304 304 305 304 304 304 305 306 308 309 312 316 318 320 323 326
296 295 297 299 301 302 302 303 303 303 304 303 304 304 304 303 302 301 299 299 299 299 299 300 298 302 304 303 304 303 302 303 304 305 304 304 306 308 310 312 313 317 323 328
303 303 303 304 303 303 303 303 303 304 304 305 305 304 303 301 300 299 298 299 299 299 300 300 303 302 300 302 302 301 302 302 303 303 303 305 305 307 308 309 310 312 315 321
305 303 304 303 303 303 303 303 304 305 306 305 304 304 304 302 300 299 299 299 299 299 301 302 303 300 298 300 302 302 302 301 301 302 303 304 304 305 305 306 306 307 309 311
306 307 307 305 306 303 304 305 305 305 305 305 304 304 303 302 301 301 301 298 301 302 303 302 301 299 298 298 301 298 297 298 298 299 300 300 300 300 300 299 300 302 304 308
306 306 306 306 307 307 306 306 306 305 305 305 305 304 304 303 302 302 301 300 301 302 303 302 301 299 297 298 295 295 296 296 296 296 296 296 297 297 297 298 298 298 299 298
306 305 305 305 306 307 308 307 306 305 305 305 306 306 304 303 302 302 303 302 304 303 305 303 301 301 298 298 294 292 293 294 294 294 294 294 294 294 294 295 295 295 294 295
304 305 306 306 303 305 305 305 304 304 305 306 306 305 303 302 302 300 299 305 305 305 305 304 300 300 299 295 293 291 290 291 292 293 293 294 293 293 293 292 293 293 293 293
304 304 303 303 304 303 303 305 303 301 304 307 307 307 304 301 302 305 305 303 302 302 305 303 300 299 298 297 295 292 290 289 288 290 292 293 293 293 292 292 292 292 292 292
300 302 305 303 301 302 301 300 300 302 303 305 306 306 305 306 303 304 305 304 301 302 305 301 299 298 299 298 297 294 293 291 291 288 288 291 292 291 292 292 293 292 292 292
302 302 301 303 299 301 301 301 300 300 302 303 304 305 306 306 306 305 303 301 303 303 304 304 302 302 302 299 298 296 295 293 292 291 289 288 291 291 291 290 291 292 292 292
302 300 302 301 301 300 301 302 302 299 302 303 302 304 305 306 305 303 301 302 302 302 302 302 302 302 302 301 299 299 298 297 293 293 292 291 290 290 291 290 289 288 289 290

GFSNGP_sfc_thetae_078.txt.gz
Theta_e
299 299 299 298 297 298 300 302 301 303 307 310 314 315 316 318 318 317 317 317 319 320 322 324 325 330 334 338 344 352 351 350 352 355 356 356 354 357 359 360 360 361 359 360
296 297 297 296 297 297 297 298 301 304 305 313 316 316 313 313 313 312 313 314 317 319 322 322 324 326 326 328 336 347 351 351 354 355 357 357 357 351 358 359 360 361 359 358
293 295 295 292 297 298 299 300 301 300 307 311 311 311 310 310 311 310 310 311 313 315 317 320 322 325 325 326 332 334 345 352 352 354 355 356 358 358 358 357 359 360 359 359
296 294 286 297 301 300 299 302 303 306 307 309 309 310 311 313 312 312 312 312 313 313 315 318 320 321 327 329 331 330 330 332 335 348 351 355 356 357 358 358 358 358 358 361
292 291 294 294 298 298 299 299 304 305 306 306 307 309 310 312 312 311 312 313 313 314 316 319 319 321 324 326 332 330 327 328 330 333 340 349 353 354 358 357 357 357 358 359
293 289 287 297 301 304 303 296 305 305 305 305 306 301 308 310 310 311 312 312 313 314 315 317 318 319 321 323 325 329 330 329 330 332 332 335 346 352 356 359 356 356 357 359
293 291 294 300 302 304 291 297 305 306 306 306 304 307 308 310 310 311 311 312 312 314 314 316 317 317 318 321 322 327 329 330 329 330 332 334 335 343 352 357 362 360 357 360
295 292 289 304 302 297 304 306 305 304 304 304 305 306 307 308 309 309 310 310 311 311 312 315 317 316 316 318 323 327 328 328 329 329 327 331 337 339 339 347 349 356 359 361
297 299 304 306 305 307 305 303 304 305 304 304 303 304 305 306 308 309 309 310 311 311 311 313 315 316 315 318 320 323 326 326 326 328 329 330 331 335 338 342 344 349 352 351
296 300 302 305 305 305 304 304 305 305 304 304 303 304 305 306 307 307 309 309 311 312 311 312 314 315 316 318 319 320 323 324 324 324 324 327 327 329 332 334 335 340 343 350
299 301 300 304 305 305 304 304 304 304 304 303 303 304 305 305 307 307 307 307 307 309 308 306 309 311 315 318 320 318 320 321 321 321 323 323 325 326 325 327 327 330 333 340
297 302 302 301 306 306 304 304 304 303 303 304 305 304 303 303 303 303 304 306 307 306 308 309 309 310 313 313 313 316 318 318 318 318 319 320 320 322 313 308 305 304 304 311
302 306 304 305 306 307 305 305 305 304 304 304 305 304 304 303 303 303 304 305 305 304 304 306 306 307 310 312 311 308 310 315 315 315 317 317 318 319 318 319 309 305 303 303
306 304 302 304 303 306 306 306 305 305 305 305 305 305 305 305 302 302 302 303 304 304 304 303 303 304 305 309 310 309 308 307 312 314 315 316 317 318 319 318 318 320 314 310
301 304 305 307 306 306 306 306 305 305 306 305 306 305 306 304 304 302 302 305 304 303 303 304 304 304 304 305 305 306 308 308 311 313 314 313 314 315 316 316 317 318 321 316
302 301 301 304 305 305 305 305 304 305 305 305 305 306 305 306 305 303 303 304 302 302 304 303 303 302 304 305 303 303 305 306 307 309 310 312 313 313 314 313 314 317 319 320
298 296 300 301 303 304 304 305 306 306 305 306 306 307 307 306 306 305 303 304 303 304 305 304 304 306 306 303 300 300 301 304 305 307 308 310 310 308 308 311 311 313 316 319
303 305 305 304 302 303 305 306 307 307 306 307 307 308 307 306 304 305 305 305 304 304 304 305 306 305 304 303 301 301 301 300 301 302 304 305 307 308 307 308 309 310 314 317
306 306 308 307 308 307 307 307 307 308 308 309 308 307 308 307 306 305 305 302 303 302 304 304 304 303 303 303 302 301 299 298 299 300 302 302 304 305 306 307 308 310 311 312
309 309 309 308 309 309 308 308 307 308 309 309 308 308 307 308 306 306 305 304 305 305 307 305 305 304 303 301 300 296 295 295 296 297 298 299 300 302 303 303 305 306 307 308
309 309 309 309 309 311 310 311 309 308 309 309 308 308 308 308 307 306 305 303 306 309 307 305 304 302 302 300 297 294 293 293 293 294 295 296 297 298 299 300 301 302 302 302
309 308 309 309 309 309 311 312 311 311 310 309 309 309 309 307 306 306 307 306 307 306 307 306 304 301 301 300 297 294 293 292 291 291 293 294 294 295 296 297 297 298 298 298
309 307 308 308 308 309 310 311 311 310 307 308 308 309 308 306 306 303 302 307 307 304 307 308 300 299 299 301 298 296 294 292 291 290 289 291 293 293 293 293 294 294 294 295
306 307 307 307 309 305 302 304 305 308 308 310 310 310 308 304 305 306 306 305 304 303 307 306 302 299 299 302 299 296 295 294 292 291 290 289 290 290 291 292 292 293 293 293
306 306 307 306 303 302 301 302 302 304 306 308 309 309 308 307 305 305 306 305 302 302 304 303 301 300 303 303 301 297 296 295 294 292 290 289 289 288 287 287 290 292 293 293
305 305 305 305 307 302 303 302 300 301 303 304 306 306 307 308 308 307 306 303 304 302 303 303 304 305 304 304 303 299 298 296 295 294 291 290 290 289 286 286 286 286 288 291
304 301 304 304 305 305 304 301 300 300 303 304 304 306 308 307 307 303 302 303 302 302 302 302 303 302 302 302 302 303 301 300 295 296 293 292 291 287 289 289 286 286 286 287

GFSNGP_sfc_thetae_081.txt.gz
Theta_e
303 303 305 305 304 304 305 307 304 310 311 316 319 320 321 323 321 320 321 321 320 322 323 326 328 328 330 337 344 348 352 351 357 358 358 359 360 362 363 366 366 366 366 364
300 301 302 300 301 302 304 304 306 310 309 319 319 320 318 318 318 317 318 319 320 323 325 323 325 328 329 332 336 342 342 346 347 357 357 360 360 360 360 362 368 369 366 365
297 300 299 296 300 302 303 304 307 307 313 317 315 314 315 315 316 315 315 316 317 319 320 323 324 326 326 330 334 332 333 333 336 344 350 354 360 363 361 359 363 367 366 366
296 300 290 301 305 304 303 304 308 312 314 316 316 315 316 317 316 315 316 317 317 317 319 321 322 323 326 329 333 331 330 330 331 335 341 348 351 356 359 361 361 362 365 367
294 294 298 299 301 301 302 303 307 310 311 312 313 314 313 315 315 315 315 316 317 318 319 322 321 322 324 327 330 334 332 331 330 331 333 339 343 343 355 361 358 358 359 364
297 293 290 300 304 307 306 299 308 310 310 309 310 305 310 313 313 313 315 315 315 316 318 319 320 321 321 322 325 327 329 331 335 334 332 333 335 341 345 355 358 363 358 362
296 294 298 305 305 306 294 301 309 310 310 308 307 311 312 313 312 313 314 314 315 316 316 318 320 320 320 321 321 325 327 330 331 333 334 333 335 340 340 342 349 356 358 363
298 295 292 307 304 299 308 311 310 310 309 308 309 309 310 310 311 312 312 313 314 315 315 317 318 319 319 320 322 323 324 326 330 331 329 330 335 336 339 341 341 346 353 356
300 302 309 309 309 312 312 309 308 309 308 308 307 308 308 310 310 311 312 313 314 315 316 317 319 319 318 320 322 323 322 323 326 329 329 330 330 333 332 341 343 342 342 349
300 305 306 307 309 310 309 308 309 309 308 307 307 308 308 309 310 311 312 311 312 312 312 313 314 315 316 318 319 320 322 322 323 325 325 326 326 326 327 329 331 332 338 337
301 304 305 307 309 309 307 308 307 308 307 306 306 306 308 308 310 310 310 310 310 309 309 309 311 311 312 316 316 316 317 319 322 322 323 325 327 324 324 329 323 324 325 326
299 306 306 305 309 310 307 306 307 306 306 307 307 307 307 308 308 309 308 309 309 309 309 309 308 309 312 313 312 311 313 314 316 317 319 320 320 321 314 309 308 305 303 311
306 309 309 308 308 310 308 308 308 307 307 306 308 308 307 307 307 306 307 307 307 308 308 307 308 306 307 309 309 309 308 311 313 312 315 316 317 318 317 318 305 303 302 302
311 309 306 307 306 308 309 309 307 308 309 308 308 308 308 308 307 307 306 307 307 306 305 305 305 304 306 308 308 308 308 305 308 311 313 314 316 316 317 317 317 319 310 307
309 310 309 308 309 309 309 309 307 306 308 307 309 307 307 306 305 306 308 307 306 305 304 304 304 305 308 307 306 306 306 305 306 307 308 309 312 315 315 315 315 316 319 313
308 309 309 305 305 307 308 307 306 306 307 308 307 307 307 308 308 306 308 307 304 303 304 304 305 307 306 306 304 305 305 305 304 303 305 306 308 311 313 315 315 316 316 317
305 304 304 303 302 304 306 308 308 307 307 308 308 308 308 306 306 307 307 307 307 305 305 306 306 308 308 307 305 304 303 303 303 304 304 303 304 306 309 311 312 314 314 316
308 307 306 304 303 304 305 307 307 307 307 308 309 309 308 307 307 308 307 308 306 305 306 307 307 307 306 306 304 303 302 301 300 300 300 301 302 303 303 303 306 309 311 313
309 307 306 306 306 307 307 307 307 308 311 310 308 308 309 309 309 309 308 307 306 305 305 307 304 305 305 305 303 302 300 298 297 297 298 298 299 300 300 302 303 304 307 310
308 310 309 309 310 308 307 310 310 309 310 310 309 308 308 308 309 309 308 306 307 306 309 307 307 305 305 304 301 300 297 295 294 294 294 296 296 297 298 297 300 302 304 305
308 309 309 310 310 311 311 312 310 308 310 310 308 309 311 311 310 309 307 305 309 309 308 306 307 306 304 302 301 299 297 295 294 293 292 292 294 294 295 296 297 298 300 302
309 309 308 308 308 308 310 312 313 311 312 311 308 309 310 309 309 309 309 307 308 306 308 306 305 302 302 301 302 300 297 296 295 293 291 291 291 292 292 294 295 296 297 298
309 308 308 308 308 309 310 311 311 311 312 313 312 308 310 307 307 305 304 309 309 306 306 306 303 302 301 303 302 301 299 299 295 293 292 291 290 290 290 291 293 294 294 295
306 307 307 308 309 308 307 307 307 309 311 309 310 310 310 308 307 307 308 307 305 304 306 306 306 303 301 305 304 302 299 299 298 294 292 291 291 291 290 289 289 291 293 294
306 306 307 306 306 306 307 308 307 307 305 305 307 311 310 310 306 306 308 309 304 305 306 305 304 303 305 306 307 304 303 299 298 297 293 292 291 290 290 290 290 289 288 290
305 304 305 305 307 307 307 303 302 303 305 304 305 308 308 307 307 307 307 305 307 305 305 305 305 306 305 303 304 306 304 303 298 299 295 293 292 290 290 290 289 289 289 289
305 302 304 304 307 307 306 304 300 300 302 302 303 306 306 306 306 306 303 306 305 304 305 305 304 304 303 303 304 303 303 305 298 299 299 296 293 292 291 291 289 288 288 289

GFSNGP_sfc_thetae_084.txt.gz
Theta_e
304 305 306 305 305 305 305 307 305 310 311 315 319 320 321 321 322 321 320 322 323 323 324 328 329 328 332 336 337 343 346 347 346 350 362 366 366 364 367 366 365 366 365 364
301 303 304 303 305 306 306 307 308 311 311 319 319 322 320 320 319 318 319 320 322 324 324 324 326 327 330 333 333 336 338 338 344 350 351 356 361 364 364 366 367 366 364 364
298 301 300 298 302 302 304 307 312 308 312 318 316 316 316 316 317 316 316 317 319 320 322 323 323 328 331 333 333 331 332 334 336 341 344 345 349 357 359 360 362 363 364 364
297 300 291 302 307 306 304 306 313 315 316 316 316 316 317 318 317 316 317 317 317 318 320 322 321 324 330 333 335 334 333 333 334 334 337 341 345 344 346 352 359 359 360 362
294 295 299 300 303 302 302 302 313 315 316 314 315 315 313 316 316 316 316 317 317 318 320 324 321 325 328 328 332 331 331 334 334 332 333 334 337 338 341 343 345 353 358 359
297 292 290 300 305 308 306 299 310 314 314 314 313 306 308 314 315 314 315 316 315 317 318 319 321 321 322 321 326 325 327 331 335 336 337 335 336 338 342 343 344 348 351 358
296 294 298 306 306 307 295 301 311 314 313 312 309 312 314 315 314 315 315 315 315 316 317 318 320 319 321 322 321 323 325 327 331 335 334 337 339 340 340 342 344 345 348 354
296 294 292 308 304 299 309 312 311 313 312 312 312 313 313 313 313 313 313 314 315 315 316 318 320 319 319 321 324 325 326 326 327 330 330 330 335 336 336 338 341 343 344 347
301 302 309 311 310 313 312 311 311 311 311 311 309 309 310 311 311 312 313 314 314 314 316 318 317 316 315 319 322 322 321 323 327 328 328 332 333 330 330 335 337 340 340 341
302 307 308 309 311 312 312 311 310 311 310 308 308 309 309 311 311 312 313 312 312 312 312 313 314 314 314 316 319 318 318 319 320 320 324 328 327 326 327 325 327 330 330 328
301 305 306 308 309 310 309 310 310 309 309 308 308 308 309 310 311 310 311 311 311 310 310 310 311 311 312 314 314 311 312 314 316 317 319 320 325 326 325 329 322 323 324 323
299 306 307 307 311 312 309 307 308 308 306 307 307 309 309 309 309 310 309 310 310 310 310 309 309 309 309 310 310 309 308 308 309 311 314 315 317 318 315 308 306 303 303 311
307 310 310 310 309 311 309 308 308 308 309 308 309 309 309 308 309 305 308 308 308 308 308 309 308 307 307 308 308 307 305 307 307 307 309 312 314 315 314 316 309 305 302 301
311 311 308 309 306 310 309 310 310 309 309 309 309 310 309 309 306 308 307 307 308 308 307 307 306 306 308 308 309 308 308 305 307 307 307 308 309 310 312 312 314 317 313 304
309 310 309 309 310 311 310 310 308 306 308 308 309 309 309 308 308 308 308 308 307 306 306 305 305 306 309 307 307 306 305 304 305 305 306 305 306 308 309 310 311 313 317 313
307 308 308 308 309 308 307 308 307 307 307 308 309 308 308 309 309 309 309 308 306 305 305 305 306 309 308 309 308 305 305 306 305 303 303 304 304 305 304 305 307 309 312 314
305 305 305 306 307 308 306 307 307 308 309 309 310 311 309 309 308 308 308 308 308 306 307 307 307 308 309 307 306 302 302 303 304 302 301 301 301 301 301 302 304 305 306 309
309 309 309 308 307 308 307 308 309 308 309 309 310 311 310 309 308 309 309 309 308 307 308 309 309 307 307 306 304 302 301 300 299 299 298 298 298 298 298 299 300 300 302 306
309 308 309 309 309 308 307 307 308 308 309 311 311 310 311 311 311 311 311 308 307 305 307 310 307 307 306 304 303 302 300 299 298 297 296 296 296 296 296 297 297 298 300 301
309 310 310 310 310 309 309 310 311 310 310 311 312 311 310 311 312 310 309 309 309 308 311 309 308 307 308 305 301 302 300 299 298 297 295 293 293 292 293 294 295 295 296 297
309 311 310 309 310 310 309 312 308 309 309 311 309 310 312 313 312 311 307 305 310 312 310 310 308 306 306 303 302 302 301 299 298 297 295 293 292 291 290 292 292 293 294 295
308 308 309 309 310 310 310 308 309 311 311 308 311 310 312 311 312 312 309 309 310 309 309 308 307 308 306 302 302 302 301 299 298 298 295 293 292 291 290 289 290 290 291 293
306 306 307 306 306 307 307 310 311 309 309 309 309 312 313 313 307 306 306 312 309 308 308 308 308 307 305 303 303 303 303 302 300 298 296 294 292 291 290 289 289 290 290 291
306 307 307 306 307 306 306 309 309 309 309 309 311 313 311 309 308 308 311 308 308 305 308 307 307 306 305 304 306 305 304 302 301 300 296 293 293 291 290 289 288 289 289 289
306 306 307 305 304 305 307 308 307 307 307 308 309 311 312 308 307 307 308 308 305 306 307 307 307 306 305 305 307 309 309 305 302 301 298 295 294 291 291 289 289 288 288 289
306 304 305 306 306 307 308 307 302 304 305 306 305 308 308 308 308 308 308 307 308 306 306 306 306 306 306 305 305 303 305 305 302 300 299 298 295 294 292 290 290 288 288 288
305 302 304 304 305 305 306 304 303 302 302 302 302 305 306 307 307 306 306 306 306 306 306 306 305 304 304 303 303 304 304 306 300 301 300 300 298 296 294 293 291 288 287 288

GFSNGP_sfc_thetae_087.txt.gz
Theta_e
301 303 303 301 301 303 298 306 304 306 308 314 315 315 316 318 319 320 319 319 321 322 324 327 329 331 333 334 337 338 338 339 337 345 347 350 350 353 353 355 356 356 355 355
299 303 301 299 303 304 302 310 309 310 309 318 318 318 318 317 317 317 319 319 319 321 321 322 325 326 330 329 332 336 334 336 338 342 343 342 347 350 351 350 351 354 355 355
291 299 298 295 300 300 302 312 311 305 311 318 316 314 313 312 313 313 315 315 315 316 317 318 322 327 328 328 331 331 332 332 334 337 339 340 342 341 339 342 351 350 351 352
292 295 288 296 301 303 302 313 313 312 313 316 313 312 313 313 311 311 312 313 313 314 313 314 317 321 328 330 331 331 330 331 331 332 334 336 338 337 339 339 341 346 349 351
289 288 296 298 300 300 303 308 315 313 314 312 313 311 309 313 313 311 310 310 312 315 315 315 315 317 319 322 320 320 322 326 331 332 331 331 332 334 337 338 340 341 343 347
292 287 286 295 302 304 303 302 315 312 310 310 310 301 303 309 311 310 310 310 310 313 314 313 313 316 316 317 317 317 319 320 323 329 327 326 329 330 334 336 339 344 344 345
291 290 296 302 303 303 292 298 311 312 311 309 304 306 308 310 309 310 310 309 311 312 312 313 315 315 315 314 314 317 318 321 322 322 323 324 325 327 328 329 333 336 340 341
292 290 288 308 306 300 303 305 309 310 310 307 307 309 309 309 308 309 309 310 311 311 311 311 312 311 311 310 314 315 315 315 316 319 322 322 322 325 323 322 325 330 335 337
298 296 304 307 306 308 308 306 306 305 308 308 307 306 307 306 307 309 308 308 309 309 309 310 310 309 306 308 311 311 310 310 312 314 314 317 321 321 319 321 319 322 326 323
299 304 305 307 308 309 309 306 308 306 305 305 304 305 305 306 306 307 306 305 307 306 306 305 307 307 307 308 308 306 305 306 308 309 309 310 313 317 316 317 317 315 315 315
297 302 304 306 308 307 307 309 308 308 307 306 305 305 305 306 305 305 305 305 305 304 305 303 304 305 305 305 305 303 303 304 303 305 305 306 309 309 311 312 309 308 312 314
294 302 301 303 307 308 306 305 306 305 304 305 306 305 306 304 305 305 304 304 304 304 303 302 304 302 302 303 303 301 300 301 302 301 302 304 306 307 307 305 304 303 301 301
302 307 306 307 308 310 308 306 306 305 305 303 306 306 306 304 303 303 303 303 302 302 302 302 302 301 302 303 302 301 300 300 300 302 301 301 302 302 301 304 304 303 302 302
307 307 304 307 304 307 308 308 309 306 307 306 306 306 306 304 302 303 302 303 304 302 302 301 301 300 301 302 302 300 300 303 298 298 299 300 300 300 301 301 301 303 305 304
307 307 306 305 305 306 308 307 305 304 305 304 306 305 305 302 302 304 304 303 303 302 301 300 300 301 302 301 301 299 299 298 298 298 298 300 299 299 300 300 300 300 302 302
306 306 305 306 305 307 306 306 305 303 304 305 304 305 305 306 307 304 303 303 300 299 300 300 299 302 303 302 299 297 297 305 301 297 297 297 297 297 297 297 297 298 298 299
301 303 303 303 304 305 306 305 306 306 305 304 305 307 306 305 304 303 304 303 302 301 301 301 301 302 301 301 298 296 296 296 300 295 294 294 294 294 294 294 294 295 296 298
306 305 305 304 305 305 306 306 306 307 305 308 309 307 305 303 303 303 304 304 303 301 302 302 303 301 301 301 298 296 295 295 294 293 293 292 292 293 293 292 293 293 294 295
309 307 308 308 307 305 305 306 306 306 308 307 307 306 306 306 305 305 305 303 301 299 301 304 310 304 301 301 300 295 295 294 293 293 292 293 291 291 291 291 291 291 291 292
311 310 309 309 309 307 306 307 308 307 307 306 306 306 307 307 306 305 306 303 303 304 304 305 305 301 301 301 304 296 295 295 294 293 292 291 290 290 291 291 290 290 291 291
307 308 308 309 307 308 309 308 307 307 308 308 305 304 304 308 307 306 304 302 303 307 305 309 305 303 302 302 301 295 295 295 294 293 295 290 290 289 290 290 290 290 289 290
304 304 305 306 306 307 308 308 308 308 308 308 305 306 306 305 308 306 307 305 305 308 307 306 305 307 303 308 296 295 295 296 294 294 293 291 290 288 289 290 289 290 289 289
303 305 304 303 303 303 305 305 306 307 308 306 306 306 306 307 306 306 304 308 307 307 306 305 307 310 310 299 296 296 297 296 296 295 293 292 290 288 291 290 289 289 288 288
303 304 306 305 304 303 302 304 305 305 304 305 306 307 307 306 308 309 308 308 308 307 307 306 307 308 306 298 298 298 299 298 297 296 294 294 290 291 291 290 290 289 289 288
304 304 304 303 302 301 303 304 303 302 303 304 305 306 307 309 307 307 306 307 306 306 307 307 307 307 301 299 299 300 300 299 298 297 294 292 292 291 291 291 290 290 288 288
303 302 303 304 302 303 303 301 299 300 302 303 304 304 304 306 306 305 306 306 306 305 304 305 304 303 301 301 301 300 300 300 299 296 294 294 292 291 289 289 291 290 289 288
302 302 302 303 303 302 301 301 300 299 300 302 301 304 304 304 305 304 305 306 306 305 305 305 303 304 302 302 302 299 298 300 299 298 297 296 295 293 292 292 291 289 289 289

GFSNGP_sfc_thetae_090.txt.gz
Theta_e
295 299 301 299 299 299 296 300 299 307 307 312 314 315 318 321 321 320 320 323 324 325 326 329 332 332 334 338 339 340 338 337 338 342 342 344 348 348 352 350 352 351 350 351
294 300 299 296 299 300 306 310 309 309 309 315 315 317 317 318 317 316 317 319 321 323 325 325 328 329 330 332 334 336 335 335 337 340 341 342 341 340 343 346 348 349 351 350
290 296 294 290 295 299 308 312 312 306 310 314 314 314 315 316 317 316 315 314 315 317 320 324 325 326 327 330 332 330 330 332 334 337 337 338 338 339 338 339 341 344 344 347
291 293 286 293 301 309 312 313 313 313 314 315 314 313 312 311 312 313 313 312 312 313 312 314 322 328 328 327 328 330 330 330 332 332 332 333 334 334 337 338 338 339 342 343
290 288 291 296 299 298 303 306 316 314 313 310 310 310 307 310 310 308 309 310 311 312 312 314 315 318 317 316 315 317 318 320 325 328 328 331 331 333 334 336 336 338 341 340
291 288 286 294 301 303 308 300 313 311 309 308 309 301 303 308 308 307 308 310 310 310 312 313 313 315 314 313 313 312 314 317 320 322 323 326 326 327 332 331 333 336 337 341
290 287 295 303 306 307 293 296 309 312 309 308 303 304 306 308 308 308 308 309 311 311 309 308 311 311 309 310 309 311 313 313 314 314 316 320 320 321 324 321 323 326 331 336
289 287 285 305 305 299 301 304 308 306 305 306 307 306 306 307 305 307 308 310 309 308 307 307 308 307 306 306 308 308 308 308 308 310 312 314 315 319 319 318 320 321 324 333
294 293 300 302 302 305 305 305 304 306 307 309 307 305 305 305 305 306 307 307 308 305 304 304 305 305 303 303 305 305 304 304 304 305 307 308 310 311 312 313 312 311 312 314
297 299 301 303 304 306 306 303 305 307 307 305 303 304 305 305 304 303 304 304 304 303 302 301 302 302 301 302 303 302 301 301 302 302 302 303 307 309 309 308 306 306 308 308
294 299 302 304 304 303 306 306 305 304 305 304 304 303 304 303 302 302 302 303 303 302 300 300 300 300 301 302 301 300 299 300 299 300 299 301 302 304 305 304 303 303 305 305
291 298 297 300 304 306 304 304 304 303 302 305 305 303 303 301 302 302 302 302 301 301 300 300 299 299 300 300 299 298 298 298 298 297 298 299 299 299 302 301 300 298 297 299
298 302 302 303 306 307 304 304 304 302 303 303 304 303 303 301 300 304 301 301 300 300 300 299 298 299 299 300 300 298 296 296 295 297 297 296 297 297 297 300 301 299 298 298
302 302 300 302 300 304 305 305 307 304 302 305 304 304 303 300 301 300 300 300 301 300 299 299 298 298 299 300 299 297 296 301 295 295 295 295 296 296 296 296 295 296 298 298
301 301 301 303 303 302 304 304 302 302 303 302 304 303 302 300 299 300 300 301 301 299 299 299 298 298 299 299 296 295 295 295 294 293 294 295 294 294 294 294 294 294 295 296
300 301 302 301 302 304 305 303 300 300 301 302 303 303 303 302 301 301 300 300 298 297 298 298 298 299 300 298 295 294 296 300 297 292 292 292 292 292 292 292 292 292 293 293
296 296 297 297 301 300 302 303 305 304 303 303 302 303 303 301 302 301 300 301 300 299 299 298 298 300 299 297 295 294 293 294 298 292 291 291 290 290 290 290 290 290 291 293
301 301 302 301 301 301 301 304 304 304 305 306 307 304 304 303 303 302 301 300 298 298 299 299 300 299 299 298 295 294 293 293 293 292 291 291 290 289 289 289 289 289 290 291
306 304 304 304 303 302 301 302 303 305 305 306 306 304 304 305 304 304 303 300 299 298 299 299 307 305 297 300 298 293 293 292 292 291 291 293 290 289 288 288 288 291 291 290
305 306 306 305 306 303 303 303 303 303 305 306 306 304 305 306 305 303 303 301 301 302 302 301 305 301 298 300 308 293 293 293 292 292 291 290 289 289 288 289 288 289 290 290
303 304 305 304 304 304 304 304 304 303 303 304 304 304 306 307 307 306 304 302 302 303 302 306 304 302 300 300 305 294 292 292 292 292 291 290 289 288 287 287 288 289 289 289
299 299 300 301 301 300 302 302 303 305 306 305 305 306 304 304 305 306 306 306 306 306 305 304 305 305 302 309 298 295 292 293 292 291 291 290 289 288 287 286 287 290 289 289
297 298 298 298 297 297 299 300 300 301 301 301 301 302 303 304 304 303 302 306 308 307 306 305 306 308 309 305 299 294 292 293 292 292 292 291 290 288 287 286 287 290 289 288
296 298 298 298 299 298 297 298 299 299 299 300 300 300 300 300 302 305 308 308 307 307 307 306 307 308 308 299 295 294 294 294 294 293 293 293 290 288 288 287 287 288 290 289
298 298 297 297 296 295 296 296 295 295 296 298 299 299 303 303 303 304 308 308 307 308 307 308 307 307 307 301 297 296 296 296 296 295 294 292 290 289 290 287 287 287 289 290
297 296 297 296 296 297 296 294 293 294 300 301 302 301 304 305 305 306 306 306 307 306 307 306 306 306 304 300 299 298 297 296 297 297 295 294 293 291 290 288 287 287 290 291
297 297 296 295 296 296 296 295 294 294 295 296 295 298 302 304 304 304 305 305 305 303 303 304 305 304 303 302 299 298 297 297 297 298 296 296 294 292 292 290 289 290 291 290

GFSNGP_sfc_thetae_093.txt.gz
Theta_e
293 296 297 297 298 296 293 294 297 303 307 312 314 316 321 322 322 322 323 325 326 327 329 332 333 336 339 340 340 340 338 337 338 341 341 341 340 341 344 347 349 347 345 346
293 299 297 294 296 297 305 309 307 308 308 316 317 320 319 317 318 319 320 323 325 326 327 329 330 331 333 334 336 338 337 336 338 338 338 337 338 339 339 340 342 344 345 346
288 296 294 289 294 294 304 310 309 303 308 313 314 316 317 315 315 316 317 319 322 324 326 327 327 329 329 330 332 331 331 333 335 336 333 334 334 335 336 336 338 339 342 344
289 291 286 291 300 302 311 312 312 311 312 314 315 317 317 317 313 313 314 313 313 315 321 326 328 327 322 321 322 324 326 329 332 331 331 332 332 331 333 333 334 336 338 339
289 288 293 296 298 298 296 308 314 311 312 312 310 310 308 314 315 313 312 312 311 314 316 317 316 315 315 314 315 316 316 319 321 324 328 329 328 330 331 330 329 331 336 338
292 288 286 294 302 306 307 302 316 314 309 307 309 300 302 309 311 312 311 311 314 315 314 312 310 312 311 310 311 310 312 313 313 315 319 319 322 324 329 326 327 329 332 337
292 289 295 302 304 305 291 297 312 311 309 309 303 303 305 306 308 309 309 310 310 310 308 307 308 308 307 306 305 307 309 309 309 310 312 313 316 320 319 319 320 328 334 334
286 287 287 304 304 296 298 302 311 310 309 306 307 307 305 304 307 309 307 308 308 306 304 304 305 305 302 302 304 305 305 305 304 304 307 309 309 310 312 311 311 311 313 314
291 292 300 302 299 304 306 304 305 307 309 308 307 305 305 305 308 308 307 306 305 303 302 302 302 302 300 300 302 302 302 301 301 302 303 304 305 305 305 305 306 307 307 307
294 298 299 301 304 304 307 305 308 309 309 309 307 307 306 304 305 305 305 304 303 302 300 299 300 301 300 300 300 300 299 298 299 299 299 300 302 303 301 301 302 304 303 304
292 297 301 302 302 304 303 305 307 308 309 309 307 306 305 303 303 304 303 302 301 300 299 298 298 299 299 299 299 298 297 297 296 297 296 297 298 299 300 299 300 299 299 300
291 297 295 298 302 305 303 303 304 304 303 305 305 303 303 301 301 301 301 300 299 299 298 297 297 298 298 298 298 296 295 295 295 295 295 296 296 296 300 300 299 297 296 297
297 300 300 300 303 304 302 302 303 303 304 303 303 303 302 300 300 303 300 300 299 299 298 297 297 297 298 298 297 295 294 293 293 295 294 294 294 293 292 294 298 297 295 296
301 299 299 301 300 302 303 305 305 303 304 304 303 302 302 300 301 300 300 300 300 299 298 297 297 296 298 298 296 294 295 298 292 292 292 291 292 292 292 291 290 291 295 295
300 300 299 301 304 304 303 302 300 300 301 302 303 303 302 300 299 300 299 300 299 298 297 297 297 297 297 297 294 293 292 291 291 291 291 291 290 290 290 290 289 289 291 293
299 300 301 298 299 301 303 301 299 299 299 302 302 302 302 302 301 300 299 300 298 297 297 297 297 298 298 295 293 294 294 298 293 290 290 289 289 289 288 288 288 288 288 289
294 294 295 296 299 298 299 302 302 302 303 303 303 303 301 300 299 298 299 300 299 297 297 297 297 298 298 294 293 292 293 294 297 291 290 289 289 288 288 287 287 287 287 290
300 299 299 299 299 299 299 300 302 303 304 305 305 303 303 299 299 300 299 300 297 297 297 298 298 298 297 295 293 293 292 292 291 291 290 290 289 288 288 287 287 287 287 289
302 302 302 303 302 300 300 300 301 302 302 303 304 304 304 304 303 302 302 299 299 297 299 298 305 304 296 298 296 292 292 291 291 290 291 292 290 289 287 287 287 287 287 288
304 304 304 303 304 302 301 301 302 301 302 302 302 305 304 304 305 304 303 300 302 302 304 300 303 303 298 299 307 292 292 292 291 290 290 290 289 288 288 289 288 287 287 287
301 303 303 303 302 302 302 302 302 301 302 301 301 301 304 306 305 305 300 301 303 304 304 305 302 303 301 300 306 294 292 292 291 290 290 290 289 289 288 287 286 286 287 287
297 298 299 299 298 299 299 299 300 300 300 302 305 305 302 302 304 306 305 305 307 307 305 303 304 305 303 308 301 297 293 292 292 291 290 289 289 288 288 287 286 286 286 288
297 297 296 296 295 295 297 298 298 298 298 297 298 298 299 300 301 301 302 307 309 309 307 305 306 308 309 305 299 298 296 293 291 291 291 290 290 289 288 287 286 286 286 286
295 296 296 296 296 296 294 295 295 295 295 298 297 297 297 297 298 301 304 305 306 307 307 307 307 308 308 305 301 297 295 294 292 292 291 293 291 289 289 288 287 286 286 286
296 296 296 295 294 294 294 293 293 294 295 296 296 297 301 304 303 304 302 304 306 306 306 308 308 308 307 302 299 297 296 295 294 293 292 291 291 290 290 289 289 288 286 286
296 295 295 295 295 294 293 292 292 293 294 294 296 297 299 301 305 305 307 306 307 306 306 307 307 307 306 304 301 299 297 298 296 296 294 293 293 292 291 290 289 288 288 288
295 296 295 294 294 295 294 294 292 293 294 294 294 296 297 299 299 303 304 304 304 304 306 306 305 305 304 304 303 301 299 298 296 296 295 295 294 294 293 292 290 288 288 289

GFSNGP_sfc_thetae_096.txt.gz
Theta_e
292 295 296 295 294 295 291 292 295 298 303 310 315 317 321 323 323 324 325 327 329 331 333 334 336 339 340 341 340 340 338 339 339 340 340 341 341 341 343 344 347 350 349 348
293 297 296 293 295 298 298 305 305 305 303 313 318 321 320 320 321 321 323 325 327 329 330 332 334 336 336 335 339 340 338 338 338 338 337 336 339 339 339 339 341 343 345 347
288 294 293 288 294 295 296 307 307 302 306 315 316 317 316 316 319 320 322 324 325 326 327 327 329 331 330 331 333 334 334 335 336 334 334 334 335 335 334 335 337 339 341 341
289 290 284 291 299 301 305 311 311 310 313 317 316 315 316 317 316 317 317 317 320 324 325 320 320 319 320 321 322 322 322 325 329 333 332 332 330 330 330 330 332 334 337 339
287 286 291 295 298 299 296 305 313 312 315 312 313 312 311 315 314 312 314 315 317 318 318 317 316 316 315 315 315 314 314 315 317 323 324 326 328 329 328 326 326 328 333 339
289 288 286 293 302 306 306 298 315 313 310 310 313 304 305 311 312 312 314 318 316 315 315 314 315 314 311 310 310 309 311 311 314 315 317 319 323 326 327 325 327 330 334 333
289 288 292 301 302 305 292 294 312 313 310 311 305 306 306 311 310 312 314 313 314 313 309 309 309 309 307 307 306 308 309 309 309 311 312 314 314 315 316 315 317 324 322 319
286 284 287 303 303 299 300 303 310 310 311 309 307 306 306 307 309 308 308 308 308 306 305 306 306 306 304 304 305 306 306 306 307 307 309 310 311 308 309 311 312 311 311 313
290 290 299 303 301 304 306 306 307 308 310 311 307 306 307 307 308 306 306 305 306 304 302 303 304 304 303 303 305 304 303 303 303 304 306 307 306 305 305 306 307 307 307 307
293 296 300 302 304 305 308 309 310 311 311 311 307 307 307 308 306 305 304 303 303 302 301 301 302 302 302 302 303 302 301 300 301 301 301 303 304 303 303 302 302 302 302 302
293 298 300 302 302 303 306 309 310 312 312 310 308 307 307 306 306 305 304 304 303 302 301 300 301 301 301 301 301 299 299 299 299 299 299 300 301 301 301 300 300 299 298 300
292 296 297 298 302 305 305 305 307 307 307 311 309 306 307 306 305 305 304 302 301 301 300 299 300 299 300 301 300 298 297 297 297 298 298 297 297 297 298 298 297 295 295 297
296 300 299 302 304 305 304 305 306 305 305 305 306 307 306 303 303 304 302 301 301 300 300 299 299 299 300 300 299 298 296 296 297 296 295 295 295 294 293 295 297 295 294 294
300 300 299 302 300 303 304 305 305 306 306 306 305 305 304 303 303 303 302 302 302 301 299 299 299 300 300 300 298 297 297 296 294 294 294 293 293 293 293 292 292 292 294 294
300 300 299 301 303 304 303 303 303 302 304 303 304 304 303 302 302 302 303 302 301 301 299 299 298 299 300 298 297 295 294 294 294 293 293 293 293 293 292 292 291 291 292 293
299 300 300 300 300 301 303 303 302 301 301 303 303 303 304 305 304 302 301 301 299 298 299 299 299 300 299 297 296 295 295 296 294 293 293 293 293 292 292 291 291 291 291 291
296 295 296 297 298 299 300 302 302 303 303 304 304 305 304 302 301 300 300 301 302 301 300 299 300 301 300 297 297 296 297 298 296 294 293 293 293 292 292 291 291 291 291 292
300 300 299 298 299 300 300 301 302 303 303 303 304 305 303 301 302 302 302 302 300 300 300 301 301 301 300 297 297 297 296 297 295 294 294 294 293 293 292 292 291 291 291 292
303 302 301 302 302 301 300 301 301 302 303 304 304 303 304 303 303 303 303 300 300 300 301 300 305 305 300 299 298 296 296 295 294 294 294 295 295 294 293 293 292 292 292 291
303 304 303 303 304 302 302 302 303 302 303 302 303 303 303 304 305 303 302 300 301 303 305 302 304 305 301 301 306 296 295 295 295 294 294 294 294 294 294 292 293 292 292 291
302 303 303 303 303 303 303 303 303 302 302 303 302 301 302 304 306 306 302 301 304 305 306 306 304 304 302 301 306 297 296 295 295 295 294 295 294 294 294 294 293 292 292 292
298 299 300 300 299 299 299 300 300 300 300 300 301 303 303 304 305 305 306 304 308 307 306 305 304 305 304 307 303 301 297 296 296 295 295 295 295 294 294 294 294 293 292 292
297 297 297 297 297 296 298 298 298 299 299 299 299 299 299 301 301 302 303 308 309 308 306 305 306 307 308 306 303 303 300 298 296 296 296 296 296 296 295 295 295 294 293 293
296 297 297 297 298 297 296 296 297 297 297 298 299 299 299 299 301 302 303 304 305 307 309 309 307 307 308 306 304 301 301 300 299 297 297 295 296 295 295 295 295 295 294 292
297 297 297 297 296 296 295 295 296 296 298 298 299 299 301 304 302 304 305 305 304 305 307 307 309 308 308 306 305 302 301 301 300 299 297 297 297 296 296 296 296 296 295 295
296 296 297 297 297 296 295 295 296 296 297 297 298 299 300 301 301 304 305 306 307 306 307 307 308 308 308 307 305 303 302 300 299 298 298 298 298 298 297 296 296 296 296 296
297 296 296 296 297 296 296 295 295 296 297 297 297 299 300 301 302 301 302 304 303 304 307 307 306 306 306 305 304 303 302 301 299 300 299 299 300 299 299 298 298 296 296 295

GFSNGP_sfc_thetae_099.txt.gz
Theta_e
301 301 301 300 298 302 300 304 302 305 310 317 321 321 323 325 327 329 330 332 336 337 339 341 342 344 343 343 340 339 340 340 341 345 346 351 352 353 352 356 357 359 359 359
299 301 301 298 300 303 305 303 303 310 310 320 324 324 323 324 325 326 328 329 333 336 337 338 340 342 343 342 340 340 339 338 341 340 343 346 348 348 348 349 352 353 353 353
296 299 299 296 299 301 305 308 310 308 315 322 320 321 322 322 324 324 326 328 329 330 331 333 336 337 336 338 340 340 340 340 339 337 337 338 342 343 342 345 347 348 349 350
299 298 291 299 306 307 308 314 316 316 317 320 320 322 323 325 323 324 324 324 326 322 321 321 324 325 326 327 327 327 328 330 334 334 334 334 338 338 339 341 341 344 347 338
297 295 297 299 303 302 302 307 317 316 317 318 318 318 315 323 326 323 322 320 320 319 318 319 318 319 320 320 321 321 320 321 325 333 331 332 332 333 335 337 339 345 336 334
299 293 291 299 305 308 308 305 317 317 315 314 316 312 312 316 320 320 319 318 316 317 317 315 315 316 314 315 316 319 318 318 321 324 328 326 331 330 333 335 337 332 323 320
298 296 299 304 307 308 299 302 318 319 315 317 315 317 318 320 319 321 318 315 315 314 313 313 315 317 316 317 315 316 317 318 319 322 323 323 322 323 325 325 321 319 318 316
295 294 291 308 308 302 306 312 316 316 313 311 314 317 316 317 317 314 312 311 311 310 310 312 314 314 311 310 313 315 316 316 317 318 318 317 319 319 317 320 318 319 318 315
299 299 306 309 307 310 311 312 315 316 314 313 314 314 314 311 313 313 312 313 313 311 310 313 315 316 313 312 313 314 313 313 314 314 314 315 316 316 315 316 314 311 311 312
301 303 305 308 310 312 313 313 315 317 314 313 312 312 310 310 313 314 315 314 314 313 312 311 312 312 312 312 312 312 311 311 312 311 311 312 312 312 311 310 311 311 309 306
301 303 305 306 308 308 313 316 315 316 314 312 310 310 311 308 308 312 312 312 313 312 311 310 310 310 310 311 311 309 309 309 309 309 309 308 307 307 304 303 304 305 305 303
301 304 305 305 308 308 311 314 316 313 312 314 310 309 310 309 309 307 308 309 310 311 310 309 307 307 309 310 309 308 306 306 306 306 306 306 304 300 297 297 296 294 294 297
305 307 307 307 309 309 308 310 312 314 314 311 313 313 311 310 309 308 308 308 308 308 309 308 308 308 309 309 308 307 305 305 303 303 303 302 302 302 299 297 296 294 293 293
308 308 306 308 306 310 309 309 310 312 313 313 313 314 314 311 309 309 309 311 309 308 306 305 306 306 307 308 308 306 305 301 302 301 301 301 301 301 301 300 299 298 294 294
307 308 308 309 310 310 311 310 308 308 310 311 312 312 311 309 309 310 311 310 310 310 309 308 307 307 308 308 306 306 303 301 301 301 300 300 300 300 299 299 299 298 299 296
307 307 306 306 307 308 309 309 309 308 307 310 311 311 312 312 314 312 311 310 308 307 308 307 307 308 308 307 306 304 302 300 301 301 300 300 300 299 298 298 298 298 298 297
305 304 303 304 305 307 307 309 310 310 310 309 310 312 311 310 310 311 311 311 311 311 310 309 308 309 308 306 305 302 301 301 301 301 301 300 300 299 299 298 298 298 297 295
309 309 308 307 307 307 307 308 309 310 310 311 312 311 311 310 308 309 312 312 311 311 311 311 311 309 308 306 305 303 302 302 302 301 301 301 301 301 300 299 299 298 298 296
310 311 310 309 309 309 309 309 310 310 311 311 311 311 312 312 312 312 312 310 309 308 309 310 309 309 308 308 306 304 303 302 302 302 302 301 301 302 301 301 301 300 300 299
310 311 310 310 310 310 310 310 310 311 311 311 311 311 311 312 312 310 311 310 311 308 310 308 307 308 309 309 307 304 303 302 301 301 302 302 302 303 303 298 302 301 300 299
310 311 311 311 310 310 310 311 311 310 309 309 309 310 311 312 313 312 310 306 312 312 313 309 305 306 306 307 308 305 304 303 302 302 302 301 302 302 303 303 303 302 301 300
310 310 310 310 309 308 308 308 307 308 308 308 308 308 309 310 311 312 313 311 313 309 311 308 308 309 308 309 306 307 305 304 303 303 303 302 302 303 303 303 303 303 303 303
308 308 307 306 305 305 306 306 306 307 307 307 307 307 307 307 308 306 306 312 313 312 313 312 310 309 309 307 306 305 307 305 305 304 304 304 304 304 304 304 304 304 304 304
306 306 306 306 306 306 304 305 305 305 305 306 307 307 305 303 304 307 308 306 305 306 309 311 311 308 308 311 305 304 304 307 306 306 306 300 306 306 306 305 304 305 305 303
307 305 305 305 305 304 304 304 304 305 306 306 306 307 307 308 307 306 308 308 306 306 307 307 309 309 310 309 307 309 305 304 305 308 308 308 308 308 308 307 306 306 306 306
305 304 305 306 304 304 305 304 303 304 304 305 306 308 309 309 309 309 309 307 308 306 308 309 309 311 312 310 309 308 307 306 303 302 305 306 308 308 308 308 308 307 307 307
305 302 304 303 303 303 304 304 303 303 304 306 306 307 308 308 308 306 305 308 307 308 308 307 305 304 306 309 310 308 307 306 303 304 304 304 306 309 307 307 307 308 308 308

GFSNGP_sfc_thetae_102.txt.gz
Theta_e
305 305 305 306 305 306 306 307 303 306 308 313 325 329 332 332 332 334 335 337 339 340 342 345 346 346 346 342 342 343 347 346 350 354 357 358 358 360 360 361 359 362 360 361
302 305 306 303 305 306 308 308 307 308 309 322 329 332 331 331 330 331 334 336 340 341 342 344 346 346 346 347 344 347 341 340 341 343 348 352 354 356 358 359 361 362 360 360
298 304 304 301 305 305 307 312 311 306 313 325 327 328 330 331 331 331 332 335 339 341 342 344 347 348 347 346 346 345 341 341 340 343 343 344 347 351 354 355 356 356 356 356
299 303 293 305 311 310 308 312 318 319 321 325 327 328 330 332 331 330 330 329 328 329 329 331 337 343 344 344 344 344 342 341 345 341 339 338 338 341 345 348 350 352 349 346
298 298 301 303 307 307 306 310 319 320 322 323 325 325 322 327 329 329 328 327 324 325 324 322 322 327 329 328 330 332 331 335 339 336 334 334 333 337 340 346 347 347 343 338
301 295 293 303 308 312 311 305 318 321 320 320 320 315 319 326 329 325 324 322 320 318 319 319 317 321 319 321 323 323 325 325 329 333 339 340 340 336 335 343 335 331 331 326
297 297 301 310 310 312 301 304 318 319 320 320 318 320 326 327 325 322 319 317 317 315 314 316 318 319 317 316 317 322 325 328 328 329 331 333 334 336 333 325 322 324 321 313
301 297 294 313 312 306 313 316 319 320 318 315 318 322 324 320 317 314 312 312 312 312 312 314 315 316 316 316 320 323 326 326 327 327 326 329 332 332 328 325 323 323 320 318
304 304 312 315 314 318 319 315 319 320 316 318 319 321 321 314 313 312 312 311 311 311 312 314 319 318 314 316 321 322 323 323 323 324 325 327 329 324 321 327 325 324 322 320
306 308 310 312 316 320 321 319 322 322 318 318 318 318 318 314 312 312 312 312 313 313 311 311 314 315 318 317 319 320 320 320 321 321 321 322 321 323 323 323 323 321 320 318
306 309 310 312 314 317 320 322 320 321 320 314 317 313 312 311 312 314 314 315 315 314 312 312 313 314 314 315 318 317 317 317 317 316 318 316 311 311 311 305 303 318 315 313
305 311 312 311 313 316 317 319 320 319 317 313 313 310 310 311 311 313 312 316 315 315 313 312 312 312 313 314 317 317 315 315 315 315 314 312 309 304 297 296 295 294 294 300
311 314 314 313 314 314 315 317 319 320 320 317 316 313 313 311 311 314 314 312 313 314 315 314 313 312 313 314 315 315 315 315 313 310 312 311 309 306 302 297 295 294 293 293
314 314 311 312 312 314 314 314 314 318 321 321 320 320 318 317 316 317 315 316 316 314 314 314 313 313 314 314 314 313 314 302 310 310 309 309 308 308 307 305 304 301 294 296
312 313 313 314 314 314 315 314 313 314 317 319 321 320 319 318 319 319 317 316 315 314 312 311 311 310 311 311 311 309 308 305 306 307 307 307 307 306 307 306 305 304 303 297
312 311 310 309 310 310 311 311 312 313 313 316 317 318 318 318 319 320 319 315 312 311 313 311 310 311 311 310 309 308 306 304 305 306 304 305 305 305 305 305 304 304 304 304
309 308 307 307 307 308 309 312 313 314 315 314 313 316 318 317 317 319 319 317 317 316 315 315 314 314 312 310 309 306 305 304 305 305 305 305 305 304 305 304 304 304 303 298
311 310 309 309 309 309 310 311 311 311 312 314 316 317 315 316 316 318 319 319 319 318 319 318 316 316 314 312 311 308 305 305 304 305 305 305 305 305 305 304 304 303 303 298
312 310 310 310 310 310 311 311 313 313 314 314 314 314 315 316 317 317 319 318 317 316 318 319 316 315 314 313 310 309 306 305 305 305 305 304 304 305 305 305 305 305 305 303
312 313 313 313 314 314 313 314 314 315 316 315 313 311 311 314 316 316 317 316 318 317 320 319 317 315 315 314 310 309 308 306 305 305 305 305 305 306 306 301 306 305 304 304
313 314 314 315 315 315 315 315 315 314 315 313 311 311 312 313 315 316 315 313 318 319 318 315 314 315 314 311 309 308 306 307 306 306 305 305 306 306 307 307 306 306 305 304
314 314 314 314 313 313 315 314 312 311 311 311 310 310 310 310 311 312 314 314 316 310 316 317 316 315 313 312 311 307 306 306 308 307 306 305 305 306 306 307 306 306 306 306
315 315 314 313 312 312 312 310 310 310 309 311 311 312 311 309 310 308 307 312 313 310 310 311 313 311 311 314 311 308 308 306 306 307 307 306 306 306 306 307 307 307 307 307
316 314 313 312 311 310 308 309 310 311 311 310 310 310 311 309 310 311 310 308 306 307 310 309 310 310 309 314 314 312 310 308 306 306 307 301 307 307 307 308 307 308 308 306
314 313 312 310 309 307 309 309 308 309 310 310 310 310 311 311 309 310 311 311 307 309 311 309 308 308 312 313 310 308 308 310 306 309 307 307 307 309 309 308 309 309 308 309
312 310 309 310 308 307 307 307 305 306 307 307 308 310 311 311 310 311 313 308 310 308 310 310 307 309 311 312 310 309 308 309 309 307 309 306 310 311 313 312 313 312 311 310
312 304 308 308 307 307 306 306 306 305 306 308 308 309 310 311 312 308 306 310 309 309 309 309 309 308 308 306 309 310 312 311 306 307 306 306 307 309 309 309 310 312 312 312

GFSNGP_sfc_thetae_105.txt.gz
Theta_e
306 307 308 307 307 307 307 308 305 308 309 314 325 329 334 338 338 340 339 340 341 342 347 349 349 348 349 346 349 346 348 350 350 360 360 359 359 361 358 358 358 359 359 363
305 306 307 305 308 308 308 308 308 309 309 320 331 334 336 335 333 334 336 339 343 344 346 347 348 349 349 348 350 347 346 348 351 355 355 357 358 358 360 358 359 359 358 359
300 304 305 301 306 307 308 310 310 306 312 324 326 329 333 334 333 333 337 338 341 342 344 346 348 349 348 348 349 349 344 345 346 348 346 348 350 355 355 356 358 358 357 357
301 302 295 306 313 313 309 312 313 316 315 325 327 333 335 336 333 333 334 338 339 339 341 343 349 351 352 351 350 347 348 346 346 343 343 346 344 342 345 349 354 355 353 349
300 298 300 305 309 309 308 309 320 319 321 324 331 331 327 332 333 333 333 332 329 331 332 331 335 344 348 347 347 346 345 347 346 346 343 338 338 340 343 345 347 344 343 341
303 297 294 304 310 314 313 304 317 318 323 323 326 319 325 330 330 331 328 326 323 322 322 320 321 328 328 328 332 331 334 338 340 342 337 336 336 335 338 338 336 336 331 330
299 299 302 310 312 313 302 307 318 322 322 321 322 323 330 330 327 325 321 319 318 316 316 318 320 320 318 319 320 325 328 330 331 334 334 337 338 340 336 334 331 330 326 322
302 297 294 315 313 308 315 319 320 322 322 321 321 324 322 320 318 316 314 314 314 313 314 316 317 317 316 316 321 324 327 329 330 331 329 332 337 331 328 328 327 326 324 323
302 305 314 318 317 320 320 317 321 323 322 323 321 318 318 314 313 312 311 311 313 313 314 317 318 317 314 317 322 322 324 327 329 329 331 334 333 331 327 327 326 326 326 324
307 310 312 315 319 322 323 321 323 325 322 320 314 313 312 312 311 312 312 311 312 312 311 312 316 316 317 320 322 321 321 324 325 325 327 330 331 330 329 329 328 328 326 324
307 309 312 314 316 320 323 323 323 324 323 316 313 311 311 312 313 314 314 315 315 312 311 311 314 315 316 317 321 321 323 322 321 319 323 317 309 303 315 303 300 310 323 321
306 314 314 313 316 318 319 321 320 320 319 318 313 311 312 311 312 311 314 316 314 313 314 313 313 313 315 316 316 318 319 320 318 318 318 316 314 307 295 296 295 294 294 302
314 316 316 317 316 317 317 319 322 322 321 315 314 314 314 311 313 313 312 312 315 315 315 314 314 313 313 315 318 317 315 316 317 311 316 315 313 311 306 297 295 294 293 294
317 317 314 315 314 316 316 317 318 323 323 321 319 319 316 316 318 318 314 315 316 315 315 315 315 313 315 314 314 316 314 305 312 311 312 313 313 312 310 307 306 303 295 297
316 317 316 317 317 317 317 317 316 317 320 321 322 319 320 317 317 316 319 320 319 318 317 316 314 314 315 314 313 313 312 312 310 312 312 309 311 311 310 310 311 307 302 297
315 315 314 313 314 314 315 315 314 315 317 318 320 321 321 322 321 321 322 320 318 316 318 316 316 316 314 313 312 311 310 305 305 308 308 307 309 307 307 308 308 307 307 308
313 310 311 310 310 311 311 314 315 316 316 316 318 319 320 321 321 321 323 322 320 320 320 320 318 318 316 314 311 308 308 307 306 305 306 306 307 306 306 306 305 305 306 302
315 314 313 311 311 310 311 312 313 313 314 316 318 318 319 319 319 320 322 322 320 319 320 321 321 320 317 313 312 310 308 306 304 304 305 305 306 306 305 305 305 306 304 301
313 312 311 311 312 312 313 312 313 314 315 314 314 314 316 317 318 319 321 320 320 319 319 323 320 318 318 316 314 312 309 306 306 305 306 306 305 306 305 305 305 305 305 303
313 313 313 312 313 313 313 314 315 315 316 316 314 313 313 314 317 316 318 318 320 320 322 321 322 320 318 318 315 312 311 309 307 306 306 306 306 305 306 302 305 306 305 304
313 313 313 314 314 316 315 315 315 315 316 316 312 312 313 314 315 316 315 313 319 320 321 318 322 319 319 317 315 313 310 311 309 308 307 306 306 306 306 307 307 306 307 306
314 314 314 315 315 315 316 316 315 316 316 313 312 311 312 312 313 313 315 314 315 312 317 318 318 318 319 317 314 313 313 310 309 308 307 307 307 307 307 308 308 307 307 308
315 315 316 316 315 315 315 315 313 313 312 312 311 312 312 311 311 309 309 314 314 310 313 314 313 312 313 315 314 314 313 312 310 305 306 308 307 307 307 307 308 308 308 308
317 317 317 317 317 314 312 312 312 312 312 313 312 314 311 309 310 312 313 310 307 307 311 312 310 307 308 314 316 315 313 312 314 308 308 302 308 307 306 307 308 308 309 307
319 319 318 316 313 310 311 313 311 311 311 312 312 312 312 312 310 311 312 311 305 308 312 307 309 308 311 311 314 313 314 314 311 310 310 311 308 308 308 309 308 309 309 309
318 314 313 315 311 308 310 310 308 309 309 308 309 310 310 311 311 311 311 309 310 308 310 311 310 311 311 312 313 314 315 314 310 310 310 311 308 306 310 311 311 310 308 308
316 309 312 308 308 308 309 308 308 307 307 308 308 309 309 310 310 308 307 308 309 308 308 308 310 309 311 310 310 312 314 312 306 311 310 308 308 307 309 308 308 308 310 311

GFSNGP_sfc_thetae_108.txt.gz
Theta_e
306 308 308 307 307 308 305 307 304 307 308 320 325 327 330 337 339 340 340 341 342 341 344 350 345 346 347 346 351 354 353 353 347 351 357 360 360 363 363 363 360 361 363 362
304 307 307 305 307 309 308 307 308 309 309 324 330 332 334 337 340 339 338 339 342 346 346 347 349 347 347 348 349 351 347 347 352 352 351 350 352 359 362 361 362 364 360 360
299 305 304 300 306 307 309 311 309 305 314 318 325 330 327 333 336 338 340 342 343 344 345 349 350 352 349 351 352 350 348 349 351 354 351 349 349 355 351 354 358 359 359 356
300 303 294 306 313 312 309 310 315 318 319 322 329 323 315 334 335 335 338 337 338 342 344 348 351 351 351 352 350 349 348 348 347 347 346 345 344 350 350 347 346 346 344 344
298 298 302 307 309 309 307 310 318 317 317 317 325 325 327 332 333 333 329 328 327 327 329 332 335 346 350 350 350 348 348 346 346 346 343 343 341 342 343 342 342 338 337 331
303 296 294 306 311 314 313 304 319 320 320 317 322 314 321 331 329 324 323 322 323 324 323 322 324 332 331 331 339 339 345 344 346 346 343 341 339 337 341 341 335 331 326 322
301 299 304 310 313 313 299 306 318 321 322 324 322 321 320 322 319 319 319 317 317 318 318 319 321 323 322 324 322 326 330 335 339 342 341 339 338 343 338 333 329 325 321 319
302 296 296 312 314 306 314 318 318 321 322 322 326 323 319 318 315 315 313 314 316 314 315 317 318 319 318 318 322 326 328 328 329 332 331 335 332 328 332 330 326 325 323 323
302 303 312 317 316 319 318 318 320 322 323 320 313 313 313 312 311 311 312 313 314 314 313 315 317 317 315 318 322 323 323 324 326 332 332 334 330 330 326 327 324 325 325 324
307 308 308 315 318 321 322 322 323 323 319 316 311 311 310 311 310 310 311 311 313 312 311 312 314 315 317 319 321 320 321 323 324 322 320 314 316 324 320 312 320 326 329 326
307 311 313 314 317 320 322 323 322 322 318 316 313 311 311 311 311 313 313 314 311 310 310 312 314 313 316 316 319 319 320 320 320 320 319 308 301 303 306 298 298 307 306 308
306 312 316 314 316 319 321 321 322 320 318 318 316 313 311 310 311 312 313 315 312 313 312 312 312 312 314 319 319 317 317 317 318 321 320 315 314 303 296 296 295 294 295 303
313 317 316 317 316 318 317 322 322 320 320 317 317 316 313 312 312 313 313 314 314 313 313 314 313 312 315 314 315 315 317 313 315 314 319 316 316 311 307 297 296 295 294 295
318 317 314 314 313 316 317 318 322 321 320 318 317 318 317 315 314 313 312 313 314 314 313 315 314 313 314 314 315 314 312 308 307 314 314 315 316 313 310 308 305 302 296 297
315 316 315 316 318 317 317 317 316 318 318 318 319 318 317 317 317 317 319 320 318 317 317 316 314 314 315 314 313 312 311 311 311 314 310 307 310 311 312 311 313 305 299 296
315 315 315 314 314 315 315 315 314 317 319 318 318 320 320 320 319 320 321 321 318 316 319 318 317 318 318 318 316 314 312 309 309 310 310 308 311 307 311 310 311 309 306 307
312 311 311 310 311 312 313 314 315 315 316 320 320 319 321 321 321 321 322 322 322 321 321 320 319 320 318 314 314 311 311 309 309 307 307 308 308 307 308 307 307 310 305 299
317 316 315 313 311 311 311 312 313 314 315 317 319 320 318 320 317 320 322 323 323 323 323 324 322 321 317 315 314 312 310 308 306 305 307 309 308 306 308 307 308 308 304 299
315 314 314 312 313 313 313 312 313 315 316 314 314 314 316 318 322 323 324 321 322 320 323 325 322 321 320 317 315 312 310 309 307 305 306 307 307 307 306 306 305 307 307 302
313 313 313 312 313 313 314 315 315 315 317 316 317 315 313 314 316 317 318 317 320 320 324 323 320 322 320 320 318 313 313 311 308 307 307 307 306 307 307 304 306 308 308 304
313 313 312 313 313 315 315 315 315 315 315 317 315 313 314 316 316 318 317 312 318 320 322 321 321 320 322 321 317 314 312 312 311 311 310 308 308 306 306 307 307 307 308 308
314 313 313 314 314 315 316 316 316 316 316 317 314 312 312 312 314 314 318 315 314 309 315 317 318 314 318 319 319 314 314 313 312 312 311 310 309 307 307 308 307 308 307 308
316 317 317 316 316 316 316 316 316 315 314 314 313 312 312 311 312 310 310 313 314 309 312 313 310 310 311 315 316 316 314 313 313 312 310 311 309 309 307 308 309 309 310 309
321 322 320 320 318 317 316 316 315 316 314 313 313 314 313 309 310 312 312 309 307 308 311 309 308 309 306 310 312 315 316 316 315 315 313 303 307 307 307 309 308 308 310 310
323 323 321 320 318 315 318 316 315 312 312 312 314 313 313 312 312 311 312 310 306 309 312 307 308 308 311 312 312 314 316 316 316 316 315 312 311 308 306 307 308 307 308 309
324 318 319 320 316 314 312 312 310 310 309 310 310 310 310 311 310 310 312 309 310 308 310 311 311 310 309 309 309 312 314 316 314 315 313 314 314 311 309 308 311 307 308 308
322 313 317 316 315 311 310 310 309 308 308 310 308 310 310 310 311 309 308 309 309 309 308 309 309 308 308 309 310 310 311 313 306 313 313 311 310 313 313 313 312 308 308 309

GFSNGP_sfc_thetae_111.txt.gz
Theta_e
300 304 306 303 304 305 301 300 295 301 311 314 318 320 323 323 328 331 330 332 335 335 335 334 333 334 338 338 339 345 343 345 345 348 348 350 351 346 353 352 351 350 350 349
298 304 305 303 306 306 305 306 302 310 311 318 322 328 325 325 332 333 333 334 336 338 339 332 332 332 335 333 338 347 342 342 344 345 346 347 348 346 346 346 345 347 347 345
293 301 302 296 305 306 306 311 311 309 316 321 316 317 322 319 328 330 331 332 337 338 341 342 337 333 340 341 345 344 341 342 342 345 345 345 345 347 347 346 346 344 343 331
294 297 289 303 309 310 311 314 315 315 321 318 316 317 322 329 328 325 324 323 327 329 331 334 344 344 345 344 344 343 341 344 345 344 342 339 339 340 344 344 344 340 337 334
293 292 298 305 307 306 306 308 315 316 315 320 321 322 321 325 322 322 322 322 323 324 326 328 331 338 343 343 342 342 341 341 341 340 338 338 337 337 340 340 335 332 331 326
297 292 291 302 309 312 309 301 317 318 318 319 319 310 319 321 320 318 317 317 318 321 322 322 325 331 332 335 336 339 341 340 341 340 338 335 334 335 337 332 328 325 322 320
296 293 300 307 312 313 294 300 316 317 319 317 313 315 317 317 315 315 315 315 317 318 317 320 322 324 322 326 326 328 334 339 339 338 338 336 334 333 333 328 322 320 316 312
295 293 291 310 311 304 307 312 318 318 319 316 315 314 313 313 312 312 312 313 315 314 314 316 320 321 320 320 323 327 328 328 330 333 335 332 330 333 326 326 323 321 318 314
300 298 308 312 311 312 313 317 318 315 314 312 311 311 310 309 310 310 311 312 313 312 313 314 316 317 317 319 321 323 323 324 328 322 326 329 327 326 326 325 324 323 321 318
302 305 309 311 317 317 320 318 318 317 314 312 310 310 309 309 309 309 310 310 312 311 310 310 312 313 317 318 320 320 320 321 320 311 307 305 309 308 307 306 311 313 321 318
303 305 308 312 316 319 320 320 318 316 314 312 311 310 309 308 310 311 311 311 309 309 310 310 312 312 314 316 318 317 317 318 319 314 306 299 297 301 299 295 297 302 305 305
300 307 308 310 315 321 319 318 317 315 313 313 311 309 311 310 311 311 310 311 310 310 309 309 310 310 311 313 316 314 314 315 315 319 315 305 301 298 297 296 295 294 295 297
309 314 311 313 315 321 319 319 318 316 314 312 312 311 309 308 308 312 311 311 309 309 310 311 309 309 311 313 313 309 309 306 311 313 314 311 309 304 299 295 296 295 294 294
316 315 312 313 310 315 320 321 319 318 316 314 313 313 312 310 309 308 309 312 310 311 311 310 310 309 311 312 312 310 309 308 304 308 309 311 311 309 305 302 301 298 296 296
314 314 312 314 315 314 314 319 317 315 315 314 315 313 313 310 309 310 311 312 312 310 309 312 310 310 311 311 308 306 306 304 305 305 303 305 306 303 304 304 302 298 294 296
313 312 315 312 313 313 314 315 316 315 316 315 314 313 314 315 314 313 315 315 311 310 312 311 310 311 312 311 309 307 305 308 306 304 303 302 301 302 303 303 299 298 295 296
309 308 308 308 310 310 309 310 313 317 318 316 316 316 316 316 315 314 315 317 317 315 315 315 313 315 314 310 309 308 306 302 307 300 300 300 299 301 299 300 300 300 297 300
315 315 312 310 308 307 308 310 310 313 313 315 319 318 317 315 314 315 317 318 316 315 316 317 317 316 314 311 309 308 305 304 301 300 300 301 300 300 300 300 299 299 294 295
317 315 314 313 312 310 310 308 309 312 311 311 310 309 311 311 311 317 318 318 315 312 314 318 321 319 313 313 313 309 305 303 302 300 300 302 301 300 301 301 301 299 298 295
314 314 312 312 313 312 312 310 312 312 312 311 310 308 308 309 311 311 311 310 311 316 318 318 317 316 315 316 318 307 308 305 303 301 300 299 299 300 300 300 300 301 301 297
312 312 311 312 310 312 312 313 312 311 314 314 310 308 307 309 309 308 307 307 309 308 314 318 316 314 315 315 316 310 308 307 307 304 304 302 302 300 301 301 301 301 300 298
312 311 311 311 312 312 313 313 312 311 314 314 312 308 306 306 306 307 309 309 305 309 311 309 310 313 312 315 312 311 309 307 308 308 305 305 303 300 302 303 301 302 302 302
313 313 312 311 312 312 314 314 312 313 313 311 309 308 306 306 307 308 305 306 306 304 307 305 308 309 309 305 307 308 309 309 307 307 308 307 306 305 302 302 303 304 304 302
315 315 314 314 314 315 311 311 311 312 311 310 310 310 309 305 305 306 305 306 306 308 304 304 305 308 307 304 304 305 306 308 307 306 307 302 302 303 304 302 304 305 305 303
318 317 316 315 314 313 312 311 311 310 309 309 310 310 308 308 307 308 307 307 306 307 306 307 308 307 305 304 304 305 305 306 307 306 306 305 304 303 303 303 303 302 302 302
320 318 317 316 315 314 312 310 308 308 308 307 308 308 308 308 307 309 309 308 306 306 308 306 305 305 304 304 304 305 306 306 305 305 304 305 305 305 304 303 303 302 302 304
323 314 317 314 314 312 310 309 308 307 307 307 307 307 308 308 307 306 307 307 305 305 307 307 306 304 304 304 305 305 305 304 301 305 304 303 302 303 304 306 306 304 303 305

GFSNGP_sfc_thetae_114.txt.gz
Theta_e
302 301 304 303 301 303 297 298 293 299 307 312 320 318 319 324 324 326 328 328 332 332 335 336 337 337 338 340 340 341 340 342 344 345 346 346 346 345 347 346 347 347 346 340
294 302 302 302 305 310 310 309 311 312 311 318 321 322 320 324 324 322 324 325 334 334 335 333 333 333 335 335 339 342 340 342 343 343 344 346 347 348 348 345 342 342 342 336
290 300 298 296 305 309 310 314 312 307 312 316 315 320 323 324 325 323 324 325 325 333 334 333 334 335 334 334 335 340 341 342 342 342 342 342 345 346 346 344 344 340 333 326
291 293 288 298 309 313 311 313 314 316 312 314 319 321 321 323 321 323 324 324 323 325 328 330 334 334 337 335 335 341 341 341 341 342 340 340 340 342 344 343 343 340 332 326
289 289 296 303 304 304 306 308 316 315 317 316 319 320 316 319 319 317 319 322 323 324 325 328 329 335 340 339 340 339 339 340 341 340 338 338 337 337 338 338 336 334 330 323
293 290 288 298 307 312 309 299 315 317 315 314 316 308 313 315 316 316 316 317 318 321 322 325 323 333 333 336 338 339 338 339 340 339 338 336 335 336 334 332 327 324 320 314
294 293 298 307 308 311 295 298 314 317 314 310 311 314 314 314 313 314 314 315 316 316 316 320 323 326 325 326 327 331 339 340 339 338 337 335 332 332 327 324 320 316 311 311
295 292 290 309 309 303 305 308 316 316 315 314 313 311 311 311 311 312 311 313 314 314 315 317 321 322 320 320 324 327 330 330 332 335 336 334 332 327 325 323 320 317 312 309
296 296 303 307 307 311 311 314 312 315 313 311 309 309 309 309 310 310 311 311 312 312 312 314 317 320 318 320 324 324 321 318 316 315 316 320 328 326 324 323 321 319 316 312
298 302 304 309 311 317 316 315 314 313 311 308 309 309 309 309 309 309 310 310 311 310 309 310 312 315 316 318 320 321 319 315 313 310 308 309 310 309 307 308 315 322 321 316
298 302 305 309 314 317 317 316 313 313 311 308 309 308 308 309 309 309 309 309 309 309 308 309 311 312 315 316 317 317 318 316 311 307 306 304 300 303 304 298 297 303 307 315
296 303 302 305 312 319 316 313 312 311 309 310 307 305 309 309 310 309 309 309 307 306 307 308 306 308 310 313 315 314 314 317 314 309 306 302 299 298 297 297 297 295 296 299
305 307 308 311 319 320 316 315 314 312 311 308 308 307 306 304 305 311 310 306 307 307 309 308 308 309 309 311 308 306 306 308 308 314 311 306 303 298 297 298 298 297 295 295
311 310 306 308 312 318 318 317 315 314 312 311 310 309 308 306 306 305 306 307 307 306 306 309 308 307 309 309 309 308 305 305 302 307 312 310 308 307 301 297 296 295 295 295
311 312 308 309 317 318 318 316 314 312 311 310 311 309 308 307 305 306 307 308 309 307 306 310 310 308 309 309 307 304 302 300 300 300 300 302 302 304 304 302 299 295 290 294
310 308 309 309 310 315 317 316 313 313 312 313 312 310 310 309 307 307 308 308 307 306 308 306 306 307 308 307 305 305 304 307 303 300 299 297 297 298 298 302 300 297 293 294
304 302 305 307 310 310 309 316 315 314 313 313 312 313 311 311 309 308 309 310 310 309 309 309 310 310 310 307 306 305 303 302 306 297 298 298 297 298 296 296 298 297 296 297
308 307 306 305 305 304 305 310 314 314 314 315 314 315 311 311 311 311 312 312 312 311 312 313 313 312 312 309 306 305 303 301 299 298 297 298 297 297 298 297 296 297 296 295
312 310 307 308 305 305 304 307 308 309 309 310 313 314 314 313 311 311 311 312 312 310 313 314 318 319 312 311 310 305 304 302 300 299 298 299 298 297 297 298 297 296 294 294
311 310 309 308 309 307 305 306 308 307 306 306 305 305 304 309 311 310 308 307 308 311 311 312 315 314 312 312 319 307 307 304 302 299 298 297 296 297 298 297 298 298 297 296
308 307 307 306 306 308 306 305 308 306 306 306 305 304 305 306 306 305 305 305 304 307 309 313 311 310 310 311 314 308 305 304 303 301 300 299 299 297 297 298 298 298 298 298
305 305 305 305 305 306 307 306 307 309 309 307 306 304 303 302 302 303 304 304 302 308 305 304 304 311 311 313 312 311 309 305 304 304 305 303 301 301 301 300 298 300 301 298
305 304 304 305 304 304 305 305 306 309 308 305 303 302 302 301 303 301 300 302 302 305 302 301 307 309 309 301 302 303 304 305 305 304 304 306 306 303 301 302 301 302 299 299
305 305 304 305 305 305 304 306 305 308 307 305 305 304 304 302 301 302 302 304 305 303 301 302 305 307 306 301 301 301 301 302 302 305 306 301 304 302 301 302 300 302 303 301
307 307 306 305 305 306 307 305 305 304 305 305 307 307 306 303 303 301 301 303 305 302 301 307 307 307 302 301 300 300 301 301 302 302 302 301 301 300 299 300 300 301 300 301
309 309 310 309 309 308 308 307 306 306 307 306 306 306 303 303 303 303 303 303 303 304 303 301 302 302 301 300 301 301 301 302 302 302 301 301 301 301 301 301 300 300 301 301
313 308 309 307 307 311 310 307 306 306 307 307 306 306 303 303 304 304 303 303 302 303 303 304 302 303 302 301 302 301 301 301 298 301 300 299 298 297 298 299 300 302 301 301

GFSNGP_sfc_thetae_117.txt.gz
Theta_e
299 300 299 300 305 307 301 299 293 301 308 313 318 317 320 321 324 325 326 329 331 328 334 336 338 341 344 344 345 345 345 345 344 345 345 345 343 343 343 340 339 340 343 341
296 302 303 305 308 308 309 310 310 311 309 315 322 323 322 322 321 320 324 327 330 332 334 335 337 339 341 341 342 343 343 344 345 343 344 344 345 344 345 343 344 342 341 336
289 297 301 296 303 307 308 312 309 301 308 316 317 316 318 319 322 322 323 324 327 329 332 332 333 334 335 336 339 339 340 341 343 343 341 343 344 345 343 343 342 338 333 329
289 293 288 300 308 313 310 311 313 310 313 316 316 316 317 318 316 318 316 321 323 325 330 331 333 334 336 335 335 338 338 340 341 341 340 341 341 341 342 342 342 338 332 327
288 287 294 302 304 304 302 308 313 313 313 315 318 316 314 316 317 316 316 317 320 322 324 326 330 335 336 336 335 337 337 339 339 341 339 338 338 338 339 340 341 336 331 324
290 288 287 297 307 310 309 301 313 315 313 312 313 306 311 314 315 315 316 316 316 318 320 321 324 331 337 336 338 336 337 338 339 339 337 337 337 337 336 335 330 326 321 319
290 288 295 306 308 311 295 296 312 315 312 307 308 311 313 314 313 314 314 314 316 316 316 318 322 327 326 328 328 330 339 339 337 338 337 336 336 334 329 323 319 316 313 310
290 287 287 307 307 300 304 309 315 313 313 312 313 312 312 312 312 312 312 313 314 314 315 317 321 323 322 321 324 328 330 329 334 335 336 334 331 327 324 319 314 311 307 306
293 293 302 306 307 308 310 313 314 312 311 313 311 309 309 310 310 310 310 311 312 312 313 314 317 320 319 319 322 319 320 320 317 316 318 323 328 325 324 323 319 314 311 307
296 299 303 307 312 315 316 315 313 312 309 310 308 309 309 309 309 308 309 309 310 310 309 310 313 315 317 320 321 317 315 315 316 317 315 314 313 313 315 315 321 320 316 312
296 300 304 307 310 315 314 313 311 311 309 308 308 308 309 309 308 309 308 309 309 308 307 308 309 311 314 316 318 317 314 312 310 310 308 304 302 304 306 300 302 310 310 313
296 302 302 304 311 316 312 311 310 309 307 307 305 304 305 304 308 308 307 308 306 304 305 306 306 306 307 310 313 315 315 312 310 309 306 304 304 302 298 298 296 295 296 301
302 305 306 308 316 317 313 312 311 309 308 306 306 305 305 303 305 309 307 307 306 303 304 307 306 307 307 308 305 304 304 303 308 308 306 303 301 300 298 299 298 296 295 295
308 308 305 313 312 317 315 314 313 312 309 308 307 306 305 304 304 303 302 303 304 304 304 305 303 304 304 308 306 303 302 304 305 308 309 305 303 302 296 296 296 296 295 295
308 308 307 311 315 315 315 313 311 309 309 308 308 306 305 304 303 304 305 306 305 304 304 305 305 306 308 308 305 301 300 301 302 301 301 302 302 303 300 298 298 297 293 294
309 308 308 313 313 314 313 312 309 309 309 308 308 307 307 306 305 305 305 306 304 304 305 304 304 305 305 305 302 302 301 306 302 299 297 297 296 296 296 299 297 294 292 293
304 302 303 309 311 313 313 313 312 311 311 310 309 309 308 307 306 305 305 306 306 306 306 306 307 308 307 306 303 302 301 299 303 295 296 296 296 296 295 295 296 295 294 295
307 307 307 310 310 311 310 314 313 312 311 312 312 310 309 307 307 307 307 307 307 307 309 310 310 310 309 308 305 303 302 300 298 296 295 295 295 295 295 295 296 296 296 295
308 306 307 308 306 306 307 308 312 313 313 312 311 310 311 310 309 309 309 308 307 307 312 311 316 317 311 312 310 304 302 301 299 298 297 298 295 295 294 295 295 295 296 295
310 309 307 306 305 305 306 308 309 310 311 311 311 310 309 309 310 309 308 308 310 311 311 312 311 312 311 311 318 305 304 303 301 299 297 296 295 295 295 295 296 296 296 294
308 307 306 306 305 305 306 307 305 305 304 305 306 305 306 306 305 305 303 303 303 305 308 313 309 308 309 310 313 309 306 304 302 301 300 298 297 296 295 295 296 296 296 296
305 305 305 305 305 304 303 305 305 304 304 303 303 303 304 303 301 302 303 304 302 308 304 303 303 310 309 315 308 309 306 306 305 305 303 301 300 301 300 299 299 299 297 296
303 303 303 302 303 304 304 303 305 306 305 304 303 303 303 301 302 300 300 301 303 304 300 300 306 309 307 299 300 301 302 303 302 302 301 301 303 304 300 299 300 300 297 297
302 301 302 303 302 301 301 302 303 306 307 307 305 305 302 301 300 302 301 303 304 302 300 302 305 307 304 299 299 298 298 299 299 300 302 301 305 302 299 300 300 300 300 301
303 303 301 300 301 303 304 304 303 303 304 303 302 302 305 305 304 302 301 301 304 301 300 307 308 307 300 299 298 298 298 299 299 299 299 299 299 299 302 302 302 299 299 299
303 305 306 304 305 306 305 303 305 306 305 304 304 306 306 305 303 302 301 302 301 301 299 300 302 302 300 299 299 299 299 300 299 299 298 299 298 298 297 296 296 296 297 298
309 305 305 305 305 304 305 305 307 306 306 306 306 305 306 307 306 303 302 302 302 301 301 301 300 301 300 300 300 300 298 299 297 299 298 298 296 296 296 296 296 296 297 300

GFSNGP_sfc_thetae_120.txt.gz
Theta_e
296 300 299 298 304 307 301 299 292 301 308 312 315 318 320 321 321 325 327 330 329 330 332 335 337 337 339 342 345 344 343 344 344 346 347 347 346 345 345 344 343 343 342 346
295 300 304 304 306 307 309 310 309 309 307 316 320 320 319 322 321 321 324 327 332 333 335 335 337 339 342 343 343 346 343 344 345 345 346 346 346 346 346 346 344 343 346 345
287 296 301 296 302 306 307 310 307 301 309 318 315 316 317 317 318 319 320 323 328 332 333 334 334 336 335 336 341 341 340 341 343 345 344 343 345 345 345 345 343 344 341 336
290 290 286 296 309 311 309 310 310 311 314 316 314 315 316 317 316 316 318 319 321 323 325 331 335 334 336 336 336 339 339 340 341 341 341 342 343 342 342 344 339 339 336 333
287 286 293 301 305 305 306 307 313 311 314 315 315 315 314 316 317 315 316 317 318 320 322 324 326 333 335 335 335 336 337 338 340 341 340 340 340 339 341 341 341 338 335 330
289 286 287 297 306 310 311 299 314 316 314 314 317 305 309 315 315 315 316 316 316 318 320 321 323 327 335 335 335 335 336 338 340 340 339 339 338 338 337 338 336 332 327 326
289 287 293 303 307 310 298 298 314 315 314 311 308 311 312 314 314 314 314 314 317 318 317 318 322 328 329 330 328 332 336 338 338 338 339 339 337 335 332 329 324 322 319 318
289 287 287 306 307 300 302 310 317 314 311 311 312 312 312 312 311 312 311 313 313 315 315 317 320 322 321 321 322 328 328 329 333 336 337 335 331 327 324 324 318 317 317 315
292 292 299 304 304 309 310 312 315 311 311 313 311 310 310 310 310 310 310 311 312 311 313 314 317 319 318 319 320 319 320 319 318 318 319 324 328 325 321 319 316 313 313 308
296 297 302 306 310 312 316 315 313 312 313 312 309 310 310 309 309 309 310 310 311 310 310 310 312 315 317 319 318 317 315 314 314 315 314 314 313 314 315 320 321 319 316 314
296 299 303 306 308 314 314 313 311 311 310 309 308 309 310 309 308 306 307 308 309 308 307 307 309 310 313 317 318 315 314 313 312 312 309 307 304 305 306 301 304 313 314 315
295 300 301 303 311 315 312 312 310 309 307 308 307 305 306 305 306 307 305 307 307 306 307 308 308 308 308 311 316 315 311 310 310 308 307 307 307 303 302 301 302 298 298 304
301 304 305 309 315 316 312 312 311 309 308 306 306 306 304 304 305 308 308 307 305 304 306 307 307 306 308 308 307 306 306 311 309 308 305 303 302 303 301 297 297 295 295 295
306 308 307 313 312 315 314 313 312 310 309 308 306 306 305 305 306 304 303 305 306 306 306 306 305 306 307 307 306 305 304 304 309 310 308 306 305 301 300 301 298 297 295 295
307 309 307 313 315 314 313 312 310 308 308 307 307 306 305 305 304 304 305 307 307 307 308 308 307 307 308 307 305 302 302 303 303 303 304 305 305 307 304 303 303 300 298 296
307 308 312 314 314 313 312 311 308 308 308 308 307 306 306 306 305 306 307 307 307 307 308 308 308 309 309 307 306 306 305 306 303 301 300 301 302 301 302 303 302 300 298 297
305 303 307 309 312 311 311 312 311 310 310 309 309 308 307 307 306 306 307 308 308 308 309 309 309 311 311 309 307 306 305 303 303 300 301 300 300 300 300 300 301 301 300 299
309 309 309 313 312 312 312 313 312 311 311 312 311 310 308 307 307 307 308 308 308 308 309 311 312 312 312 312 309 307 305 304 302 301 300 300 300 300 300 300 300 301 301 300
308 308 308 311 314 314 314 313 313 313 312 312 311 310 310 310 309 309 310 309 309 309 313 313 315 318 314 314 313 309 307 306 304 302 302 301 300 300 300 300 300 300 301 300
308 308 308 308 310 311 311 312 313 313 313 312 311 310 310 311 311 310 310 310 311 312 314 315 316 315 315 315 319 311 309 308 306 304 303 302 301 301 300 298 301 301 302 301
308 308 306 306 306 307 308 309 310 310 311 312 311 311 311 311 311 312 309 308 311 308 311 313 313 313 313 314 317 314 311 309 307 306 306 305 303 303 302 301 301 301 302 302
307 307 306 305 304 305 306 307 309 309 307 308 310 310 309 308 307 307 308 309 308 308 308 308 309 312 314 315 313 312 311 310 309 308 307 306 305 305 306 305 304 303 302 302
305 305 305 304 304 304 303 305 306 306 305 305 305 306 307 306 306 305 305 307 307 307 305 304 308 309 306 304 304 305 306 308 308 308 308 308 308 308 307 306 305 305 304 303
304 303 304 304 303 303 302 303 305 305 306 306 306 306 305 303 304 305 306 305 305 304 303 306 308 307 303 303 302 303 303 304 305 305 306 301 307 307 307 305 305 306 306 304
304 304 302 301 302 303 304 304 303 304 306 306 306 305 307 308 307 306 305 306 304 303 304 307 308 305 304 303 303 304 304 305 306 306 306 306 306 307 306 305 304 303 303 303
303 303 304 303 304 304 304 302 304 305 305 305 304 304 305 307 306 306 306 305 305 302 303 306 307 305 304 304 303 304 305 306 306 306 305 306 306 305 304 303 302 303 303 304
305 301 304 304 304 304 304 304 304 304 305 307 306 305 307 306 306 307 305 305 304 303 303 303 305 305 304 305 304 304 304 305 300 306 305 305 304 304 303 303 303 303 304 304